     2              OBSERVATION DATA    GPS                 RINEX VERSION / TYPE
TRRINEXO V2.7.0 LH UCSD 13-FEB-98 16:13                     PGM / RUN BY / DATE
                                                            COMMENT
Original Marker Name: ALAM                                  COMMENT
Campaign Name: Old Beach 1998                               COMMENT
4-Character Station Name: ALAM                              COMMENT
6-Character Antenna Code: TRMSST                            COMMENT
Vertical Measurement Point: BGP                             COMMENT
Vertical Offset to Rinex Ref. Point: 0.0597                 COMMENT
Radial Measurement Point: NGP                               COMMENT
Radial Offset to Rinex Ref. Point: 0.2334                   COMMENT
Antenna Height from Field Measurement: 1.0410 m             COMMENT
Original XYZ: -2309385.9749 -4817584.0573 3472107.8583      COMMENT
New XYZ position is based on association with SCEC monument COMMENT
E1D0I4P2+0011. Position of that monument is believed to be  COMMENT
valid to within 1 m horizontally; vertical accuracy         COMMENT
should be no worse than 3-times this value.                 COMMENT
                                                            COMMENT
Revised Rinex header created by UCSD GPS archive for        COMMENT
GSAC on 12-Apr-1999 (1999:102) 05:37:33 GMT                 COMMENT
For assistance contact dagnew@ucsd.edu or hjohnson@ucsd.edu COMMENT
                                                            COMMENT
ALAMO 1934                                                  MARKER NAME
Anderson SCRIPPS INSTITUTION OF OCEANOGRAPHY                OBSERVER / AGENCY
1054 TRIMBLE 4000 SST 4.81 / 4.20                           REC # / TYPE / VERS
37 TR 4000SST L1/L2 GEO                                     ANT # / TYPE
 -2309367.0000 -4817609.0000  3472162.0000                  APPROX POSITION XYZ
        0.9548        0.0000        0.0000                  ANTENNA: DELTA H/E/N
     1     2     0                                          WAVELENGTH FACT L1/2
     5    C1    L1    L2    S1    S2                        # / TYPES OF OBSERV
    30                                                      INTERVAL
  1998     2    12     0    19    0.000000                  TIME OF FIRST OBS
  1998     2    12    22    20   60.000000                  TIME OF LAST OBS
     0                                                      # OF SATELLITES
                                                            END OF HEADER
 98  2 12  0 19  0.0000000  0  8 04 02 05 07 08 09 16 24
  20745484.703          -0.01817                        24.000
  23603002.586          -0.58515                        10.250
  22901294.469          -0.64916                        15.000
  22745672.875          -0.27216                        17.250
  23064525.195          -0.80315                        11.250
  21480691.516          -0.25317                        23.000
  24863057.578          -0.87515                         8.250
  21583170.461          -0.13917                        21.000
 98  2 12  0 19 30.0000000  0  8 04 02 05 07 08 09 16 24
  20741333.789      -21811.910 7        -0.08713        24.000           3.469
  23611228.758       43229.890 5                         9.750
  22879904.828     -112411.722 6                        14.750
  22751888.453       32654.218 6        -0.24411        16.750           1.219
  23043491.258     -110534.684 5                        11.750
  21474194.531      -34136.475 7        -0.30913        23.250           2.688
  24854096.102      -47076.656 5                         8.500
  21264226.180     -100635.837 7        -0.40613        21.500           2.719
 98  2 12  0 20  0.0000000  0  8 04 02 05 07 08 09 16 24
  20737276.352      -43135.274 7    -16615.672 3        24.000           3.438
  23619485.133       86608.594 5        -0.06211        10.000           0.406
  22858509.859     -224845.046 6        -0.33211        14.750           1.063
  22758088.875       65245.372 6     25395.452 1        16.750           1.313
  23022522.719     -220734.811 5        -0.49711        11.750           0.594
  21467787.961      -67810.648 7    -26239.913 3        23.500           2.563
  24845204.758      -93811.490 5        -0.34411         8.250           0.250
  21245134.367     -200970.135 7    -78182.929 3        21.750           2.813
 98  2 12  0 20 30.0000000  0  8 04 02 05 07 08 09 16 24
  20733321.648      -63918.636 7    -32810.473 4        23.750           3.500
  23627782.648      130199.747 5     33967.013 1        10.250           0.375
  22837122.828     -337228.676 6    -87571.928 1        13.750           1.031
  22764293.250       97845.358 6     50798.025 1        16.500           1.156
  23001624.953     -330540.322 5    -85563.172 1        10.250           0.438
  21461476.609     -100970.101 7    -52078.437 2        23.250           2.406
  24836395.250     -140128.998 5    -36091.822 1         8.750           0.250
  21226114.391     -300923.557 7   -156068.663 3        21.750           2.719
 98  2 12  0 21  0.0000000  0  8 04 02 05 07 08 09 16 24
  20729473.961      -84138.574 7    -48566.255 3        24.000           3.438
  23636119.578      174034.865 5     68124.186 1        10.000           0.438
  22815750.469     -449537.986 6   -175085.615 1        15.250           1.063
  22770502.836      130483.395 6     76230.246 1        16.500           1.313
  22980814.047     -439913.523 5   -170788.985 1        10.750           0.688
  21455269.203     -133595.826 7    -77501.081 2        22.750           2.438
  24827664.156     -186004.131 5    -71838.591 1         7.750           0.281
  21207172.625     -400456.851 7   -233627.026 3        21.750           2.688
 98  2 12  0 21 30.0000000  0  8 04 02 05 07 08 09 16 24
  20725734.750     -103785.794 7    -63875.753 4        23.750           3.500
  23644514.250      218136.677 5    102489.148 1         9.750           0.438
  22794395.078     -561757.401 6   -262529.262 1        15.000           1.063
  22776722.078      163169.165 6    101699.661 1        16.250           1.156
  22960082.016     -548847.760 5   -255672.764 1        10.750           0.531
  21449164.164     -165671.147 7   -102494.828 3        22.500           2.563
  24819014.203     -231439.049 5   -107242.354 1         7.750           0.313
  21188315.867     -499556.166 7   -310847.233 3        22.250           2.781
 98  2 12  0 22  0.0000000  0  8 04 02 05 07 08 09 16 24
  20722103.078     -122866.382 7    -78743.729 3        24.000           3.438
  23652955.477      262499.049 5    137057.174 1         9.750           0.406
  22773055.750     -673900.247 6   -349913.236 1        15.250           1.188
  22782950.805      195885.710 6    127193.055 1        16.750           1.188
  22939435.383     -657348.232 5   -340218.525 1        11.250           0.594
  21443169.391     -197189.139 7   -127054.304 3        22.750           2.531
  24810457.211     -276428.471 5   -142298.963 1         8.250           0.375
  21169544.523     -598203.430 7   -387715.183 3        21.750           2.688
 98  2 12  0 22 30.0000000  0  8 04 02 05 07 08 09 16 24
  20718580.617     -141374.207 7    -93165.390 4        24.000           3.500
  23661448.195      307125.472 5    171830.948 1        10.000           0.375
  22751727.891     -785975.112 6   -437244.244 1        15.500           1.281
  22789179.352      228625.364 6    152704.450 1        16.750           1.188
  22918872.789     -765403.136 5   -424417.106 1        11.250           0.531
  21437276.328     -228157.468 7   -151185.462 3        22.500           2.594
  24801985.414     -320961.368 5   -176999.854 1         8.000           0.313
  21150862.602     -696371.979 7   -464210.120 3        21.750           2.656
 98  2 12  0 23  0.0000000  0  8 04 02 05 07 08 09 16 24
  20715168.578     -159303.250 7   -107136.051 3        23.750           3.438
  23669990.945      352013.828 5    206808.844 1         9.750           0.250
  22730416.680     -897983.560 6   -524523.488 1        15.750           1.219
  22795413.203      261383.895 6    178230.560 1        17.000           1.094
  22898394.758     -873018.452 5   -508273.136 1        11.250           0.594
  21431490.203     -258567.500 7   -174881.587 3        22.750           2.625
  24793584.734     -365050.628 5   -211355.060 1         7.500           0.375
  21132272.703     -794065.757 7   -540335.097 3        21.750           2.656
 98  2 12  0 23 30.0000000  0  8 04 02 05 07 08 09 16 24
  20711864.305     -176663.385 7   -120663.411 3        23.500           3.406
  23678579.586      397156.489 5    241984.900 1         9.500           0.313
  22709113.109    -1009920.994 6   -611747.416 1        15.500           1.094
  22801649.656      294153.585 6    203765.377 1        17.250           1.063
  22877998.555     -980215.805 5   -591803.473 1        11.500           0.656
  21425812.383     -288409.724 7   -198135.263 3        22.500           2.594
  24785286.719     -408692.775 5   -245361.836 1         8.000           0.313
  21113770.969     -891287.824 7   -616092.506 3        21.500           2.719
 98  2 12  0 24  0.0000000  0  8 04 02 05 07 08 09 16 24
  20708668.484     -193457.353 7   -133749.599 3        23.250           3.438
  23687215.328      442531.711 5    277342.156 1         9.250           0.281
  22687825.766    -1121796.328 6   -698922.944 1        15.500           1.281
  22807886.391      326934.201 6    229308.706 1        17.250           1.094
  22857675.328    -1087001.251 5   -675012.850 1        11.750           0.625
  21420238.164     -317698.230 7   -220957.465 3        22.750           2.719
  24777065.719     -451882.138 5   -279015.793 1         8.500           0.281
  21095356.289     -988055.026 7   -691495.483 3        21.750           2.719
 98  2 12  0 24 30.0000000  0  8 04 02 05 07 08 09 16 24
  20705584.805     -209667.137 7   -146380.580 4        23.500           3.563
  23695894.609      488150.003 5    312888.826 1         9.500           0.313
  22666551.211    -1233592.117 6   -786036.486 1        15.250           1.219
  22814128.266      359734.654 6    254867.491 1        17.500           1.125
  22837437.680    -1193362.260 5   -757891.496 1        11.750           0.688
  21414770.930     -346420.637 7   -243338.556 3        22.750           2.594
  24768937.508     -494613.639 5   -312313.004 1         8.750           0.250
  21077025.352    -1084382.625 7   -766555.901 3        22.000           2.656
 98  2 12  0 25  0.0000000  0  8 04 02 05 07 08 09 16 24
  20702614.242     -225285.469 7   -158550.686 4        23.500           3.625
  23704624.070      534014.158 5    348627.063 1        10.000           0.344
  22645292.273    -1345299.605 6   -873081.220 1        15.750           1.156
  22820374.375      392556.047 6    280442.595 1        17.500           1.188
  22817278.492    -1299288.467 5   -840431.328 1        11.750           0.719
  21409414.172     -374568.408 7   -265271.877 3        22.250           2.625
  24760900.078     -536867.907 5   -345238.317 1         8.750           0.219
  21058777.984    -1180282.891 7   -841283.339 3        22.500           2.750
 98  2 12  0 25 30.0000000  0  8 04 02 05 07 08 09 16 24
  20699759.539     -240292.958 7   -170244.822 4        23.000           3.531
  23713398.453      580125.574 5    384557.975 1         9.500           0.250
  22624054.984    -1456917.525 6   -960056.166 1        15.500           1.188
  22826623.820      425403.623 6    306038.103 1        17.250           1.156
  22797209.672    -1404757.317 5   -922614.776 1        11.250           0.781
  21404164.422     -402153.570 7   -286766.804 3        21.750           2.625
  24752949.422     -578633.781 5   -377783.099 1         8.250           0.219
  21040607.445    -1275761.730 7   -915682.395 3        22.250           2.688
 98  2 12  0 26  0.0000000  0  8 04 02 05 07 08 09 16 24
  20697018.641     -254687.067 7   -181460.991 4        23.250           3.500
  23722218.617      626477.832 5    420676.568 1         9.250           0.250
  22602829.320    -1568446.477 6  -1046961.796 1        16.000           1.188
  22832881.422      458276.170 6    331653.067 1        17.250           1.125
  22777229.211    -1509749.956 5  -1004427.159 1        11.750           0.750
  21399020.313     -429190.112 7   -307834.232 3        22.000           2.531
  24745089.820     -619914.462 5   -409949.815 1         7.750           0.250
  21022519.867    -1370821.867 7   -989755.185 3        22.500           2.750
 98  2 12  0 26 30.0000000  0  8 04 02 05 07 08 09 16 24
  20694391.781     -268483.137 7   -192211.161 4        23.250           3.563
  23731089.336      673082.816 5    456992.095 1         8.750           0.250
  22581625.422    -1679871.957 6  -1133786.791 1        16.000           1.188
  22839141.688      491175.863 6    357289.183 1        17.500           1.156
  22757343.156    -1614251.051 6  -1085856.510 1        12.250           0.656
  21393983.844     -455669.976 7   -328467.883 3        22.500           2.563
  24737329.188     -660701.787 5   -441732.110 1         7.500           0.250
  21004514.148    -1465434.617 7  -1063479.367 3        22.250           2.750
 98  2 12  0 27  0.0000000  0  8 04 02 05 07 08 09 16 24
  20691874.992     -281708.132 7   -202516.341 4        23.500           3.500
  23739999.227      719931.523 5    493497.529 1         8.000           0.313
  22560442.234    -1791194.255 6  -1220531.385 1        16.000           1.156
  22845406.336      524103.543 6    382947.109 1        17.250           1.188
  22737548.453    -1718269.782 6  -1166910.012 1        12.250           0.750
  21389043.703     -481615.303 7   -348685.011 3        22.250           2.500
  24729666.531     -701003.297 5   -473135.809 1         7.750           0.281
  20986598.914    -1559588.792 7  -1136846.215 3        22.500           2.813
 98  2 12  0 27 30.0000000  0  8 04 02 05 07 08 09 16 24
  20689465.656     -294383.651 7   -212393.352 4        23.500           3.531
  23748958.781      767023.134 4    530192.229 1         7.250           0.313
  22539279.633    -1902402.875 6  -1307187.401 1        16.000           1.188
  22851680.930      557075.316 6    408639.388 1        17.500           1.250
  22717847.523    -1821809.447 6  -1247590.219 1        12.500           0.750
  21384208.352     -507017.197 7   -368478.687 3        22.250           2.625
  24722083.023     -740832.467 5   -504171.468 1         8.250           0.250
  20968768.625    -1653275.723 7  -1209848.970 3        22.500           2.844
 98  2 12  0 28  0.0000000  0  8 04 02 05 07 08 09 16 24
  20687150.367     -306535.761 7   -221862.510 4        23.500           3.563
  23757970.609      814373.247 5    567088.369 1         7.500           0.219
  22518140.742    -2013491.143 6  -1393749.633 1        16.250           1.188
  22857963.102      590087.030 6    434362.798 1        17.250           1.188
  22698232.047    -1924876.514 6  -1327902.158 1        12.500           0.688
  21379483.977     -531860.130 7   -387836.806 3        22.250           2.531
  24714595.594     -780183.467 5   -534834.514 1         8.250           0.250
  20951033.805    -1746478.036 7  -1282474.113 3        22.500           2.719
 98  2 12  0 28 30.0000000  0  8 04 02 05 07 08 09 16 24
  20684938.508     -318161.551 7   -230921.547 4        23.500           3.500
  23767034.297      861986.202 5    604189.334 1         8.000           0.281
  22497021.195    -2124467.377 6  -1480224.577 1        16.500           1.250
  22864252.586      623141.273 6    460119.346 1        16.750           1.188
  22678708.992    -2027475.313 6  -1407849.221 1        12.750           0.813
  21374863.281     -556144.984 7   -406760.067 3        21.750           2.531
  24707198.320     -819066.556 5   -565132.971 1         8.250           0.313
  20933393.719    -1839186.186 7  -1354714.193 3        22.500           2.688
 98  2 12  0 29  0.0000000  0  8 04 02 05 07 08 09 16 24
  20682830.078     -329242.782 7   -239556.258 3        23.250           3.406
  23776144.469      909856.793 5    641491.030 1         7.750           0.344
  22475922.039    -2235348.600 6  -1566625.482 1        16.750           1.313
  22870552.352      656236.336 6    485907.695 1        16.750           1.156
  22659272.289    -2129612.584 6  -1487436.648 1        13.000           0.719
  21370347.375     -579872.694 7   -425249.192 3        21.500           2.500
  24699885.156     -857494.554 5   -595076.801 1         8.500           0.281
  20915841.000    -1931418.353 7  -1426583.379 3        22.250           2.938
 98  2 12  0 29 30.0000000  0  8 04 02 05 07 08 09 16 24
  20680830.414     -339763.690 7   -247754.348 3        23.500           3.438
  23785302.984      957994.398 5    679000.837 1         7.500           0.219
  22454842.516    -2346135.183 6  -1652952.632 1        16.750           1.313
  22876856.539      689365.807 6    511722.861 1        16.000           1.188
  22639925.508    -2231275.842 6  -1566654.729 1        13.000           0.656
  21365939.078     -603027.342 7   -443291.776 3        22.000           2.563
  24692657.188     -895458.382 5   -624658.941 1         8.000           0.344
  20898378.266    -2023175.797 7  -1498082.638 3        22.250           3.000
 98  2 12  0 30  0.0000000  0  8 04 02 05 07 08 09 16 24
  20678939.328     -349697.744 7   -255495.153 3        23.750           3.469
  23794516.578     1006405.605 5    716723.798 1         7.750           0.313
  22433777.453    -2456820.834 6  -1739201.153 1        16.500           1.219
  22883164.820      722521.012 6    537558.077 1        15.750           1.250
  22620672.508    -2332457.389 6  -1645497.452 1        13.000           0.844
  21361640.492     -625615.049 7   -460892.584 3        22.250           2.531
  24685521.805     -932945.439 5   -653869.588 1         7.500           0.344
  20881011.797    -2114452.208 7  -1569207.073 3        22.250           3.031
 98  2 12  0 30 30.0000000  0  8 04 02 05 07 08 09 16 24
  20677160.227     -359034.778 7   -262770.753 3        24.000           3.469
  23803779.547     1055084.109 4    754655.057 1         7.250           0.250
  22412733.594    -2567396.289 6  -1825363.792 1        16.500           1.250
  22889481.375      755711.248 6    563420.589 1        15.750           1.156
  22601512.273    -2433150.113 6  -1723959.268 1        12.750           0.844
  21357452.625     -647643.526 7   -478057.632 3        22.250           2.500
  24678480.813     -969958.240 5   -682710.671 1         8.000           0.313
  20863734.250    -2205247.507 7  -1639956.609 3        22.000           3.000
 98  2 12  0 31  0.0000000  0  8 04 02 05 07 08 09 16 24
  20675494.219     -367791.804 7   -269594.399 4        24.250           3.656
  23813092.656     1104020.639 5    792787.379 1         7.500           0.375
  22391715.352    -2677846.067 6  -1911428.505 1        16.500           1.313
  22895802.117      788926.302 6    589302.444 1        15.750           1.219
  22582442.430    -2533352.768 6  -1802039.208 1        13.500           0.875
  21353365.875     -669115.434 7   -494788.977 3        21.750           2.531
  24671523.031    -1006494.474 5   -711180.420 1         8.000           0.250
  20846542.547    -2295585.119 7  -1710349.516 3        22.000           3.094
 98  2 12  0 31 30.0000000  0  8 04 02 05 07 08 09 16 24
  20673935.586     -375990.715 7   -275983.149 4        24.000           3.563
  23822454.883     1153210.560 5    831117.113 1         8.000           0.188
  22370727.305    -2788156.281 6  -1997384.461 1        16.750           1.281
  22902126.453      822156.372 6    615195.996 1        15.750           1.188
  22563469.336    -2633066.296 6  -1879738.021 1        13.250           0.875
  21349379.320     -690048.904 7   -511100.760 3        21.250           2.500
  24664667.555    -1042554.818 5   -739279.325 1         8.750           0.219
  20829439.523    -2385455.548 7  -1780378.380 3        22.000           2.906
 98  2 12  0 32  0.0000000  0  8 04 02 05 07 08 09 16 24
  20672483.516     -383623.746 7   -281930.954 4        24.250           3.594
  23831862.836     1202657.357 5    869647.034 1         8.000           0.250
  22349763.227    -2898315.064 6  -2083222.423 1        17.000           1.250
  22908453.570      855422.802 6    641117.882 1        15.500           1.188
  22544587.750    -2732275.810 6  -1957044.085 1        13.750           0.938
  21345499.188     -710440.041 7   -526989.960 2        21.500           2.438
  24657894.461    -1078129.765 5   -767000.026 1         8.500           0.313
  20812431.820    -2474839.772 7  -1850028.386 3        21.750           2.938
 98  2 12  0 32 30.0000000  0  8 04 02 05 07 08 09 16 24
  20671133.680     -390700.615 7   -287445.385 4        24.250           3.500
  23841313.258     1252342.247 5    908362.490 1         7.500           0.406
  22328825.281    -3008345.152 6  -2168960.111 1        17.500           1.375
  22914790.406      888713.026 6    667058.313 1        15.250           1.281
  22525809.070    -2830982.566 6  -2033958.388 1        13.750           0.906
  21341725.750     -730287.994 7   -542455.895 2        21.250           2.406
  24651221.594    -1113225.685 5   -794347.465 1         8.750           0.281
  20795511.195    -2563745.571 7  -1919305.592 3        21.500           3.063
 98  2 12  0 33  0.0000000  0  8 04 02 05 07 08 09 16 24
  20669897.734     -397214.286 7   -292520.960 3        23.750           3.438
  23850815.586     1302257.638 4    947257.575 1         7.250           0.344
  22307914.000    -3118248.020 6  -2254598.654 1        17.750           1.281
  22921129.148      922020.736 6    693012.375 1        15.250           1.125
  22507117.820    -2929188.428 6  -2110482.386 1        13.250           0.813
  21338054.289     -749574.705 7   -557484.503 2        21.000           2.438
  24644638.086    -1147819.478 5   -821303.652 1         8.500           0.313
  20778685.789    -2652162.885 7  -1988202.162 3        21.750           3.031
 98  2 12  0 33 30.0000000  0  8 04 02 05 07 08 09 16 24
  20668765.555     -403158.444 7   -297152.761 4        23.750           3.500
  23860357.836     1352403.058 5    986331.863 1         7.500           0.281
  22287021.156    -3228039.254 6  -2340150.219 1        18.250           1.281
  22927472.297      955351.114 6    718984.099 1        15.000           1.125
  22488524.172    -3026893.536 6  -2186616.196 1        13.500           0.938
  21334491.398     -768292.186 7   -572069.548 2        21.250           2.469
  24638151.602    -1181898.674 5   -847858.850 1         8.750           0.313
  20761957.609    -2740078.115 7  -2056707.497 3        21.500           3.063
 98  2 12  0 34  0.0000000  0  8 04 02 05 07 08 09 16 24
  20667742.250     -408529.038 7   -301337.623 3        23.500           3.438
  23869944.016     1402775.896 5   1025583.376 1         7.500           0.281
  22266146.320    -3337729.481 6  -2425623.080 1        18.750           1.406
  22933817.961      988705.409 6    744974.460 1        14.750           1.063
  22470030.852    -3124088.351 6  -2262352.368 1        13.250           0.906
  21331042.250     -786424.898 7   -586198.932 3        21.750           2.500
  24631766.320    -1215453.024 5   -874005.076 1         8.750           0.281
  20745322.078    -2827499.862 7  -2124828.298 3        21.750           3.031
 98  2 12  0 34 30.0000000  0  8 04 02 05 07 08 09 16 24
  20666825.633     -413342.517 7   -305088.370 4        24.250           3.531
  23879571.234     1453372.605 5   1065009.359 1         7.500           0.219
  22245290.078    -3447321.234 6  -2511019.207 1        18.000           1.250
  22940169.344     1022076.685 6    770978.051 1        14.750           1.156
  22451630.117    -3220785.817 6  -2337701.001 1        13.500           0.906
  21327704.086     -803971.952 7   -599871.960 2        21.750           2.375
  24625484.188    -1248487.092 5   -899745.889 1         8.750           0.250
  20728778.156    -2914439.308 7  -2192573.274 3        21.250           3.063
 98  2 12  0 35  0.0000000  0  8 04 02 05 07 08 09 16 24
  20666016.805     -417609.581 7   -308413.335 3        24.000           3.438
  23889244.961     1504208.355 5   1104621.601 1         7.750           0.344
  22224458.375    -3556800.452 6  -2596327.632 1        18.500           1.375
  22946524.180     1055485.618 6    797010.993 1        14.500           1.094
  22433324.164    -3316983.306 6  -2412660.026 1        13.750           0.938
  21324471.227     -820944.317 7   -613097.174 2        21.500           2.344
  24619287.719    -1281010.514 5   -925088.789 1         8.500           0.250
  20712327.023    -3000896.553 7  -2259942.506 3        21.750           2.938
 98  2 12  0 35 30.0000000  0  8 04 02 05 07 08 09 16 24
  20665309.805     -421328.529 7   -311311.202 3        24.000           3.469
  23898965.820     1555302.024 4   1144434.782 1         7.000           0.250
  22203647.430    -3666163.908 6  -2681545.868 1        18.500           1.375
  22952892.133     1088937.829 6    823077.661 1        14.500           1.094
  22415115.805    -3412672.059 6  -2487222.651 1        14.000           0.938
  21321346.930     -837362.127 7   -625890.273 2        21.500           2.250
  24613190.164    -1313049.164 5   -950053.960 1         7.500           0.281
  20695964.172    -3086879.255 7  -2326941.980 3        22.000           3.000
 98  2 12  0 36  0.0000000  0  8 04 02 05 07 08 09 16 24
  20664701.766     -424503.154 7   -313784.913 4        23.750           3.531
  23908737.352     1606650.051 4   1184446.215 1         7.000           0.219
  22182858.398    -3775415.112 6  -2766676.623 1        18.500           1.344
  22959262.797     1122419.252 6    849167.091 1        14.250           1.125
  22397000.266    -3507866.086 6  -2561399.767 1        14.250           0.969
  21318326.172     -853248.163 7   -638269.000 2        21.500           2.219
  24607187.977    -1344627.174 5   -974660.172 1         8.500           0.344
  20679689.281    -3172395.907 7  -2393578.292 3        21.750           3.031
 98  2 12  0 36 30.0000000  0  8 04 02 05 07 08 09 16 24
  20664202.391     -427128.373 7   -315830.520 4        24.000           3.531
  23918557.992     1658263.715 4   1224664.602 1         6.500           0.250
  22162091.562    -3884531.380 6  -2851702.240 1        18.500           1.406
  22965642.875     1155940.409 6    875287.481 1        14.250           1.031
  22378978.375    -3602562.746 6  -2635189.338 1        14.500           1.031
  21315401.984     -868612.485 7   -650241.194 2        21.250           2.188
  24601259.086    -1375742.182 5   -998905.597 1         8.000           0.313
  20663508.445    -3257438.094 7  -2459844.890 3        21.750           3.125
 98  2 12  0 37  0.0000000  0  8 04 02 05 07 08 09 16 24
  20663813.406     -429189.538 7   -317436.599 4        24.000           3.563
  23928437.953     1710151.109 5   1265096.303 1         7.750           0.188
  22141356.281    -3993505.909 6  -2936617.408 1        18.750           1.406
  22972028.898     1189498.031 6    901436.277 1        14.250           1.156
  22361055.297    -3696749.746 6  -2708581.772 1        14.500           1.031
  21312574.719     -883458.929 7   -661809.853 2        21.000           2.250
  24595429.203    -1406384.678 5  -1022782.832 1         7.500           0.281
  20647416.422    -3341999.060 7  -2525736.508 3        21.750           3.063
 98  2 12  0 37 30.0000000  0  8 04 02 05 07 08 09 16 24
  20663526.977     -430685.322 7   -318602.129 4        24.000           3.500
  23938362.156     1762313.140 4   1305742.013 1         7.000           0.344
  22120649.180    -4102319.276 6  -3021407.000 1        19.250           1.406
  22978420.250     1223085.164 6    927608.078 1        14.250           1.031
  22343233.836    -3790411.827 6  -2781565.159 1        14.000           0.906
  21309854.195     -897764.056 7   -672956.696 2        21.250           2.250
  24589700.656    -1436524.014 4  -1046267.945 1         7.000           0.344
  20631418.500    -3426064.720 7  -2591242.177 3        22.250           2.938
 98  2 12  0 38  0.0000000  0  8 04 02 05 07 08 09 16 24
  20663344.820     -431637.604 7   -319344.148 4        23.500           3.500
  23948333.930     1814730.076 4   1346586.321 1         7.250           0.188
  22099974.625    -4210966.028 6  -3106066.757 2        19.250           1.531
  22984813.656     1256695.164 6    953797.697 1        13.750           1.000
  22325511.820    -3883542.495 6  -2854134.472 1        14.250           0.875
  21307238.406     -911517.974 7   -683674.040 2        21.000           2.313
  24584061.500    -1466140.435 4  -1069345.620 1         7.000           0.219
  20615517.430    -3509627.205 7  -2656355.763 3        22.500           3.031
 98  2 12  0 38 29.9990000  0  8 04 02 05 07 08 09 16 24
  20663267.690     -432063.798 7                        23.500
  23958353.026     1867383.649 4   1387615.066 1         6.250           0.281
  22079331.433    -4319448.105 6  -3190598.200 2        19.000           1.531
  22991213.651     1290325.237 6    980002.954 1        14.000           0.813
  22307890.456    -3976136.832 6  -2926285.863 1        14.250           1.094
  21304726.394     -924710.178 7   -693953.676 2        21.250           2.313
  24578523.417    -1495220.318 5  -1092005.201 1         7.500           0.313
  20599712.401    -3592684.040 7  -2721075.335 3        22.500           2.969
 98  2 12  0 38 59.9990000  0  8 04 02 05 07 08 09 16 24
  20663284.425     -431965.732 7                        23.750
  23968421.886     1920272.746 4   1428827.315 1         6.750           0.344
  22058717.089    -4427782.350 6  -3275014.441 2        19.250           1.500
  22997616.276     1323974.004 6   1006222.781 1        14.000           0.969
  22290371.104    -4068194.705 6  -2998019.234 1        14.000           0.969
  21302324.604     -937325.030 7   -703783.426 2        21.250           2.219
  24573096.104    -1523756.282 5  -1114240.937 1         7.500           0.281
  20584003.917    -3675227.488 7  -2785394.862 3        22.500           3.000
 98  2 12  0 39 29.9990000  0  8 04 02 05 07 08 09 16 24
  20663398.933     -431353.945 7   -319123.053 4        24.000           3.531
  23978525.745     1973375.133 3   1470205.752 1         5.500           0.281
  22038129.073    -4535966.176 6  -3359313.477 2        19.500           1.656
  23004024.065     1357641.489 6   1032457.193 1        14.250           0.938
  22272957.854    -4159713.822 6  -3069332.783 1        14.500           0.969
  21300036.550     -949364.788 7   -713165.049 2        21.500           2.344
  24567769.300    -1551754.172 4  -1136057.419 1         7.000           0.219
  20568397.253    -3757245.904 7  -2849305.271 3        22.250           3.000
 98  2 12  0 39 59.9990000  0  8 04 02 05 07 08 09 16 24
  20663614.487     -430214.566 7   -318235.206 4        24.000           3.500
  23988667.995     2026689.971 4   1511749.724 1         6.250           0.156
  22017568.214    -4644014.738 6  -3443507.115 2        19.500           1.688
  23010437.487     1391332.708 6   1058710.105 1        14.000           0.938
  22255645.917    -4250697.092 6  -3140228.790 1        14.250           0.938
  21297850.245     -960851.154 7   -722115.462 2        21.000           2.250
  24562538.159    -1579239.549 4  -1157474.498 1         7.250           0.313
  20552887.839    -3838744.107 7  -2912810.314 3        22.250           2.906
 98  2 12  0 40 29.9990000  0  8 04 02 05 07 08 09 16 24
  20663933.604     -428536.292 7   -316927.444 4        23.750           3.500
  23998856.558     2080223.197 3   1553463.896 1         5.500           0.188
  21997031.776    -4751932.079 6  -3527598.505 2        19.500           1.563
  23016852.987     1425059.509 6   1084990.765 1        14.000           0.844
  22238432.745    -4341146.035 6  -3210708.445 1        15.000           1.000
  21295767.831     -971793.095 7   -730641.641 2        20.750           2.344
  24557400.706    -1606232.113 5  -1178507.607 1         7.750           0.250
  20537477.019    -3919728.790 7  -2975915.224 3        22.500           2.906
 98  2 12  0 40 59.9990000  0  8 04 02 05 07 08 09 16 24
  20664362.886     -426299.359 7   -315184.356 4        23.250           3.500
  24009089.456     2133999.309 3   1595367.337 1         6.000           0.219
  21976522.237    -4859698.880 7  -3611572.590 2        20.250           1.625
  23023281.581     1458831.929 6   1111306.943 1        13.500           0.844
  22221328.550    -4431039.615 6  -3280755.339 1        14.750           0.969
  21293783.800     -982206.616 7   -738756.078 2        20.500           2.219
  24552360.136    -1632751.484 5  -1199171.998 1         7.500           0.250
  20522166.542    -4000188.170 7  -3038610.796 3        22.250           2.781
 98  2 12  0 41 29.9990000  0  8 04 02 05 07 08 09 16 24
  20664896.214     -423494.046 7   -312998.385 4        23.750           3.531
  24019374.128     2188030.723 3   1637469.668 1         5.750           0.219
  21956044.456    -4967312.798 7  -3695427.553 2        20.250           1.688
  23029716.362     1492656.885 6   1137664.058 1        13.500           0.844
  22204327.253    -4520374.757 6  -3350367.094 1        14.500           0.969
  21291902.144     -992100.373 7   -746465.492 2        20.500           2.188
  24547389.237    -1658811.285 4  -1219478.268 1         6.500           0.281
  20506953.909    -4080132.739 7  -3100905.223 3        22.750           2.875
 98  2 12  0 41 59.9990000  0  8 04 02 05 07 08 09 16 24
  20665539.448     -420108.612 7   -310360.365 4        23.500           3.500
  24029707.315     2242344.852 3   1679792.323 1         5.750           0.188
  21935599.620    -5074763.535 7  -3779155.353 2        20.750           1.719
  23036164.323     1526537.442 6   1164064.503 1        13.000           0.813
  22187432.519    -4609150.447 6  -3419542.926 1        14.500           1.000
  21290123.112    -1001463.532 7   -753761.456 2        20.750           2.250
  24542527.144    -1684402.297 5  -1239419.246 1         7.500           0.219
  20491837.659    -4159560.441 7  -3162796.894 3        22.500           2.813
 98  2 12  0 42 29.9990000  0  8 04 02 05 07 08 09 16 24
  20666290.323     -416160.391 7   -307283.816 4        23.250           3.563
  24040092.183     2296934.789 3   1722329.869 1         5.500           0.188
  21915186.409    -5182044.565 7  -3862750.925 2        21.000           1.656
  23042619.769     1560469.383 6   1190504.978 1        13.000           0.844
  22170641.214    -4697371.164 6  -3488286.301 1        14.750           0.969
  21288442.362    -1010285.709 7   -760635.877 2        20.250           2.313
  24537752.440    -1709506.713 5  -1258981.053 1         8.000           0.250
  20476823.050    -4238466.984 7  -3224282.468 3        22.500           2.875
 98  2 12  0 42 59.9990000  0  8 04 02 05 07 08 09 16 24
  20667148.784     -411658.371 7   -303775.733 4        23.500           3.500
  24050536.136     2351795.746 3   1765078.654 1         5.750           0.219
  21894800.526    -5289154.608 7  -3946213.261 2        21.250           1.750
  23049084.565     1594431.201 6   1216968.736 1        13.000           0.875
  22153961.870    -4785046.376 6  -3556604.616 1        14.750           1.063
  21286865.026    -1018560.300 7   -767083.610 2        20.500           2.250
  24533068.237    -1734096.089 5  -1278141.528 1         7.500           0.219
  20461908.222    -4316853.084 7  -3285362.497 3        22.250           2.844
 98  2 12  0 43 29.9990000  0  8 04 02 05 07 08 09 16 24
  20668105.339     -406627.541 7   -299855.589 3        23.750           3.438
  24061020.011     2406898.312 3   1808015.726 1         5.750           0.188
  21874451.636    -5396089.856 7  -4029539.389 2        20.750           1.750
  23055547.401     1628400.548 6   1243438.362 1        12.750           0.875
  22137375.940    -4872197.881 6  -3624514.841 1        14.750           0.969
  21285400.706    -1026272.779 7   -773093.334 2        20.500           2.281
  24528488.808    -1758154.387 4  -1296888.208 1         7.000           0.313
  20447087.386    -4394740.597 7  -3346054.023 3        22.250           2.813
 98  2 12  0 43 59.9990000  0  8 04 02 05 07 08 09 16 24
  20669156.690     -401084.767 7   -295536.525 3        23.500           3.469
  24071549.183     2462220.948 3   1851124.189 1         5.750           0.031
  21854138.698    -5502836.703 7  -4112718.708 2        21.250           1.813
  23062012.995     1662374.299 6   1269911.422 1        13.250           0.781
  22120893.612    -4958820.601 6  -3692013.028 1        14.250           0.969
  21284039.823    -1033428.058 7   -778668.883 2        20.750           2.375
  24524021.237    -1781666.327 5  -1315209.130 1         7.500           0.250
  20432361.003    -4472124.019 7  -3406352.750 3        22.250           2.844
 98  2 12  0 44 29.9990000  0  8 04 02 05 07 08 09 16 24
  20670307.589     -395050.418 7   -290834.424 3        23.750           3.469
  24082116.722     2517750.663 3   1894394.078 1         5.250           0.188
  21833861.175    -5609403.086 7  -4195757.407 2        21.000           1.906
  23068477.706     1696347.081 6   1296383.727 1        13.000           0.844
  22104509.659    -5044914.111 6  -3759098.832 1        14.250           0.969
  21282780.667    -1040038.615 7   -783819.965 2        20.750           2.250
  24519650.284    -1804639.546 5  -1333110.258 1         8.000           0.250
  20417725.987    -4549019.049 7  -3466270.906 3        22.250           2.938
 98  2 12  0 44 59.9990000  0  8 04 02 05 07 08 09 16 24
  20671553.628     -388512.718 7   -285740.099 4        23.500           3.500
  24092723.370     2573499.507 3   1937834.704 1         5.500           0.125
  21813616.261    -5715779.526 7  -4278648.096 2        20.750           1.969
  23074945.339     1730326.524 6   1322861.227 1        13.250           0.781
  22088227.433    -5130466.117 6  -3825762.694 1        14.250           1.063
  21281625.808    -1046099.525 7   -788542.757 2        20.500           2.344
  24515374.222    -1827080.556 5  -1350596.675 1         7.750           0.250
  20403188.526    -4625425.109 7  -3525808.053 3        22.000           2.875
 98  2 12  0 45 29.9990000  0  8 04 02 05 07 08 09 16 24
  20672891.933     -381474.535 7   -280255.782 4        23.500           3.500
  24103377.300     2629465.847 3   1981444.832 1         5.500           0.156
  21793412.026    -5821970.863 7  -4361394.548 2        21.000           1.875
  23081414.159     1764324.966 6   1349353.533 1        13.500           0.813
  22072054.347    -5215457.456 6  -3891989.675 1        14.000           1.031
  21280575.995    -1051618.546 7   -792843.301 2        20.500           2.250
  24511201.440    -1849016.604 5  -1367689.642 1         8.250           0.188
  20388740.565    -4701338.993 7  -3584961.683 3        22.000           2.875
 98  2 12  0 45 59.9990000  0  8 04 02 05 07 08 09 16 24
  20674323.706     -373948.705 7   -274391.478 4        23.750           3.500
  24114064.933     2685645.163 4   2025220.840 1         6.250           0.125
  21773231.323    -5928018.808 7  -4444029.263 2        21.000           1.906
  23087889.300     1798351.884 6   1375868.041 1        13.250           0.844
  22055988.620    -5299890.544 6  -3957781.658 1        14.000           1.031
  21279626.206    -1056622.306 7   -796742.340 2        20.000           2.375
  24507117.433    -1870458.624 5  -1384397.641 1         8.750           0.188
  20374388.292    -4776758.995 7  -3643730.473 3        22.250           2.906
 98  2 12  0 46 29.9990000  0  8 04 02 05 07 08 09 16 24
  20675852.987     -365909.886 7   -268127.446 4        24.250           3.500
  24124800.362     2742053.538 4   2069175.365 1         6.250           0.125
  21753079.042    -6033917.111 7  -4526547.379 2        21.000           1.938
  23094369.761     1832413.178 6   1402409.309 1        13.250           0.750
  22040029.933    -5383758.058 6  -4023132.929 1        14.250           0.969
  21278774.987    -1061097.835 6   -800229.768 2        19.750           2.375
  24503138.722    -1891392.196 5  -1400709.428 1         8.500           0.313
  20360131.425    -4851675.829 7  -3702107.180 3        22.000           2.875
 98  2 12  0 46 59.9990000  0  8 04 02 05 07 08 09 16 24
  20677483.159     -357340.695 7   -261450.139 4        24.250           3.500
  24135576.675     2798680.894 4   2113300.572 1         6.250           0.094
  21732955.065    -6139666.587 7  -4608949.528 2        21.500           1.938
  23100858.292     1866503.735 6   1428973.391 1        13.250           0.750
  22024177.362    -5467047.738 6  -4088033.946 1        14.250           1.031
  21278022.800    -1065045.469 6   -803305.849 2        19.750           2.313
  24499251.269    -1911810.422 5  -1416619.653 1         8.000           0.219
  20345977.651    -4926070.005 7  -3760076.618 3        21.750           2.938
 98  2 12  0 47 29.9990000  0  8 04 02 05 07 08 09 16 24
  20679217.659     -348227.783 7   -254349.149 4        24.000           3.500
  24146394.167     2855530.265 3   2157598.749 1         6.000           0.156
  21712862.417    -6245260.670 7  -4691230.588 2        21.500           2.000
  23107349.729     1900623.526 6   1455560.252 1        13.250           0.750
  22008438.581    -5549757.330 6  -4152482.941 1        14.500           1.125
  21277370.558    -1068461.949 6   -805968.044 2        19.750           2.313
  24495465.800    -1931705.689 5  -1432122.434 1         8.000           0.219
  20331923.878    -4999919.193 7  -3817621.394 3        22.000           2.938
 98  2 12  0 47 59.9990000  0  8 04 02 05 07 08 09 16 24
  20681056.823     -338566.842 7   -246821.120 4        24.000           3.500
  24157254.644     2912602.518 3   2202070.557 1         6.000           0.188
  21692799.089    -6350687.896 7  -4773381.631 2        20.750           1.906
  23113845.972     1934758.882 6   1482159.236 1        13.500           0.781
  21992805.847    -5631911.293 6  -4216498.972 1        14.500           0.969
  21276821.151    -1071347.570 6   -808216.588 2        19.750           2.313
  24491784.167    -1951064.294 5  -1447207.003 1         8.250           0.188
  20317973.386    -5073226.049 7  -3874743.571 3        22.000           3.000
 98  2 12  0 48 29.9990000  0  8 04 02 05 07 08 09 16 24
  20683002.909     -328344.885 7   -238855.943 3        24.250           3.406
  24168159.761     2969906.951 4   2246723.335 1         6.250           0.219
  21672775.948    -6455917.178 7  -4855378.435 2        21.000           1.938
  23120343.487     1968891.155 6   1508755.827 1        13.250           0.750
  21977281.644    -5713504.648 6  -4280078.186 1        14.750           1.063
  21276376.190    -1073677.199 6   -810031.878 2        19.500           2.344
  24488196.667    -1969894.325 5  -1461879.664 1         8.250           0.219
  20304126.800    -5145982.013 7  -3931436.478 3        22.000           2.844
 98  2 12  0 48 59.9990000  0  8 04 02 05 07 08 09 16 24
  20685054.019     -317564.916 7   -230455.946 3        24.000           3.219
  24179116.003     3027475.016 4   2291581.507 1         6.500           0.188
  21652790.683    -6560933.079 7  -4937208.973 2        21.500           1.969
  23126841.972     2003045.209 6   1535369.375 1        12.750           0.719
  21961862.253    -5794516.541 6  -4343204.305 1        14.500           1.094
  21276044.081    -1075425.924 6   -811394.524 2        19.750           2.406
  24484712.940    -1988206.191 5  -1476148.594 1         8.000           0.156
  20290392.495    -5218169.865 7  -3987686.711 3        22.000           2.906
 98  2 12  0 49 29.9990000  0  8 04 02 05 07 08 09 16 24
  20687201.354     -306277.814 7   -221660.790 3        24.250           3.406
  24190120.237     3085293.861 4   2336635.111 1         6.250           0.094
  21632843.081    -6665753.339 7  -5018887.054 2        21.000           2.063
  23133340.698     2037205.934 6   1561988.128 1        12.250           0.719
  21946549.878    -5874985.786 6  -4405907.586 1        14.500           1.063
  21275819.917    -1076620.272 6   -812325.183 2        19.500           2.438
  24481314.917    -2006034.102 5  -1490040.419 1         7.750           0.281
  20276753.347    -5289840.870 7  -4043534.209 3        22.250           2.813
 98  2 12  0 49 59.9990000  0  8 04 02 05 07 08 09 16 24
  20689442.026     -294502.657 7   -212485.318 3        24.250           3.281
  24201163.331     3143357.340 3   2381879.398 1         5.500           0.250
  21612933.815    -6770382.456 7  -5100416.196 2        20.750           2.031
  23139843.706     2071380.631 6   1588617.766 1        12.500           0.688
  21931346.784    -5954896.157 6  -4468175.374 1        14.750           1.125
  21275693.026    -1077273.189 6   -812833.947 2        19.250           2.438
  24478023.901    -2023372.289 5  -1503550.643 1         8.250           0.281
  20263209.495    -5361015.228 7  -4098994.700 3        22.250           2.844
 98  2 12  0 50 29.9990000  0  8 04 02 05 07 08 09 16 24
  20691772.175     -282250.130 7   -202937.886 3        24.250           3.375
  24212261.612     3201662.995 3   2427312.339 1         5.750           0.156
  21593058.839    -6874822.818 7  -5181798.255 2        21.250           2.000
  23146355.448     2105591.535 6   1615275.617 1        12.500           0.719
  21916247.386    -6034225.527 6  -4529990.442 1        14.500           1.156
  21275673.956    -1077387.779 6                        19.250
  24474816.808    -2040219.884 5  -1516678.598 1         8.000           0.313
  20249760.183    -5431695.002 7  -4154069.806 3        22.000           2.875
 98  2 12  0 50 59.9990000  0  7 04 05 07 08 09 16 24
  20694194.925     -269523.792 7   -193021.243 3        24.250           3.313
  21573218.995    -6979074.558 7  -5263033.337 2        21.750           2.000
  23152876.636     2139858.451 6   1641977.113 1        12.250           0.656
  21901264.394    -6112976.473 6  -4591354.792 1        14.500           1.125
  21275749.730    -1076991.194 6                        19.250
  24471706.644    -2056559.460 5  -1529410.672 1         8.250           0.250
  20236402.940    -5501887.095 7  -4208764.901 3        22.000           2.906
 98  2 12  0 51 29.9990000  0  7 04 05 07 08 09 16 24
  20696708.573     -256317.265 7   -182730.426 3        24.500           3.313
  21553418.714    -7083136.515 7  -5344120.535 2        21.750           2.063
  23159405.753     2174168.374 6   1668712.115 1        12.000           0.719
  21886386.479    -6191161.441 6  -4652278.105 1        14.750           1.250
  21275918.089    -1076107.959 6   -811925.973 2        19.250           2.313
  24468699.401    -2072369.955 5  -1541730.469 1         8.000           0.281
  20223136.308    -5571595.291 7  -4263082.930 3        22.250           2.969
 98  2 12  0 51 59.9990000  0  7 04 05 07 08 09 16 24
  20699316.245     -242611.463 7   -172050.564 3        24.500           3.375
  21533651.503    -7187001.583 7  -5425054.327 2        21.750           2.063
  23165937.636     2208513.302 5   1695474.394 1        11.250           0.625
  21871619.495    -6268768.073 6  -4712750.775 1        14.500           1.094
  21276178.894    -1074738.552 6   -810858.904 3        19.250           2.500
  24465794.714    -2087640.500 5  -1553629.541 1         8.250           0.344
  20209970.159    -5640787.927 7  -4316999.226 3        22.500           2.938
 98  2 12  0 52 29.9990000  0  7 04 05 07 08 09 16 24
  20702020.144     -228401.839 7   -160978.118 3        24.500           3.406
  21513929.237    -7290650.236 7  -5505819.481 2        21.500           2.063
  23172483.565     2242890.728 5   1722261.997 1        11.500           0.719
  21856955.355    -6345813.342 6  -4772786.008 1        14.750           1.094
  21276532.972    -1072872.271 6   -809404.658 3        19.250           2.500
  24462989.448    -2102375.205 5  -1565111.055 1         8.500           0.250
  20196904.269    -5709439.896 7  -4370494.233 3        22.500           2.969
 98  2 12  0 52 59.9990000  0  7 04 05 07 08 09 16 24
  20704819.386     -213688.460 7   -149513.134 3        24.250           3.406
  21494248.370    -7394082.554 7  -5586416.050 2        22.000           2.094
  23179023.933     2277278.900 5   1749057.961 1        11.750           0.625
  21842401.675    -6422300.821 6  -4832386.619 1        14.500           1.063
  21276983.292    -1070518.499 6   -807570.548 2        19.500           2.469
  24460282.417    -2116598.123 5  -1576193.763 1         8.000           0.313
  20183943.862    -5777545.325 7  -4423563.355 3        22.250           3.000
 98  2 12  0 53 29.9990000  0  7 04 05 07 08 09 16 24
  20707712.886     -198477.660 7   -137660.544 3        24.250           3.313
  21474607.073    -7497296.570 7  -5666842.512 2        22.000           2.063
  23185567.714     2311669.849 5   1775856.096 1        11.250           0.625
  21827953.073    -6498212.337 6  -4891538.401 1        14.500           1.188
  21277524.300    -1067666.801 6   -805348.444 2        19.000           2.469
  24457664.995    -2130322.034 5  -1586887.678 1         7.750           0.375
  20171090.315    -5845098.900 7  -4476202.470 3        22.500           2.844
 98  2 12  0 53 59.9990000  0  7 04 05 07 08 09 16 24
  20710699.815     -182790.282 7   -125436.601 3        24.000           3.250
  21455007.448    -7600290.780 7  -5747097.709 2        22.250           2.156
  23192116.683     2346070.759 5   1802661.997 1        11.250           0.719
  21813622.112    -6573530.632 6  -4950227.953 1        14.750           1.188
  21278165.144    -1064299.675 6   -802724.710 2        19.250           2.438
  24455154.698    -2143552.705 5  -1597197.238 1         7.750           0.344
  20158342.839    -5912096.489 7  -4528408.340 3        22.750           2.844
 98  2 12  0 54 29.9990000  0  7 04 05 07 08 09 16 24
  20713773.019     -166641.104 7   -112852.811 3        23.750           3.219
  21435446.253    -7703083.907 7  -5827196.215 2        22.250           2.156
  23198665.651     2380479.269 5   1829473.811 1        11.500           0.656
  21799401.644    -6648262.855 6  -5008460.822 1        14.750           1.063
  21278903.230    -1060419.639 6   -799701.308 2        19.000           2.469
  24452727.480    -2156302.721 5  -1607132.263 1         8.250           0.219
  20145690.284    -5978570.750 7  -4580206.430 3        22.750           2.938
 98  2 12  0 54 59.9990000  0  7 04 05 07 08 09 16 24
  20716935.698     -150017.568 7    -99899.392 3        23.750           3.125
  21415922.519    -7805684.182 7  -5907144.447 2        22.000           2.125
  23205211.550     2414903.655 5   1856298.006 1        11.250           0.625
  21785294.698    -6722388.578 6  -5066221.083 1        14.500           1.156
  21279739.144    -1056024.829 6   -796276.778 2        19.000           2.375
  24450392.136    -2168559.874 5  -1616683.237 1         8.500           0.313
  20133141.019    -6044532.245 7  -4631604.952 3        22.750           2.938
 98  2 12  0 55 29.9990000  0  7 04 05 07 08 09 16 24
  20720187.511     -132930.043 7    -86584.425 3        24.000           3.281
  21396433.542    -7908098.289 7  -5986947.612 2        22.000           2.094
  23211769.620     2449346.190 5   1883136.331 1        11.000           0.625
  21771305.636    -6795914.482 6  -5123513.960 1        14.500           1.125
  21280671.229    -1051118.206 6   -792453.428 2        19.250           2.375
  24448163.808    -2180298.715 5  -1625830.330 1         8.000           0.250
  20120684.651    -6109981.231 7  -4682604.125 3        23.000           2.813
 98  2 12  0 55 59.9990000  0  8 04 10 05 07 08 09 16 24
  20723528.315     -115371.509 7    -72902.428 3        24.000           3.250
  24362387.190     -125395.184 3                         5.000
  21376980.167    -8010320.105 7  -6066600.940 2        22.250           2.219
  23218329.378     2483816.486 5   1909996.298 1        11.000           0.656
  21757425.237    -6868852.812 6  -5180348.983 1        14.750           1.125
  21281702.011    -1045701.303 6   -788232.475 2        19.500           2.438
  24446025.019    -2191503.607 5  -1634561.368 1         7.750           0.281
  20108329.222    -6174905.438 7  -4733194.376 3        22.750           2.906
 98  2 12  0 56 29.9990000  0  7 04 10 05 07 08 09 24
  20726964.315      -97328.348 7    -58842.805 3        24.250           3.219
  24338508.401     -250893.788 3        -0.34211         5.000           0.219
  21357567.972    -8112342.915 7  -6146099.211 2        22.500           2.250
  23224890.190     2518310.554 5   1936874.782 1        11.000           0.625
  21743653.237    -6941211.872 6  -5236732.630 1        14.750           1.063
  21282827.151    -1039781.800 6   -783619.877 2        18.750           2.438
  20096078.425    -6239293.159 7  -4783366.585 3        23.000           2.844
 98  2 12  0 56 59.9990000  0  7 04 10 05 07 08 09 24
  20730485.972      -78809.266 7    -44412.333 3        24.250           3.156
  24314603.362     -376502.942 3    -97877.411 1         5.000           0.219
  21338191.995    -8214153.198 7  -6225431.852 2        22.250           2.156
  23231465.206     2552830.138 5   1963773.159 1        10.750           0.625
  21729995.808    -7012993.062 6  -5292666.004 1        14.750           1.125
  21284048.815    -1033364.522 6   -778619.399 2        18.750           2.313
  20083931.269    -6303128.434 7  -4833108.314 3        23.000           2.844
 98  2 12  0 57 29.9990000  0  7 04 10 05 07 08 09 24
  20734099.503      -59824.767 7    -29619.198 3        24.250           3.188
  24290678.128     -502231.356 2   -195847.454 1         4.750           0.313
  21318861.229    -8315741.373 7  -6304591.441 2        22.250           2.250
  23238035.987     2587373.860 5   1990690.346 1        11.000           0.625
  21716441.104    -7084201.131 6  -5348152.787 1        14.750           1.219
  21285367.503    -1026450.555 6   -773231.886 2        18.750           2.375
  20071887.823    -6366413.404 7  -4882421.239 3        23.000           2.781
 98  2 12  0 57 59.9990000  0  7 04 10 05 07 08 09 24
  20737801.979      -40362.363 7    -14453.666 3        24.500           3.281
  24266733.597     -628067.480 2   -293901.490 1         4.750           0.250
  21299574.847    -8417094.440 7  -6383567.826 2        22.250           2.344
  23244613.511     2621940.137 5   2017625.103 1        10.500           0.594
  21703001.722    -7154829.957 6  -5403188.210 1        14.750           1.313
  21286780.073    -1019035.587 6   -767453.989 2        18.500           2.375
  20059948.253    -6429160.883 7  -4931315.337 3        23.250           2.813
 98  2 12  0 58 29.9990000  0  7 04 10 05 07 08 09 24
  20741596.995      -20421.266 7      1084.886 3        24.250           3.313
  24242768.300     -753995.258 3   -392026.917 1         5.250           0.281
  21280330.604    -8518217.536 7  -6462365.005 2        22.000           2.406
  23251195.456     2656528.256 5   2044576.888 1        10.500           0.656
  21689675.737    -7224867.765 6  -5457763.096 1        15.000           1.281
  21288283.839    -1011117.206 6   -761283.824 2        19.000           2.469
  20048105.159    -6491396.424 7  -4979810.526 3        23.250           2.906
 98  2 12  0 58 59.9990000  0  7 04 10 05 07 08 09 24
  20745487.253           8.564 7     17004.247 3        24.250           3.375
  24218791.753     -879988.626 3   -490203.473 1         5.750           0.219
  21261132.440    -8619105.296 7  -6540978.808 2        22.250           2.438
  23257782.472     2691144.857 5   2071550.870 1        10.500           0.563
  21676464.948    -7294295.686 6  -5511862.752 1        15.000           1.188
  21289884.284    -1002699.186 6   -754724.328 2        18.500           2.406
  20036356.229    -6553133.793 7  -5027917.528 3        23.000           2.750
 98  2 12  0 59 29.9990000  0  7 04 10 05 07 08 09 24
  20749464.542       20919.972 7     33298.873 3        24.750           3.406
  24194807.917    -1006029.477 3   -588417.031 1         6.000           0.344
  21241977.675    -8719757.675 7  -6619409.200 2        22.000           2.438
  23264367.706     2725766.121 5   2098528.482 1        10.250           0.563
  21663370.089    -7363103.712 6  -5565479.370 1        15.500           1.313
  21291579.784     -993792.152 6   -747783.777 2        18.500           2.313
  20024703.886    -6614376.764 7  -5075639.284 3        23.500           2.750
 98  2 12  0 59 59.9990000  0  7 04 10 05 07 08 09 24
  20753531.573       42300.520 7     49959.051 3        24.250           3.344
  24170817.901    -1132114.051 4   -686664.648 1         6.250           0.281
  21222869.206    -8820180.795 7  -6697660.950 3        22.250           2.500
  23270960.464     2760375.543 5   2125496.861 1        10.250           0.500
  21650394.089    -7431291.448 6  -5618612.645 1        15.250           1.125
  21293370.409     -984397.844 6   -740463.532 2        18.750           2.375
  20013143.073    -6675117.505 7  -5122969.696 3        23.000           2.625
 98  2 12  1  0 29.9990000  0  7 04 10 05 07 08 09 24
  20757688.878       64141.272 7     66977.837 3        24.500           3.406
  24146816.597    -1258231.898 4   -784938.136 1         6.250           0.188
  21203802.206    -8920380.440 7  -6775738.563 3        22.500           2.594
  23277543.245     2794984.373 5   2152464.784 1        10.000           0.531
  21637538.229    -7498854.557 6  -5671259.203 1        15.250           1.281
  21295253.565     -974505.169 6   -732754.947 2        18.500           2.344
  20001682.550    -6735333.992 7  -5169891.596 3        23.000           2.750
 98  2 12  1  0 59.9990000  0  8 04 10 05 07 08 09 30 24
  20761930.433       86424.613 7     84341.486 3        25.000           3.344
  24122803.940    -1384394.497 4   -883246.494 1         7.000           0.219
  21184778.597    -9020347.384 7  -6853634.852 2        22.000           2.469
  23284123.339     2829579.668 5   2179422.159 1         9.750           0.531
  21624800.136    -7565801.547 6  -5723425.661 1        15.250           1.313
  21297225.058     -964130.334 6   -724670.659 2        18.500           2.250
  24294219.386     -131520.154 4                         6.250
  19990327.378    -6795011.029 7  -5216393.150 3        23.000           2.656
 98  2 12  1  1 29.9990000  0  8 04 10 05 07 08 09 30 24
  20766250.612      109137.025 7    102039.483 3        25.000           3.344
  24098787.909    -1510622.779 5   -981606.070 1         7.500           0.188
  21165800.198    -9120078.434 7  -6931347.329 3        22.250           2.594
  23290708.433     2864174.615 5   2206379.273 1         9.750           0.563
  21612173.847    -7632145.698 6  -5775122.379 1        15.000           1.281
  21299292.089     -953266.468 6   -716205.309 2        18.000           2.250
  24269180.987     -263093.345 3                         6.000
  19979079.370    -6854133.720 7  -5262462.743 3        23.250           2.750
 98  2 12  1  1 59.9990000  0  8 04 10 05 07 08 09 30 24
  20770655.128      132284.356 7    120076.375 3        25.000           3.438
  24074753.972    -1636920.979 4  -1080020.096 1         7.250           0.281
  21146863.987    -9219587.014 7  -7008886.455 3        22.000           2.625
  23297297.620     2898804.279 5   2233363.443 1         9.750           0.563
  21599660.823    -7697909.947 6  -5826367.224 1        15.500           1.313
  21301456.386     -941903.512 6   -707351.063 2        18.000           2.313
  24244136.503     -394709.601 4        -0.28111         6.750           0.094
  19967929.128    -6912715.688 7  -5308110.991 3        23.000           2.625
 98  2 12  1  2 29.9990000  0  8 04 10 05 07 08 09 30 24
  20775144.362      155869.294 7    138454.259 3        25.000           3.438
  24050705.878    -1763287.323 5  -1178487.208 1         7.500           0.250
  21127971.722    -9318868.738 7  -7086248.804 3        22.250           2.594
  23303897.925     2933484.761 5   2260387.209 1         9.750           0.500
  21587254.378    -7763102.739 6  -5877166.784 1        15.250           1.375
  21303710.456     -930049.755 6   -698114.371 2        18.000           2.219
  24219084.604     -526341.983 3   -102570.917 1         6.000           0.156
  19956882.026    -6970774.585 7  -5353351.652 3        23.250           2.656
 98  2 12  1  2 59.9980000  0  8 04 10 05 07 08 09 30 24
  20779715.068      179890.988 7    157172.468 3        25.000           3.375
  24026645.576    -1889715.920 5  -1277002.857 1         7.500           0.250
  21109124.646    -9417911.978 7  -7163425.313 3        22.750           2.531
  23310503.670     2968209.031 5   2287445.090 1         9.750           0.531
  21574955.076    -7827721.892 6  -5927519.345 1        15.250           1.250
  21306059.170     -917714.266 6   -688502.309 2        18.250           2.250
  24194037.959     -657966.465 3   -205135.368 1         6.000           0.219
  19945931.693    -7028314.569 7  -5398187.966 3        23.000           2.656
 98  2 12  1  3 29.9980000  0  8 04 10 05 07 08 09 30 24
  20784373.740      204365.639 7    176243.633 3        25.250           3.344
  24002579.100    -2016204.539 5  -1375565.232 1         7.500           0.219
  21090319.897    -9516735.332 7  -7240430.491 3        22.750           2.500
  23317121.506     3002983.529 5   2314542.114 1         9.750           0.500
  21562770.678    -7891771.891 6  -5977428.414 1        15.000           1.281
  21308499.943     -904881.008 6   -678502.360 2        17.750           2.188
  24168992.717     -789583.304 3   -307693.852 1         5.750           0.219
  19935078.912    -7085342.030 7  -5442624.915 3        23.250           2.594
 98  2 12  1  3 59.9980000  0  8 04 10 05 07 08 09 30 24
  20789118.725      229308.578 7    195679.702 3        25.250           3.344
  23978503.061    -2142728.393 4  -1474155.042 1         7.000           0.313
  21071557.717    -9615324.947 7  -7317253.536 3        23.000           2.531
  23323749.498     3037799.251 5   2341671.266 1         9.250           0.469
  21550693.068    -7955232.539 6  -6026878.245 1        15.250           1.344
  21311036.732     -891546.086 6   -668111.508 2        17.750           2.219
  24143953.990     -921175.394 3   -410233.109 1         6.000           0.188
  19924328.686    -7141844.591 7  -5486652.844 3        23.250           2.531
 98  2 12  1  4 29.9980000  0  8 04 10 05 07 08 09 30 24
  20793954.631      254719.063 7    215480.093 3        25.250           3.375
  23954420.529    -2269288.739 4  -1572773.252 1         7.000           0.219
  21052845.342    -9713664.441 7  -7393881.681 3        23.000           2.500
  23330375.389     3072626.552 5   2368809.450 1         9.500           0.500
  21538734.865    -8018075.967 6  -6075847.135 1        15.250           1.344
  21313668.990     -877725.823 6   -657342.465 2        18.000           2.063
  24118914.092    -1052747.408 3   -512756.660 1         6.000           0.344
  19913679.295    -7197799.928 7  -5530254.369 3        23.500           2.594
 98  2 12  1  4 59.9980000  0  8 04 10 05 07 08 09 30 24
  20798880.084      280597.638 7    235645.226 3        24.750           3.438
  23930326.936    -2395890.067 4  -1671423.390 1         6.750           0.188
  21034179.068    -9811752.860 7  -7470314.185 3        23.250           2.656
  23337004.592     3107464.294 5   2395955.757 1         9.750           0.438
  21526895.311    -8080282.872 6  -6124320.028 1        15.250           1.281
  21316390.146     -863417.108 6   -646192.813 2        18.250           2.094
  24093873.928    -1184308.868 4   -615272.049 1         6.500           0.250
  19903139.373    -7253190.590 7  -5573415.886 3        23.500           2.563
 98  2 12  1  5 29.9980000  0  8 04 10 05 07 08 09 30 24
  20803891.232      306941.185 7    256172.687 3        25.000           3.250
  23906224.857    -2522540.812 3  -1770112.009 1         6.000           0.219
  21015563.561    -9909581.437 7  -7546544.212 3        23.500           2.625
  23343633.818     3142314.250 5   2423111.573 1         9.750           0.500
  21515180.818    -8141852.825 6  -6172296.587 1        15.500           1.250
  21319206.357     -848623.655 6   -634665.448 2        18.000           2.094
  24068842.811    -1315863.709 3   -717782.193 1         5.750           0.313
  19892707.209    -7308016.550 7  -5616137.377 3        23.500           2.500
 98  2 12  1  5 59.9980000  0  8 04 10 05 07 08 09 30 24
  20808988.818      333716.866 7    277036.873 3        25.000           3.375
  23882112.420    -2649252.842 3  -1868848.386 1         6.000           0.125
  20996996.131   -10007146.710 7  -7622569.065 3        23.500           2.594
  23350265.037     3177167.305 5   2450269.813 1         9.500           0.406
  21503583.576    -8202792.370 6  -6219781.927 1        15.250           1.313
  21322106.896     -833373.399 6   -622782.135 2        17.750           2.031
  24043809.709    -1447410.015 3   -820285.734 1         5.750           0.250
  19882378.568    -7362283.904 7  -5658423.587 2        23.500           2.438
 98  2 12  1  6 29.9980000  0  8 04 10 05 07 08 09 30 24
  20814164.170      360913.254 7    298228.878 3        25.000           3.438
  23857982.646    -2776014.270 3  -1967623.247 1         5.250           0.219
  20978482.053   -10104444.661 7  -7698385.616 3        23.500           2.656
  23356904.467     3212036.361 5   2477440.525 1         9.000           0.438
  21492106.459    -8263100.193 6  -6266775.021 1        15.750           1.313
  21325096.756     -817664.799 6   -610541.671 2        17.750           2.031
  24018782.779    -1578940.580 3   -922776.991 1         5.500           0.188
  19872157.029    -7415999.196 7  -5700279.632 3        23.000           2.500
 98  2 12  1  6 59.9980000  0  8 04 10 05 07 08 09 30 24
  20819416.084      388519.900 7    319740.567 3        24.750           3.344
  23833861.537    -2902812.141 3  -2066426.486 1         5.500           0.188
  20960015.170   -10201477.608 7  -7773995.676 3        23.500           2.688
  23363544.732     3246926.055 5   2504627.323 1         9.000           0.438
  21480744.881    -8322807.263 6  -6313299.984 1        15.500           1.219
  21328173.623     -801499.574 6   -597945.412 2        17.500           2.063
  23993754.850    -1710467.319 3  -1025265.253 1         5.750           0.250
  19862037.318    -7469185.316 7  -5741723.330 2        23.500           2.469
 98  2 12  1  7 29.9980000  0  8 04 10 05 07 08 09 30 24
  20824750.740      416546.849 7    341579.775 3        25.000           3.406
  23809728.568    -3029625.118 3  -2165241.577 1         5.500           0.125
  20941605.545   -10298228.752 7  -7849386.151 3        23.500           2.625
  23370190.014     3281840.163 5   2531833.146 1         8.750           0.469
  21469499.115    -8381916.761 6  -6359359.309 1        15.500           1.281
  21331332.318     -784887.372 6   -585000.835 2        18.000           2.031
  23968727.217    -1841988.619 4  -1127749.276 1         6.500           0.219
  19852015.904    -7521843.489 7  -5782755.641 2        23.500           2.406
 98  2 12  1  7 59.9980000  0  8 04 10 05 07 08 09 30 24
  20830159.420      444980.334 7    363735.755 3        24.750           3.313
  23785594.842    -3156452.002 3  -2264067.490 1         6.000           0.250
  20923246.709   -10394711.138 7  -7924567.202 3        23.750           2.719
  23376835.662     3316773.641 5   2559054.044 1         8.750           0.406
  21458364.303    -8440430.779 6  -6404954.623 1        15.000           1.188
  21334581.568     -767837.964 6   -571715.583 2        17.750           2.000
  23943698.826    -1973510.819 4  -1230234.022 1         6.250           0.188
  19842090.850    -7573995.842 7  -5823393.806 2        23.500           2.406
 98  2 12  1  8 29.9980000  0  8 04 10 05 07 08 09 30 24
  20835651.037      473831.101 7    386216.883 3        24.500           3.281
  23761460.631    -3283281.742 3  -2362895.664 1         5.750           0.188
  20904938.998   -10490916.918 7  -7999532.718 3        23.500           2.719
  23383491.873     3351735.858 5   2586297.353 1         9.000           0.406
  21447343.201    -8498336.229 6  -6450075.722 1        15.250           1.219
  21337907.584     -750343.213 6   -558083.310 2        18.000           2.031
  23918668.607    -2105042.252 4  -1332725.943 1         6.750           0.281
  19832262.264    -7625647.897 7  -5863642.133 2        23.750           2.438
 98  2 12  1  8 59.9980000  0  8 04 10 05 07 08 09 30 24
  20841221.607      503109.531 7    409031.262 3        24.500           3.281
  23737323.748    -3410122.102 3  -2461732.122 1         6.000           0.281
  20886684.107   -10586844.713 7  -8074281.626 3        24.000           2.656
  23390143.592     3386733.152 5   2613567.976 1         8.500           0.375
  21436442.787    -8555626.967 6  -6494717.844 1        15.500           1.188
  21341319.709     -732412.554 6   -544111.378 2        17.500           1.969
  23893637.467    -2236579.885 4  -1435222.692 1         6.500           0.219
  19822527.732    -7676798.352 7  -5903499.606 2        24.000           2.406
 98  2 12  1  9 29.9980000  0  8 04 10 05 07 08 09 30 24
  20846872.045      532806.071 7    432171.439 3        24.250           3.219
  23713183.045    -3536988.896 4  -2560589.214 1         6.750           0.375
  20868480.623   -10682502.050 7  -8148819.790 3        24.000           2.781
  23396814.318     3421768.096 5   2640867.936 1         8.250           0.344
  21425661.576    -8612285.735 6  -6538867.521 1        15.500           1.156
  21344816.436     -714044.962 6   -529798.978 2        17.750           2.063
  23868612.506    -2368098.834 4  -1537704.901 1         6.250           0.219
  19812891.436    -7727438.886 7  -5942959.724 2        24.000           2.375
 98  2 12  1  9 59.9980000  0  8 04 10 05 07 08 09 30 24
  20852600.396      562901.294 7    455622.283 3        24.250           3.250
  23689034.803    -3663877.950 4  -2659463.675 1         6.750           0.313
  20850328.443   -10777893.411 7  -8223150.701 3        23.500           2.844
  23403483.131     3456831.142 5   2668189.806 1         8.500           0.438
  21414996.459    -8668318.137 6  -6582529.121 1        15.750           1.125
  21348394.889     -695227.593 6   -515136.103 2        18.250           2.000
  23843589.576    -2499587.248 4  -1640163.342 1         6.750           0.156
  19803355.123    -7777563.120 7  -5982017.539 2        23.750           2.375
 98  2 12  1 10 29.9980000  0  8 04 10 05 07 08 09 30 24
  20858406.600      593412.640 7    479397.369 3        24.000           3.219
  23664885.686    -3790777.436 4  -2758346.257 1         6.750           0.281
  20832228.521   -10873013.423 7  -8297270.166 3        23.750           2.750
  23410162.139     3491920.849 5   2695532.451 1         8.250           0.500
  21404451.428    -8723725.745 6  -6625703.864 1        15.500           1.156
  21352062.568     -675959.838 6   -500122.274 2        18.250           2.000
  23818576.412    -2631044.010 4  -1742597.069 1         6.750           0.250
  19793921.326    -7827135.895 7  -6020645.645 2        23.750           2.281
 98  2 12  1 10 59.9980000  0  8 04 10 05 07 08 09 30 24
  20864292.514      624353.564 7    503507.186 3        24.000           3.281
  23640740.068    -3917678.777 4  -2857230.282 1         7.250           0.313
  20814180.045   -10967855.939 7  -8371173.398 3        23.750           2.781
  23416847.475     3527027.374 5   2722888.195 1         8.500           0.438
  21394026.584    -8778513.217 6  -6668395.379 1        15.250           1.219
  21355822.811     -656217.946 6   -484738.975 2        17.750           1.875
  23793569.654    -2762447.898 4  -1844989.655 1         6.750           0.344
  19784595.131    -7876143.108 7  -6058833.052 2        23.750           2.375
 98  2 12  1 11 29.9980000  0  8 04 10 05 07 08 09 30 24
  20870261.326      655712.363 7    527942.622 3        24.000           3.219
  23616592.943    -4044573.800 4  -2956109.389 1         7.250           0.375
  20796185.350   -11062417.142 7  -8444857.427 3        23.500           2.656
  23423523.100     3562132.570 5   2750242.895 1         8.500           0.438
  21383717.857    -8832688.825 6  -6710610.130 1        15.250           1.219
  21359669.615     -635986.626 6   -468974.318 2        18.000           1.938
  23768571.646    -2893800.659 4  -1947342.377 1         7.000           0.219
  19775375.443    -7924587.369 7  -6096581.796 2        24.000           2.313
 98  2 12  1 11 59.9980000  0  8 04 10 05 07 08 09 30 24
  20876310.482      687492.580 7    552706.434 3        23.750           3.250
  23592444.928    -4171455.773 4  -3054978.308 1         7.250           0.281
  20778245.100   -11156697.461 7  -8518322.588 3        24.000           2.781
  23430201.443     3597223.881 5   2777586.799 1         8.500           0.375
  21373526.256    -8886255.197 6  -6752350.154 1        15.500           1.188
  21363608.529     -615276.876 6   -452836.853 2        18.000           1.969
  23743582.584    -3025123.006 4  -2049671.421 1         7.250           0.250
  19766264.170    -7972473.607 7  -6133895.716 2        24.000           2.156
 98  2 12  1 12 29.9980000  0  8 04 10 05 07 08 09 30 24
  20882440.451      719704.951 7    577806.986 3        24.000           3.313
  23568301.545    -4298326.848 5  -3153838.759 1         7.500           0.438
  20760355.521   -11250706.708 7  -8591576.525 3        23.750           2.906
  23436877.818     3632311.094 5   2804927.515 1         9.000           0.500
  21363448.084    -8939200.166 6  -6793605.969 1        15.500           1.156
  21367637.678     -594095.094 6   -436331.568 2        18.000           2.031
  23718594.943    -3156423.920 4  -2151983.742 1         7.000           0.313
  19757254.654    -8019820.104 7  -6170789.050 2        24.250           2.313
 98  2 12  1 12 59.9980000  0  8 04 10 05 07 08 09 30 24
  20888646.397      752325.030 7    603225.239 3        24.000           3.344
  23544164.412    -4425191.106 5  -3252693.876 1         7.500           0.344
  20742517.162   -11344445.945 7  -8664620.071 3        23.750           2.938
  23443556.396     3667394.117 5   2832264.940 1         8.750           0.500
  21353493.279    -8991526.703 6  -6834379.884 1        15.500           1.156
  21371759.975     -572453.480 6   -419467.978 2        17.500           2.031
  23693615.186    -3287707.380 4  -2254282.484 1         7.000           0.219
  19748340.217    -8066658.711 7  -6207286.627 2        24.000           2.313
 98  2 12  1 13 29.9980000  0  8 04 10 05 07 08 09 30 24
  20894929.131      785337.183 7    628949.005 3        23.500           3.313
  23520022.771    -4552037.494 5  -3351535.065 1         7.750           0.375
  20724729.365   -11437920.698 7  -8737457.506 3        24.000           3.000
  23450236.271     3702488.035 5   2859610.877 1         9.250           0.375
  21343652.990    -9043224.671 6  -6874664.009 1        15.750           1.125
  21375958.061     -550388.807 6   -402274.730 2        17.500           1.875
  23668627.482    -3418993.547 4  -2356583.306 1         6.500           0.344
  19739524.693    -8112992.462 7  -6243390.818 2        24.000           2.406
 98  2 12  1 13 59.9980000  0  8 04 10 05 07 08 09 30 24
  20901284.311      818740.626 7    654977.667 3        23.500           3.375
  23495891.404    -4678859.173 5  -3450357.033 1         7.750           0.344
  20706992.006   -11531131.065 7  -8810088.939 3        24.000           3.063
  23456914.522     3737603.757 5   2886973.809 1         8.500           0.344
  21333937.943    -9094287.517 6  -6914453.230 1        15.750           1.250
  21380234.615     -527921.862 6   -384768.016 2        17.250           1.906
  23643645.467    -3550285.049 4  -2458888.283 1         6.250           0.344
  19730805.389    -8158810.022 7  -6279092.783 2        24.250           2.344
 98  2 12  1 14 29.9980000  0  8 04 10 05 07 08 09 30 24
  20907714.482      852530.897 7    681307.754 3        23.500           3.250
  23471760.467    -4805664.600 5  -3549166.345 1         8.000           0.375
  20689306.943   -11624068.786 7  -8882507.921 3        24.000           2.969
  23463605.897     3772758.319 5   2914366.980 1         9.000           0.406
  21324341.498    -9144727.519 6  -6953757.119 1        15.750           1.188
  21384588.498     -505048.213 6   -366944.405 2        17.500           1.844
  23618664.865    -3681572.591 4  -2561190.193 1         6.250           0.313
  19722184.670    -8204110.603 7  -6314391.912 2        24.500           2.344
 98  2 12  1 14 59.9980000  0  8 04 10 05 07 08 09 30 24
  20914215.107      886698.098 7    707931.559 3        23.500           3.219
  23447628.701    -4932450.125 5  -3647960.129 1         7.750           0.281
  20671680.201   -11716700.962 7  -8954688.814 3        24.000           3.063
  23470308.068     3807963.449 5   2941799.576 1         8.500           0.469
  21314856.748    -9194549.079 6  -6992579.105 1        16.250           1.125
  21389017.365     -481764.325 6   -348801.121 2        17.250           1.969
  23593684.537    -3812836.623 4  -2663473.765 1         6.750           0.188
  19713667.732    -8248868.330 7  -6349268.037 2        24.250           2.281
 98  2 12  1 15 29.9980000  0  8 04 10 05 07 08 09 30 24
  20920789.389      921243.077 7    734849.732 3        23.250           3.250
  23423508.420    -5059223.862 5  -3746744.722 1         7.750           0.281
  20654111.779   -11809017.098 7  -9026623.447 3        24.000           3.031
  23477014.451     3843221.682 5   2969273.531 1         9.250           0.406
  21305495.115    -9243751.046 6  -7030918.291 1        16.500           1.219
  21393529.037     -458060.079 6   -330330.291 2        17.000           2.000
  23568713.123    -3944070.340 4  -2765733.714 1         6.500           0.219
  19705255.451    -8293079.908 7  -6383718.596 2        24.500           2.344
 98  2 12  1 15 59.9980000  0  8 04 10 05 07 08 09 30 24
  20927434.459      956166.119 7    762062.497 3        23.000           3.250
  23399381.436    -5186010.760 5  -3845539.615 1         8.000           0.375
  20636607.381   -11901005.346 7  -9098302.580 3        24.500           3.031
  23483734.568     3878528.205 5   2996785.129 1         8.500           0.375
  21296250.443    -9292342.293 6  -7068781.588 1        16.000           1.344
  21398122.631     -433923.139 6   -311522.298 2        17.000           1.844
  23543750.795    -4075260.101 3  -2867959.447 1         6.000           0.219
  19696943.467    -8336748.980 7  -6417746.419 2        24.750           2.375
 98  2 12  1 16 29.9980000  0  8 04 10 05 07 08 09 30 24
  20934151.693      991461.068 7                        23.250
  23375254.732    -5312801.000 5  -3944337.096 1         8.250           0.281
  20619166.021   -11992658.820 7  -9169720.857 3        24.250           3.094
  23490462.803     3913881.796 5                         8.750
  21287119.787    -9340326.301 6  -7106171.717 1        16.250           1.313
  21402799.818     -409343.738 6   -292369.526 2        17.250           1.844
  23518794.568    -4206392.196 4  -2970140.217 1         7.000           0.188
  19688734.201    -8379887.564 7  -6451360.873 2        24.500           2.406
 98  2 12  1 16 59.9980000  0  8 04 10 05 07 08 09 30 24
  20940938.373     1027123.018 7    817353.605 3        23.250           3.031
  23351129.623    -5439566.322 5  -4043115.148 1         8.000           0.281
  20601789.490   -12083977.748 7  -9240878.444 3        24.250           3.156
  23497195.842     3949268.526 5   3051907.497 1         8.250           0.375
  21278109.928    -9387673.163 6  -7143065.366 1        16.250           1.250
  21407559.881     -384328.243 6   -272876.946 2        17.250           1.813
  23493848.717    -4337470.938 4  -3072279.425 1         6.750           0.281
  19680625.514    -8422497.836 7  -6484563.657 2        24.750           2.375
 98  2 12  1 17 29.9980000  0  8 04 10 05 07 08 09 30 24
  20947794.498     1063161.796 7    845435.780 3        23.500           3.125
  23327015.428    -5566299.711 5  -4141868.317 1         7.750           0.313
  20584472.350   -12174981.408 7  -9311790.371 3        24.000           3.188
  23503937.303     3984673.960 5   3079496.178 1         8.250           0.469
  21269223.428    -9434377.225 6  -7179458.133 1        16.250           1.281
  21412402.139     -358884.699 6   -253050.816 2        17.500           1.813
  23468917.397    -4468503.595 4  -3174382.735 1         6.750           0.250
  19672616.990    -8464587.570 7  -6517360.826 2        24.750           2.250
 98  2 12  1 17 59.9980000  0  8 04 10 05 07 08 09 30 24
  20954727.271     1099576.955 7    873811.239 3        23.750           3.000
  23302908.545    -5692982.952 5  -4240582.398 1         8.000           0.344
  20567211.201   -12265685.157 7  -9382468.596 3        24.250           3.094
  23510673.084     4020090.062 5   3107093.179 1         7.750           0.375
  21260457.115    -9480441.978 6  -7215352.737 1        16.250           1.281
  21417320.889     -333024.361 6   -232899.914 2        17.250           1.750
  23443990.732    -4599485.490 4  -3276446.461 1         6.750           0.313
  19664707.795    -8506151.020 7  -6549747.902 2        24.500           2.344
 98  2 12  1 18 29.9980000  0  8 04 10 05 07 08 09 30 24
  20961725.576     1136357.835 7    902471.671 3        23.250           3.031
  23278811.381    -5819604.974 5  -4339248.760 1         7.750           0.406
  20550006.670   -12356098.553 7  -9452920.573 3        24.750           3.125
  23517411.568     4055501.509 5   3134686.514 1         8.000           0.375
  21251809.545    -9525878.848 6  -7250758.075 1        16.250           1.219
  21422320.225     -306746.476 6   -212423.644 2        17.250           1.813
  23419073.998    -4730430.051 4  -3378481.130 1         7.000           0.281
  19656896.373    -8547199.761 7  -6581733.912 2        24.750           2.344
 98  2 12  1 18 59.9980000  0  8 04 10 05 07 08 09 30 24
  20968795.154     1173507.592 7    931419.541 3        23.500           2.844
  23254724.756    -5946181.131 5  -4437879.374 1         7.500           0.406
  20532855.303   -12446226.009 7  -9523149.742 3        24.250           3.094
  23524147.803     4090911.287 5   3162278.567 1         7.500           0.375
  21243282.389    -9570688.350 6  -7285674.566 1        16.250           1.375
  21427399.443     -280058.714 6   -191627.997 2        17.000           1.688
  23394160.709    -4861338.682 4  -3480487.764 1         7.000           0.313
  19649184.576    -8587729.672 7  -6613315.629 2        25.000           2.313
 98  2 12  1 19 29.9980000  0  8 04 10 05 07 08 09 30 24
  20975934.107     1211036.109 7    960662.550 3        23.250           2.969
  23230645.928    -6072721.345 5  -4536481.970 1         8.000           0.438
  20515759.482   -12536063.036 7  -9593152.597 3        24.000           3.125
  23530888.139     4126322.529 4   3189871.768 1         7.250           0.469
  21234868.693    -9614893.057 6  -7320119.782 1        16.250           1.250
  21432557.896     -252959.793 6   -170511.962 2        17.250           1.813
  23369259.553    -4992201.823 5  -3582458.967 1         7.500           0.375
  19641570.311    -8627743.558 7  -6644495.255 2        25.000           2.406
 98  2 12  1 19 59.9980000  0  8 04 10 05 07 08 09 30 24
  20983149.943     1248943.450 7    990200.742 3        23.750           2.875
  23206575.404    -6199214.932 5  -4635048.242 1         7.750           0.375
  20498721.397   -12625596.788 7  -9662919.135 3        23.750           3.125
  23537625.139     4161744.317 4   3217473.181 1         7.250           0.375
  21226576.186    -9658483.858 6  -7354086.632 1        16.000           1.344
  21437795.287     -225435.679 6   -149064.604 2        17.250           1.750
  23344368.272    -5123001.075 5  -3684380.390 1         7.500           0.344
  19634052.834    -8667241.246 7  -6675272.642 2        25.250           2.438
 98  2 12  1 20 29.9980000  0  8 04 10 05 07 08 09 30 24
  20990434.982     1287223.867 7   1020029.646 3        23.750           2.813
  23182510.826    -6325667.973 4  -4733582.908 1         7.250           0.250
  20481744.404   -12714815.000 7  -9732439.797 3        24.250           3.156
  23544369.951     4197181.907 4   3245086.913 1         7.250           0.406
  21218397.443    -9701452.460 6  -7387568.652 1        16.000           1.281
  21443110.420     -197494.182 6   -127292.014 2        17.000           1.813
  23319491.154    -5253740.791 5  -3786255.413 1         8.000           0.250
  19626636.029    -8706222.779 7  -6705647.837 2        25.250           2.281
 98  2 12  1 20 59.9980000  0  8 04 10 05 07 08 09 30 24
  20997788.217     1325870.317 7   1050143.769 3        23.750           2.875
  23158454.154    -6452076.178 4  -4832082.655 1         7.250           0.438
  20464825.271   -12803727.367 7  -9801722.146 3        24.000           3.125
  23551117.373     4232639.367 5   3272716.114 1         7.500           0.406
  21210341.326    -9743797.144 6  -7420564.508 1        16.000           1.250
  21448502.936     -169165.188 6   -105217.482 2        16.750           1.875
  23294622.693    -5384406.743 5  -3888072.985 1         8.250           0.250
  19619315.568    -8744684.100 7  -6735617.672 2        25.500           2.438
 98  2 12  1 21 29.9980000  0  8 04 10 05 07 08 09 30 24
  21005213.732     1364892.081 7   1080550.353 3        23.750           2.781
  23134414.615    -6578419.001 4  -4930531.481 1         7.250           0.375
  20447967.162   -12892312.882 7  -9870749.800 3        23.750           3.125
  23557871.475     4268125.974 4   3300368.054 1         6.750           0.344
  21202402.584    -9785505.897 6  -7453064.822 1        16.000           1.313
  21453970.037     -140439.850 6    -82834.109 2        16.750           1.750
  23269774.670    -5514990.847 5  -3989826.759 1         8.750           0.313
  19612100.725    -8782609.430 7  -6765169.856 2        25.500           2.375
 98  2 12  1 21 59.9980000  0  8 04 10 05 07 08 09 30 24
  21012708.076     1404271.119 7   1111235.330 3        24.000           2.844
  23110382.912    -6704700.637 4  -5028932.637 1         7.250           0.406
  20431172.787   -12980571.106 7  -9939522.423 3        23.750           3.094
  23564630.646     4303646.591 4   3328046.468 1         6.500           0.375
  21194589.904    -9826578.623 6  -7485069.537 1        16.250           1.375
  21459509.146     -111322.843 6    -60145.538 2        16.750           1.750
  23244941.529    -5645502.262 5  -4091523.915 1         8.750           0.281
  19604983.592    -8820000.708 7  -6794305.894 2        25.500           2.469
 98  2 12  1 22 29.9980000  0  8 04 10 05 07 08 09 30 24
  21020267.217     1444003.914 7   1142195.961 3        23.750           2.813
  23086364.271    -6830921.443 5  -5127286.399 1         7.500           0.406
  20414442.592   -13068489.436 7 -10008030.192 3        24.000           3.031
  23571398.857     4339208.620 4   3355757.158 1         7.000           0.406
  21186890.209    -9867020.949 6  -7516583.032 1        15.750           1.313
  21465124.326      -81818.368 6    -37155.042 2        17.000           1.750
  23220118.404    -5775947.632 5  -4193169.566 1         8.750           0.406
  19597972.623    -8856845.547 7  -6823016.137 2        25.250           2.375
 98  2 12  1 22 59.9980000  0  8 04 10 05 07 08 09 30 24
  21027896.975     1484096.444 7   1173436.912 3        24.000           2.781
  23062357.568    -6957063.589 5  -5225578.898 1         7.500           0.438
  20397778.139   -13156058.839 7 -10076266.073 3        24.250           3.094
  23578170.834     4374819.064 4   3383505.577 1         6.500           0.344
  21179316.021    -9906825.508 6  -7547599.560 1        15.750           1.406
  21470817.897      -51903.290 6    -13844.598 2        16.750           1.781
  23195309.373    -5906318.132 5  -4294756.907 1         8.500           0.344
  19591065.951    -8893146.708 7  -6851302.729 2        25.500           2.375
 98  2 12  1 23 29.9980000  0  8 04 10 05 07 08 09 30 24
  21035596.146     1524551.495 7   1204960.347 3        23.500           2.938
  23038372.881    -7083121.502 5  -5323805.787 1         7.750           0.531
  20381185.396   -13243255.530 7 -10144211.527 3        24.000           3.094
  23584963.623     4410486.379 5   3411298.296 1         7.500           0.406
  21171867.092    -9945983.838 6  -7578112.537 1        15.750           1.313
  21476590.803      -21553.680 6      9804.441 2        16.750           1.719
  23170512.615    -6036627.641 5  -4396296.741 1         8.500           0.344
  19584258.943    -8928913.332 7  -6879172.801 2        25.500           2.375
 98  2 12  1 23 59.9980000  0  8 04 10 05 07 08 09 30 24
  21043357.959     1565341.660 7   1236744.911 3        23.750           2.844
  23014396.865    -7209092.887 5  -5421965.133 1         8.000           0.438
  20364661.912   -13330089.290 7 -10211874.180 3        24.250           3.125
  23591756.506     4446198.153 4   3439125.678 1         7.250           0.438
  21164535.725    -9984507.473 6  -7608130.943 1        15.750           1.313
  21482450.037        9222.127 6     33785.579 2        17.000           1.813
  23145725.896    -6166872.572 5  -4497786.226 1         8.250           0.344
  19577550.959    -8964160.956 7  -6906638.458 2        25.500           2.438
 98  2 12  1 24 29.9980000  0  8 04 10 05 07 08 09 30 24
  21051181.545     1606451.936 7   1268778.912 3        23.750           2.719
  22990445.537    -7334975.915 5  -5520055.768 1         8.000           0.469
  20348205.248   -13416568.081 7 -10279260.233 3        24.250           3.125
  23598556.678     4481944.963 5   3466980.354 1         7.500           0.344
  21157324.787   -10022407.310 6  -7637663.277 1        15.500           1.406
  21488384.131       40414.737 6     58091.501 2        16.750           1.781
  23120954.678    -6297045.038 5  -4599219.268 1         8.500           0.344
  19570941.772    -8998894.302 7  -6933703.378 2        25.500           2.344
 98  2 12  1 24 59.9980000  0  8 04 10 05 07 08 09 30 24
  21059065.139     1647881.530 7   1301061.732 3        23.500           2.656
  22966507.662    -7460762.565 5  -5618071.246 1         8.000           0.469
  20331813.678   -13502707.933 7 -10346382.178 3        24.250           3.094
  23605366.889     4517719.215 4   3494856.416 1         7.000           0.344
  21150229.287   -10059692.398 6  -7666716.589 1        15.500           1.313
  21494397.576       72011.734 6     82712.532 2        17.000           1.813
  23096201.209    -6427140.294 5  -4700592.112 1         8.750           0.375
  19564426.498    -9033131.897 7  -6960381.990 2        25.250           2.406
 98  2 12  1 25 29.9980000  0  8 04 10 05 07 08 09 30 24
  21067006.764     1689623.730 7   1333588.139 3        23.250           2.688
  22942590.107    -7586458.259 5  -5716015.835 1         8.000           0.438
  20315482.998   -13588520.734 7 -10413249.280 3        24.500           3.125
  23612174.021     4553500.998 4   3522738.322 1         7.000           0.375
  21143246.553   -10096382.480 6  -7695306.256 1        15.750           1.375
  21500481.896      103982.933 6    107625.147 2        16.500           1.781
  23071458.279    -6557161.227 5  -4801907.069 1         9.000           0.375
  19558007.670    -9066868.934 7  -6986670.571 2        25.000           2.344
 98  2 12  1 25 59.9980000  0  8 04 10 05 07 08 09 30 24
  21075012.897     1731690.064 7   1366367.119 3        23.250           2.719
  22918688.561    -7712060.858 5  -5813887.879 1         7.750           0.500
  20299214.818   -13674015.365 7 -10479868.449 3        25.000           3.281
  23618985.990     4589286.831 4   3550623.419 1         6.500           0.313
  21136377.537   -10132471.759 6  -7723427.768 1        15.750           1.313
  21506635.123      136327.739 6    132828.885 2        16.500           1.688
  23046733.318    -6687090.149 5  -4903150.322 1         9.000           0.375
  19551688.154    -9100080.267 7  -7012549.501 2        25.000           2.250
 98  2 12  1 26 29.9980000  0  8 04 10 05 07 08 09 30 24
  21083084.029     1774100.786 7   1399414.447 3        23.250           2.656
  22894803.068    -7837573.134 5  -5911689.525 1         7.750           0.469
  20283004.920   -13759197.962 7 -10546244.484 3        24.750           3.250
  23625796.982     4625076.807 4   3578511.711 1         6.750           0.438
  21129626.967   -10167944.010 6  -7751068.474 1        15.500           1.313
  21512860.873      169040.573 6    158319.398 2        16.500           1.688
  23022023.912    -6816936.840 5  -5004329.495 1         9.000           0.438
  19545466.412    -9132773.388 7  -7038024.639 2        25.250           2.313
 98  2 12  1 26 59.9980000  0  8 04 10 05 07 08 09 30 24
  21091220.225     1816860.582 7   1432733.781 3        23.000           2.594
  22870934.662    -7963000.658 5  -6009425.138 1         8.000           0.438
  20266853.154   -13844072.730 7 -10612380.643 3        25.000           3.125
  23632603.287     4660865.014 4   3606398.641 1         6.750           0.344
  21122995.920   -10202798.472 6  -7778227.787 1        15.500           1.469
  21519155.404      202107.366 6    184085.720 2        16.500           1.594
  22997327.467    -6946718.106 5  -5105457.682 1         9.000           0.406
  19539340.021    -9164957.959 7  -7063103.504 2        25.250           2.375
 98  2 12  1 27 29.9980000  0  8 04 10 05 07 08 09 30 24
  21099419.576     1859954.961 7   1466313.830 3        23.000           2.625
  22847079.857    -8088355.105 5  -6107103.766 1         8.500           0.469
  20250763.740   -13928627.939 7 -10678267.794 3        25.000           3.313
  23639418.615     4696656.546 4   3634288.162 1         7.250           0.250
  21116482.615   -10237025.188 6  -7804897.945 1        15.250           1.375
  21525512.615      235528.545 6    210128.185 2        16.750           1.531
  22972639.897    -7076445.828 5  -5206544.169 1         8.750           0.438
  19533313.076    -9196632.893 7  -7087785.246 2        25.250           2.281
 98  2 12  1 27 59.9970000  0  8 04 10 05 07 08 09 30 24
  21107683.884     1903373.579 7   1500146.529 3        23.250           2.594
  22823238.860    -8213646.806 5  -6204733.502 1         8.750           0.469
  20234735.884   -14012854.291 7 -10743898.699 3        25.000           3.188
  23646232.353     4732475.217 4   3662198.834 1         7.000           0.281
  21110087.634   -10270612.909 6  -7831070.190 1        15.750           1.406
  21531939.751      269308.456 6    236450.187 2        16.250           1.656
  22947966.087    -7206106.757 5  -5307578.572 1         9.250           0.406
  19527380.063    -9227817.674 7  -7112085.057 2        25.000           2.438
 98  2 12  1 28 29.9970000  0  8 04 10 05 07 08 09 30 24
  21116007.688     1947113.415 7   1534229.528 3        23.000           2.688
  22799408.798    -8338876.628 5  -6302315.030 1         9.250           0.406
  20218772.368   -14096739.882 7 -10809264.067 3        24.750           3.156
  23653057.564     4768341.561 4   3690146.622 1         7.250           0.313
  21103821.345   -10303567.461 6  -7856749.055 2        15.750           1.531
  21538437.751      303439.509 6    263045.807 2        16.000           1.594
  22923305.204    -7335696.276 5  -5408557.363 1         8.750           0.344
  19521536.548    -9258517.842 7  -7136007.243 2        25.000           2.344
 98  2 12  1 28 59.9970000  0  8 04 10 05 07 08 09 30 24
  21124386.587     1991156.834 7   1568549.086 3        22.500           2.813
  22775595.056    -8464027.098 5  -6399834.742 1         9.250           0.406
  20202879.853   -14180253.620 7 -10874339.691 3        25.000           3.156
  23659894.735     4804259.862 5   3718134.924 1         7.500           0.219
  21097666.126   -10335897.920 6  -7881941.621 1        16.000           1.375
  21545000.064      337921.763 6    289915.086 1        16.000           1.469
  22898662.563    -7465198.643 5  -5509468.238 1         8.500           0.344
  19515792.095    -9288712.042 7  -7159535.170 2        25.250           2.281
 98  2 12  1 29 29.9970000  0  8 04 10 05 07 08 09 30 24
  21132825.689     2035501.924 7   1603103.712 3        22.000           2.781
  22751794.603    -8589091.069 5  -6497287.043 1         9.250           0.500
  20187061.501   -14263385.121 7 -10939117.461 3        25.000           3.188
  23666734.907     4840223.930 4   3746158.881 1         7.250           0.219
  21091632.298   -10367599.004 6  -7906643.759 1        16.500           1.406
  21551627.915      372755.247 6    317058.058 2        15.750           1.500
  22874037.853    -7594605.164 5  -5610304.427 1         9.000           0.406
  19510142.899    -9318402.801 7  -7182670.808 2        25.250           2.375
 98  2 12  1 29 59.9970000  0  8 04 10 05 07 08 09 30 24
  21141325.220     2080165.459 7   1637906.474 3        21.750           2.750
  22728017.790    -8714044.261 5  -6594652.977 1         9.000           0.375
  20171315.142   -14346130.189 7 -11003594.119 3        24.750           3.219
  23673587.899     4876222.621 4   3774209.830 1         7.250           0.313
  21085722.837   -10398672.174 6  -7930856.618 1        16.500           1.406
  21558321.306      407935.468 6    344471.201 2        16.000           1.563
  22849432.001    -7723905.035 5  -5711057.524 1         9.000           0.438
  19504588.985    -9347581.022 7  -7205407.066 2        25.250           2.406
 98  2 12  1 30 29.9970000  0  8 04 10 05 07 08 09 30 24
  21149886.626     2125149.966 7   1672959.341 3        22.250           2.813
  22704267.712    -8838847.887 5  -6691902.449 1         9.250           0.406
  20155644.118   -14428487.250 7 -11067768.430 3        25.000           3.094
  23680445.720     4912233.107 4   3802269.967 1         7.250           0.281
  21079927.587   -10429124.912 6  -7954586.030 1        16.250           1.406
  21565080.063      443458.621 6    372151.573 2        16.000           1.563
  22824846.282    -7853113.551 5  -5811739.428 1         9.500           0.375
  19499134.837    -9376236.239 7  -7227735.786 2        25.500           2.344
 98  2 12  1 30 59.9970000  0  8 04 10 05 07 08 09 30 24
  21158511.540     2170469.669 7   1708273.394 3        22.250           2.781
  22680548.228    -8963482.627 5  -6789020.301 1         9.250           0.563
  20140045.501   -14510448.223 7 -11131634.102 3        24.750           3.094
  23687305.618     4948257.784 4                         7.000
  21074253.079   -10458946.199 6  -7977823.405 1        15.750           1.344
  21571908.337      479345.519 6                        16.250
  22800277.681    -7982221.029 5  -5912342.604 1         9.500           0.406
  19493781.556    -9404369.644 7  -7249657.899 2        25.500           2.406
 98  2 12  1 31 29.9970000  0  8 04 10 05 07 08 09 30 24
  21167199.165     2216143.237 7   1743863.194 3        21.750           2.813
  22656864.439    -9087958.286 5  -6886014.200 1         9.500           0.563
  20124519.696   -14592039.722 7 -11195211.875 3        24.500           3.156
  23694154.657     4984291.803 4   3858419.600 1         6.750           0.313
  21068697.064   -10488143.615 6  -8000574.642 1        15.750           1.469
  21578807.204      515587.002 6    428355.483 1        16.000           1.469
  22775728.353    -8111230.563 5  -6012869.460 1         9.750           0.500
  19488523.915    -9432000.657 7  -7271188.535 2        25.500           2.406
 98  2 12  1 31 59.9970000  0  7 04 10 05 08 09 30 24
  21175958.001     2262159.688 7   1779720.184 3        22.250           2.750
  22633207.610    -9212273.499 5  -6982883.124 1         9.500           0.563
  20109061.915   -14673269.823 7 -11258508.039 3        24.250           3.125
  21063254.642   -10516739.575 6  -8022857.208 1        16.000           1.469
  21585770.118      552175.186 6    456865.748 1        16.000           1.406
  22751198.509    -8240133.556 5  -6113313.292 1        10.000           0.375
  19483362.079    -9459123.575 7  -7292323.254 2        25.500           2.375
 98  2 12  1 32 29.9970000  0  7 04 10 05 08 09 30 24
  21184774.189     2308490.476 7   1815822.113 3        22.000           2.750
  22609573.806    -9336466.183 5  -7079656.641 1         9.250           0.281
  20093672.688   -14754142.048 7 -11321525.337 3        24.000           3.094
  21057926.743   -10544750.086 6  -8044683.581 1        16.000           1.344
  21592797.306      589101.269 6    485639.317 1        15.750           1.438
  22726688.681    -8368931.773 5  -6213675.493 1        10.000           0.469
  19478296.399    -9485747.542 7  -7313069.178 2        25.500           2.406
 98  2 12  1 32 59.9970000  0  7 04 10 05 08 09 30 24
  21193650.899     2355142.943 7   1852174.697 3        22.000           2.750
  22585961.196    -9460545.051 5                         9.750
  20078355.954   -14834634.097 7 -11384246.395 3        24.500           3.125
  21052710.790   -10572154.977 6  -8066038.043 1        16.500           1.469
  21599891.673      626382.332 6    514689.487 1        15.750           1.313
  22702201.962    -8497608.128 5  -6313942.745 1         9.750           0.500
  19473328.110    -9511855.692 7  -7333413.167 2        25.500           2.313
 98  2 12  1 33 29.9970000  0  7 04 10 05 08 09 30 24
  21202587.446     2402095.974 7   1888761.482 3        22.000           2.813
  22562371.759    -9584517.398 5        -0.40611         9.500           0.594
  20063110.618   -14914746.328 7 -11446671.491 3        24.500           3.188
  21047608.618   -10598953.491 6  -8086920.006 2        16.000           1.500
  21607050.907      663998.290 6    544000.622 1        15.500           1.375
  22677734.868    -8626186.440 5  -6414133.585 1         9.250           0.563
  19468459.540    -9537444.908 7  -7353352.791 2        25.250           2.313
 98  2 12  1 33 59.9970000  0  7 04 10 05 08 09 30 24
  21211570.899     2449314.053 7   1925554.800 3        22.000           2.656
  22538797.728    -9708381.149 5    -96517.551 1        10.000           0.625
  20047941.962   -14994463.497 7 -11508788.746 3        24.500           3.063
  21042626.837   -10625131.306 6  -8107318.303 2        16.250           1.531
  21614275.345      701966.961 6    573586.587 1        15.500           1.313
  22653284.603    -8754662.449 5  -6514244.693 1         9.250           0.531
  19463690.251    -9562510.290 7  -7372884.237 2        25.250           2.375
 98  2 12  1 34 29.9970000  0  7 04 10 05 08 09 30 24
  21220606.798     2496795.227 7   1962553.121 3        22.250           2.656
  22515250.564    -9832130.218 5   -192945.343 1         9.750           0.656
  20032845.876   -15073790.060 7 -11570601.636 3        24.000           3.125
  21037770.454   -10650668.341 6  -8127217.292 1        16.500           1.406
  21621566.907      740284.660 6    603444.529 1        15.500           1.313
  22628856.704    -8883051.227 5  -6614287.843 1         9.250           0.531
  19459016.774    -9587064.184 7  -7392017.121 2        25.500           2.375
 98  2 12  1 34 59.9970000  0  7 04 10 05 08 09 30 24
  21229694.087     2544545.607 7   1999761.220 3        22.250           2.688
  22491731.001    -9955727.016 5   -289254.528 1         9.750           0.688
  20017822.415   -15152739.943 7 -11632121.007 3        24.000           3.063
  21033032.407   -10675551.754 6  -8146606.969 1        16.500           1.375
  21628923.524      778943.687 6    633568.441 1        15.500           1.375
  22604440.782    -9011346.034 5  -6714257.768 1         9.500           0.500
  19454440.298    -9611118.355 7  -7410760.607 2        25.250           2.438
 98  2 12  1 35 29.9970000  0  7 04 10 05 08 09 30 24
  21238829.298     2592549.749 7   2037167.055 3        22.250           2.719
  22468238.540   -10079178.013 5   -385450.016 1        10.750           0.594
  20002865.720   -15231337.390 7 -11693365.756 3        24.000           3.094
  21028419.618   -10699803.170 6  -8165504.181 2        16.250           1.563
  21636338.134      817916.098 6    663936.545 1        15.750           1.313
  22580048.985    -9139529.612 5  -6814141.025 1         9.750           0.594
  19449952.931    -9634694.942 7  -7429131.953 3        25.250           2.500
 98  2 12  1 35 59.9970000  0  7 04 10 05 08 09 30 24
  21248016.939     2640824.567 7   2074783.800 3        22.250           2.719
  22444777.142   -10202468.348 5   -481520.132 1        10.500           0.594
  19987974.978   -15309588.875 7 -11754340.924 3        24.000           3.094
  21023921.274   -10723427.899 6  -8183913.061 1        16.250           1.438
  21643813.884      857203.264 6    694549.911 1        15.750           1.281
  22555683.345    -9267572.304 5  -6913914.508 1        10.000           0.406
  19445557.462    -9657791.212 7  -7447129.027 2        25.250           2.438
 98  2 12  1 36 29.9970000  0  7 04 10 05 08 09 30 24
  21257260.532     2689401.411 7   2112635.896 3        22.250           2.563
  22421350.735   -10325575.911 5   -577448.043 1        10.250           0.625
  19973151.048   -15387490.531 7 -11815043.492 3        24.000           3.094
  21019546.407   -10746424.747 6  -8201832.682 1        16.000           1.469
  21651345.915      896790.155 6    725396.834 1        15.750           1.219
  22531346.384    -9395469.422 5  -7013574.556 1        10.500           0.531
  19441256.681    -9680398.408 7  -7464744.998 2        25.000           2.375
 98  2 12  1 36 59.9970000  0  7 04 10 05 08 09 30 24
  21266557.774     2738266.597 7   2150712.676 3        22.250           2.531
  22397957.899   -10448504.843 5   -673236.722 1        10.250           0.656
  19958393.407   -15465043.740 7 -11875474.551 3        24.250           3.031
  21015286.673   -10768810.065 6  -8219275.786 1        16.000           1.469
  21658938.165      936682.155 6    756481.503 1        15.250           1.125
  22507036.423    -9523217.626 5  -7113118.558 1        11.250           0.563
  19437048.095    -9702515.386 7  -7481978.987 2        25.000           2.375
 98  2 12  1 37 29.9970000  0  7 04 10 05 08 09 30 24
  21275909.392     2787412.824 7   2189008.449 2        22.000           2.438
  22374596.907   -10571276.677 5   -768903.006 1        10.250           0.750
  19943705.306   -15542226.141 7 -11935616.663 3        24.250           3.125
  21011143.720   -10790591.798 6                        16.000
  21666590.970      976891.545 6    787813.491 1        15.250           1.344
  22482754.462    -9650823.707 5  -7212551.829 1        11.500           0.594
  19432933.782    -9724130.507 7                        25.000
 98  2 12  1 37 59.9970000  0  7 04 10 05 08 09 30 24
  21285316.360     2836840.568 7   2227523.591 2        22.000           2.344
  22351265.767   -10693878.993 5   -864437.196 1        10.250           0.750
  19929092.313   -15619017.488 7 -11995454.065 3        24.250           3.094
  21007114.954   -10811763.489 6                        16.000
  21674309.032     1017447.055 6    819415.169 1        15.500           1.281
  22458493.735    -9778307.491 5  -7311889.796 1        11.000           0.531
  19428917.095    -9745236.890 7                        24.750
 98  2 12  1 38 29.9970000  0  7 04 10 05 08 09 30 24
  21294773.454     2886534.400 7   2266246.073 2        22.000           2.313
  22327966.493   -10816318.180 5   -959844.292 1        10.500           0.750
  19914558.142   -15695392.971 7 -12054967.412 3        24.500           3.125
  21003203.079   -10832319.451 6                        16.000
  21682091.485     1058360.064 6    851295.438 1        15.250           1.250
  22434257.407    -9905666.753 5  -7411130.735 1        10.750           0.563
  19424996.071    -9765837.697 7                        24.750
 98  2 12  1 38 59.9970000  0  7 04 10 05 08 09 30 24
  21304275.923     2936474.944 7   2305160.796 2        22.000           2.281
  22304694.384   -10938614.198 5  -1055139.782 1        10.250           0.594
  19900108.329   -15771330.093 7 -12114139.184 3        24.500           3.125
  20999406.251   -10852270.993 6  -8284309.780 2        15.500           1.500
  21689947.728     1099632.456 6    883455.735 1        15.250           1.219
  22410046.368   -10032887.263 5  -7510263.552 1        10.750           0.500
  19421172.274    -9785933.009 7  -7546979.651 2        25.000           2.469
 98  2 12  1 39 29.9970000  0  8 04 10 05 06 08 09 30 24
  21313827.892     2986670.654 7   2344274.356 2        22.250           2.250
  22281447.759   -11060767.718 5  -1150324.224 1        10.250           0.906
  19885744.806   -15846811.460 7 -12172955.816 3        24.500           3.313
  24383084.009          -0.34312                         4.500
  20995722.470   -10871618.935 6  -8299386.099 1        15.500           1.344
  21697869.345     1141259.673 6    915892.520 1        15.500           1.250
  22385865.649   -10159962.351 5  -7609283.056 1        11.000           0.500
  19417444.157    -9805530.989 7  -7562250.779 2        24.750           2.469
 98  2 12  1 39 59.9970000  0  8 04 10 05 06 08 09 30 24
  21323428.360     3037121.409 7   2383586.645 2        21.750           2.156
  22258232.907   -11182763.564 5  -1245385.838 1        11.000           0.875
  19871464.845   -15921852.823 7 -12231429.588 3        24.500           3.219
  24064139.782     -100630.199 2                         4.250
  20992152.743   -10890371.720 6  -8313998.667 2        15.750           1.531
  21705852.907     1183212.944 6    948583.386 1        15.250           1.250
  22361712.665   -10286892.180 5  -7708189.370 1        10.750           0.594
  19413807.821    -9824642.921 7  -7577143.170 3        24.500           2.500
 98  2 12  1 40 29.9970000  0  8 04 10 05 06 08 09 30 24
  21333073.899     3087811.196 7   2423085.196 2        21.500           2.250
  22235045.564   -11304616.776 5  -1340336.306 1        11.000           0.844
  19857264.860   -15996473.370 7 -12289575.463 3        25.000           3.188
  24044996.470     -201234.285 2                         4.250
  20988699.314   -10908540.722 6  -8328156.334 1        15.750           1.406
  21713889.564     1225441.475 6    981488.730 1        15.500           1.406
  22337584.103   -10413680.015 5  -7806985.037 1        11.000           0.594
  19410259.040    -9843283.078 7  -7591667.945 3        24.750           2.500
 98  2 12  1 40 59.9970000  0  8 04 10 05 06 08 09 30 24
  21342768.524     3138756.081 7   2462782.522 2        21.000           2.063
  22211889.603   -11426305.078 5  -1435158.276 1        11.000           0.875
  19843140.439   -16070695.746 7 -12347411.058 3        25.000           3.250
  24025853.899     -301813.608 2                         4.500
  20985349.259   -10926127.665 6  -8341860.459 1        16.000           1.375
  21721974.743     1267943.636 6   1014607.288 1        15.250           1.313
  22313483.970   -10540323.626 5  -7905668.332 1        11.500           0.625
  19406802.978    -9861450.363 7  -7605824.253 2        24.250           2.406
 98  2 12  1 41 29.9970000  0  8 04 10 05 06 08 09 30 24
  21352513.556     3189968.231 7   2502688.114 2        21.000           2.031
  22188771.064   -11547800.738 5  -1529830.128 1        11.250           0.813
  19829085.954   -16144556.511 7 -12404964.892 3        25.000           3.250
  24006720.876     -402378.246 2        -0.03211         4.750           0.188
  20982115.821   -10943123.133 6  -8355103.687 2        15.500           1.531
  21730114.962     1310712.298 6   1047933.514 1        15.250           1.344
  22289410.243   -10666836.909 5  -8004250.069 1        11.750           0.625
  19403432.938    -9879158.471 7  -7619622.756 3        24.500           2.563
 98  2 12  1 41 59.9970000  0  8 04 10 05 06 08 09 30 24
  21362311.313     3241454.143 7   2542807.024 2        20.750           2.094
  22165689.564   -11669089.139 5  -1624340.476 1        11.250           0.813
  19815097.626   -16218062.853 7 -12462242.548 3        25.000           3.250
  23987585.181     -502933.596 2    -78354.797 1         4.500           0.219
  20978995.962   -10959518.735 6  -8367879.488 1        15.750           1.438
  21738302.673     1353737.850 6   1081459.912 1        15.000           1.281
  22265361.439   -10793220.554 6  -8102730.801 1        12.000           0.656
  19400151.095    -9896402.289 7  -7633059.479 2        24.250           2.406
 98  2 12  1 42 29.9970000  0  8 04 10 05 06 08 09 30 24
  21372163.790     3293232.855 7   2583154.087 2        20.250           1.969
  22142652.798   -11790150.953 5  -1718674.259 1        11.250           0.781
  19801180.314   -16291199.247 7 -12519231.927 3        25.250           3.250
  23968456.548     -603465.517 2   -156691.318 1         4.750           0.281
  20975996.970   -10975288.676 6  -8380167.763 1        15.500           1.438
  21746542.696     1397047.896 6   1115207.987 1        15.000           1.313
  22241341.540   -10919456.163 6  -8201096.161 1        12.000           0.813
  19396958.665    -9913178.154 7  -7646131.564 2        24.500           2.375
 98  2 12  1 42 59.9970000  0  8 04 10 05 06 08 09 30 24
  21382073.360     3345305.377 7   2623730.092 2        20.250           2.031
  22119658.243   -11910983.267 5  -1812829.204 1        11.500           0.750
  19787335.134   -16363956.264 7 -12575925.692 3        25.000           3.313
  23949332.681     -703969.202 2   -235005.836 1         4.750           0.219
  20973113.892   -10990434.818 6  -8391969.965 1        15.500           1.406
  21754841.993     1440657.633 6   1149189.594 1        14.750           1.281
  22217342.743   -11045558.581 6  -8299357.749 1        12.500           0.688
  19393854.329    -9929489.206 7  -7658841.459 2        24.250           2.406
 98  2 12  1 43 29.9970000  0  8 04 10 05 06 08 09 30 24
  21392034.649     3397652.009 7   2664519.686 2        20.000           2.031
  22096705.556   -12031596.781 5  -1906813.656 1        11.000           0.875
  19773569.407   -16436296.698 7 -12632294.844 3        25.250           3.156
  23930208.915     -804431.101 2   -313287.816 1         4.250           0.125
  20970345.962   -11004967.943 6  -8403294.488 1        15.750           1.469
  21763195.095     1484553.013 6   1183393.773 1        14.500           1.313
  22193370.384   -11171536.489 6  -8397522.315 1        12.500           0.781
  19390840.321    -9945333.385 7  -7671187.554 2        24.250           2.375
 98  2 12  1 43 59.9970000  0  8 04 10 05 06 08 09 30 24
  21402041.064     3450244.086 6   2705500.535 2        19.750           2.094
  22073790.962   -12152006.792 5  -2000639.585 1        11.500           0.844
  19759888.923   -16508191.623 7 -12688316.850 3        25.750           3.250
  23911108.415     -904855.872 2   -391540.785 1         4.750           0.250
  20967692.274   -11018910.298 6  -8414158.670 1        15.750           1.406
  21771600.306     1528717.871 6   1217807.946 1        14.500           1.250
  22169422.259   -11297388.297 6  -8495588.619 1        12.250           0.688
  19387914.431    -9960711.815 7  -7683170.730 2        24.750           2.469
 98  2 12  1 44 29.9970000  0  8 04 10 05 06 08 09 30 24
  21412096.884     3503071.320 6   2746664.624 2        19.500           2.094
  22050918.056   -12272213.879 5  -2094307.413 1        11.750           0.938
  19746296.860   -16579617.686 7 -12743973.508 3        25.250           3.281
  23891999.431    -1005235.079 2   -469758.285 1         4.750           0.188
  20965151.313   -11032263.477 6  -8424563.747 1        15.750           1.438
  21780056.509     1573164.482 6   1252441.659 1        14.250           1.313
  22145499.399   -11423093.353 5  -8593540.567 1        11.750           0.688
  19385080.423    -9975603.045 7  -7694774.273 2        24.250           2.406
 98  2 12  1 44 59.9970000  0  8 04 10 05 06 08 09 30 24
  21422187.970     3556118.529 6   2788000.124 2        19.750           2.063
  22028078.212   -12392227.494 5  -2187824.419 1        11.250           0.875
  19732797.196   -16650556.906 7 -12799250.808 3        25.500           3.281
  23872905.993    -1105570.698 2   -547941.842 1         4.750           0.188
  20962718.946   -11045047.028 6  -8434524.971 1        15.500           1.375
  21788569.829     1617893.226 6   1287295.208 1        14.250           1.313
  22121612.079   -11548633.316 6  -8691363.866 1        12.250           0.750
  19382342.501    -9989993.296 7  -7705987.441 3        24.500           2.500
 98  2 12  1 45 29.9970000  0  8 04 10 05 06 08 09 30 24
  21432325.032     3609375.667 7   2829499.198 2        20.000           2.156
  22005280.603   -12512046.159 6  -2281189.529 1        12.000           0.906
  19719387.110   -16721025.952 7 -12854161.741 3        25.750           3.188
  23853824.423    -1205877.807 2   -626103.149 1         4.500           0.031
  20960394.509   -11057266.823 6  -8444046.894 1        15.750           1.281
  21797130.509     1662893.962 6   1322360.711 1        14.000           1.313
  22097758.603   -11673980.704 6  -8789037.114 1        12.500           0.688
  19379698.712   -10003885.542 7  -7716812.559 2        24.000           2.438
 98  2 12  1 45 59.9970000  0  8 04 10 05 06 08 09 30 24
  21442500.993     3662853.562 7   2871170.292 2        20.250           2.219
  21982516.173   -12631670.867 6  -2374403.499 1        12.250           0.875
  19706062.563   -16791049.888 7 -12908725.839 3        25.750           3.281
  23834736.790    -1306164.324 2   -704248.423 1         4.750           0.031
  20958182.618   -11068897.578 6  -8453109.829 1        15.500           1.438
  21805748.517     1708171.238 6   1357641.692 1        14.000           1.219
  22073946.235   -11799114.001 6  -8886543.551 1        12.750           0.750
  19377147.720   -10017281.048 7  -7727250.602 2        24.250           2.375
 98  2 12  1 46 29.9970000  0  8 04 10 05 06 08 09 30 24
  21452715.673     3716538.011 7   2913002.338 2        20.500           2.125
  21959783.274   -12751114.966 6  -2467476.783 1        12.000           0.844
  19692813.493   -16860670.211 7 -12962975.426 3        25.750           3.250
  23815652.110    -1406442.591 2   -782387.219 1         4.500           0.188
  20956081.056   -11079945.574 6  -8461718.664 1        15.500           1.375
  21814415.087     1753716.868 6   1393131.785 1        14.000           1.156
  22050175.821   -11924045.346 6  -8983892.610 1        13.250           0.688
  19374689.540   -10030201.935 7  -7737318.819 2        24.250           2.406
 98  2 12  1 46 59.9970000  0  8 04 10 05 06 08 09 30 24
  21462972.485     3770429.244 7   2954995.513 2        20.500           2.219
  21937092.360   -12870369.242 6  -2560402.114 1        12.000           0.906
  19679639.751   -16929905.230 7 -13016924.778 3        25.500           3.344
  23796572.048    -1506722.360 2   -860527.262 1         4.500           0.188
  20954088.290   -11090406.371 6  -8469869.944 1        15.250           1.406
  21823132.329     1799519.523 6   1428822.150 1        13.500           1.219
  22026432.626   -12048803.105 6  -9081106.410 1        13.250           0.750
  19372318.728   -10042669.838 7  -7747034.058 2        23.750           2.438
 98  2 12  1 47 29.9970000  0  8 04 10 05 06 08 09 30 24
  21473268.978     3824535.082 7   2997155.917 2        20.500           2.188
  21914438.423   -12989412.061 6  -2653162.683 1        12.000           0.938
  19666536.314   -16998760.794 7 -13070578.459 3        25.750           3.250
  23777489.728    -1606996.778 2   -938663.105 1         4.500           0.156
  20952212.868   -11100258.017 6  -8477546.556 1        15.500           1.375
  21831891.868     1845570.740 6   1464706.206 1        13.500           1.188
  22002721.103   -12173412.339 6  -9178204.473 1        13.250           0.688
  19370030.329   -10054694.735 7  -7756404.083 2        24.000           2.469
 98  2 12  1 47 59.9970000  0  8 04 10 05 06 08 09 30 24
  21483605.751     3878860.548 7   3039487.458 2        20.250           2.063
  21891830.196   -13108226.684 5  -2745745.438 1        11.750           1.000
  19653506.399   -17067229.575 7 -13123930.757 3        25.750           3.219
  23758403.626    -1707257.900 2  -1016788.603 1         4.750           0.094
  20950456.860   -11109497.502 6  -8484746.166 1        15.500           1.438
  21840705.978     1891870.480 6   1500783.918 1        13.500           1.188
  21979032.829   -12297885.744 6  -9275196.702 1        13.250           0.719
  19367823.899   -10066282.625 7  -7765433.601 3        23.750           2.500
 98  2 12  1 48 29.9970000  0  8 04 10 05 06 08 09 30 24
  21493985.704     3933407.689 7   3081991.730 2        20.000           2.125
  21869267.876   -13226793.239 6  -2838134.904 1        12.250           0.938
  19640555.939   -17135289.081 7 -13176964.142 3        25.500           3.281
  23739333.806    -1807503.699 2  -1094902.121 1         4.750           0.063
  20948812.001   -11118139.104 6  -8491479.880 1        15.250           1.375
  21849564.509     1938419.197 6   1537055.634 1        13.500           1.188
  21955372.181   -12422224.333 6  -9372083.877 1        13.750           0.688
  19365701.767   -10077427.929 7  -7774118.234 2        24.000           2.375
 98  2 12  1 48 59.9970000  0  8 04 10 05 06 08 09 30 24
  21504407.790     3988187.580 7   3124677.365 2        20.000           2.063
  21846753.095   -13345097.545 6  -2930320.013 1        12.500           0.969
  19627686.431   -17202917.526 7 -13229661.607 3        26.000           3.313
  23720263.423    -1907725.485 2  -1172996.942 1         4.750           0.219
  20947280.657   -11126178.700 6  -8497744.504 1        15.000           1.375
  21858469.892     1985218.072 6   1573522.273 1        13.250           1.156
  21931739.204   -12546417.412 6  -9468857.660 1        14.000           0.781
  19363669.376   -10088123.481 7  -7782452.409 3        24.000           2.500
 98  2 12  1 49 29.9970000  0  8 04 10 05 06 08 09 30 24
  21514878.110     4043196.368 7   3167541.360 2        20.000           2.031
  21824292.860   -13463130.139 6  -3022293.401 1        12.250           0.906
  19614900.454   -17270104.955 7 -13282015.422 3        25.250           3.281
  23701197.720    -2007905.310 2  -1251059.041 1         4.750           0.188
  20945862.267   -11133629.215 6  -8503550.098 1        14.750           1.469
  21867423.290     2032268.546 6   1610184.967 1        13.250           1.188
  21908140.548   -12670430.349 6  -9565491.082 1        14.250           0.844
  19361718.704   -10098372.435 7  -7790438.582 3        24.000           2.531
 98  2 12  1 49 59.9970000  0  8 04 10 05 06 08 09 30 24
  21525386.040     4098417.625 6   3210570.926 2        19.750           2.156
  21801881.501   -13580905.610 6  -3114066.432 1        12.500           1.000
  19602199.235   -17336851.075 7 -13334025.364 3        25.500           3.313
  23682140.407    -2108051.920 3  -1329095.238 1         5.500           0.188
  20944552.462   -11140516.270 6  -8508916.642 1        15.500           1.375
  21876419.868     2079555.371 6   1647031.826 1        13.250           1.156
  21884580.649   -12794238.517 6  -9661964.935 1        14.000           0.813
  19359853.103   -10108171.236 7  -7798073.993 3        24.000           2.625
 98  2 12  1 50 29.9970000  0  8 04 10 05 06 08 09 30 24
  21535933.118     4153838.647 6   3253756.144 2        19.500           1.969
  21779514.720   -13698438.836 6  -3205650.711 1        12.750           1.000
  19589586.579   -17403130.261 7 -13385671.470 3        25.750           3.188
  23663092.540    -2208160.599 3  -1407101.921 1         5.500           0.219
  20943349.563   -11146846.292 6  -8513849.140 1        15.250           1.313
  21885464.235     2127086.122 6   1684068.770 1        13.500           1.219
  21861061.978   -12917833.244 6  -9758272.477 1        13.750           0.750
  19358074.774   -10117516.151 7  -7805355.731 3        24.000           2.625
 98  2 12  1 50 59.9970000  0  8 04 10 05 06 08 09 30 24
  21546516.048     4209450.105 6   3297089.750 2        19.250           2.063
  21757196.134   -13815723.040 6  -3297040.946 1        12.750           1.031
  19577062.735   -17468942.136 7 -13436953.439 3        25.500           3.281
  23644050.298    -2308226.633 3  -1485075.385 1         5.500           0.219
  20942251.735   -11152613.909 6  -8518343.397 1        15.250           1.313
  21894555.962     2174861.431 6   1721296.278 1        13.250           1.125
  21837582.087   -13041214.375 6  -9854413.581 1        13.750           0.875
  19356380.392   -10126415.276 7  -7812290.099 3        23.750           2.625
 98  2 12  1 51 29.9970000  0  8 04 10 05 06 08 09 30 24
  21557132.071     4265244.486 6   3340565.906 2        19.750           1.938
  21734925.751   -13932762.901 6  -3388240.771 1        13.000           1.031
  19564629.103   -17534285.678 7 -13487870.470 3        25.500           3.156
  23625016.978    -2408254.226 3  -1563018.878 1         5.750           0.281
  20941258.243   -11157830.392 6  -8522408.196 1        15.250           1.375
  21903692.954     2222873.896 6   1758708.576 1        13.250           1.094
  21814146.439   -13164374.880 6  -9950382.764 1        14.250           0.844
  19354773.267   -10134867.429 7  -7818876.173 3        23.500           2.625
 98  2 12  1 51 59.9970000  0  8 04 10 05 06 08 09 30 24
  21567784.923     4321221.488 7   3384184.356 2        20.000           1.875
  21712695.478   -14049569.454 6  -3479258.810 1        13.000           1.125
  19552282.267   -17599165.819 7 -13538426.409 3        26.000           3.156
  23605983.290    -2508261.311 3  -1640946.345 1         6.000           0.156
  20940371.282   -11162488.929 6  -8526038.235 1        15.250           1.313
  21912874.376     2271118.208 6   1796301.537 1        13.000           1.063
  21790747.493   -13287330.869 6 -10046192.580 1        14.250           0.875
  19353249.899   -10142871.033 7  -7825112.729 3        23.750           2.625
 98  2 12  1 52 29.9970000  0  8 04 10 05 06 08 09 30 24
  21578474.642     4377396.541 6   3427957.145 2        19.750           1.844
  21690514.939   -14166133.485 6  -3570087.860 1        13.000           1.063
  19540025.274   -17663583.555 7 -13588622.029 3        25.500           3.063
  23586958.634    -2608235.225 3  -1718848.053 1         5.750           0.250
  20939595.204   -11166575.293 6  -8529222.409 1        15.000           1.375
  21922102.220     2319615.599 6   1834091.699 1        13.500           0.969
  21767383.126   -13410100.640 6 -10141857.306 1        14.000           0.844
  19351808.282   -10150438.981 7  -7831009.812 3        23.750           2.625
 98  2 12  1 52 59.9960000  0  8 04 10 05 06 08 09 30 24
  21589201.965     4433774.407 6   3471887.967 2        19.250           1.781
  21668383.559   -14282436.148 6  -3660713.247 1        13.250           1.031
  19527848.793   -17727568.192 7 -13638480.170 3        25.250           3.125
  23567939.832    -2708177.730 3  -1796725.238 1         5.500           0.219
  20938926.793   -11170082.209 6  -8531955.074 1        15.250           1.250
  21931375.113     2368345.524 6   1872063.061 1        13.500           1.094
  21744058.910   -13532682.985 6 -10237375.976 1        14.250           0.906
  19350451.676   -10157571.520 7  -7836567.620 3        23.750           2.719
 98  2 12  1 53 29.9960000  0  8 04 10 05 06 08 09 30 24
  21599972.285     4490366.387 6   3515985.627 2        19.250           1.719
  21646299.012   -14398496.249 6  -3751149.631 1        13.250           1.156
  19515750.426   -17791138.628 7 -13688015.561 3        25.500           3.031
  23548923.106    -2808113.403 3  -1874597.059 1         5.750           0.188
  20938367.809   -11173018.983 6  -8534243.480 1        15.250           1.281
  21940691.488     2417301.928 6   1910210.898 1        13.750           1.000
  21720766.699   -13655082.203 6 -10332751.955 1        14.250           0.875
  19349177.270   -10164273.099 7  -7841789.614 3        24.000           2.750
 98  2 12  1 53 59.9960000  0  8 04 10 05 06 08 09 30 24
  21610782.027     4547167.309 6   3560246.093 2        19.250           1.656
  21624261.246   -14514304.937 6  -3841390.124 1        13.500           1.094
  19503734.004   -17854290.037 7 -13737224.439 3        25.500           2.938
  23529905.902    -2908036.545 3  -1952459.187 1         5.250           0.250
  20937921.816   -11175377.341 6  -8536081.167 1        15.500           1.313
  21950051.184     2466490.313 6   1948539.497 1        13.750           1.125
  21697508.316   -13777305.650 6 -10427990.967 1        14.750           0.969
  19347983.113   -10170544.025 7  -7846676.035 3        23.750           2.688
 98  2 12  1 54 29.9960000  0  8 04 10 05 06 08 09 30 24
  21621627.481     4604170.739 6   3604664.365 2        18.750           1.656
  21602271.801   -14629857.220 6  -3931430.810 1        14.000           1.188
  19491798.012   -17917018.498 7 -13786103.754 3        25.500           3.063
  23510899.426    -3007939.780 3  -2030305.777 1         5.250           0.094
  20937577.957   -11177166.757 6  -8537475.532 1        15.250           1.313
  21959454.316     2515901.396 6   1987041.639 1        13.750           1.000
  21674285.098   -13899337.172 6 -10523080.433 1        14.250           0.938
  19346873.918   -10176375.728 7  -7851220.203 3        23.500           2.781
 98  2 12  1 54 59.9960000  0  8 04 10 05 06 08 09 30 24
  21632511.879     4661366.694 6   3649232.654 2        18.500           1.656
  21580334.121   -14745143.383 6  -4021264.129 1        13.750           1.156
  19479942.027   -17979321.329 7 -13834651.392 3        25.500           2.969
  23491887.621    -3107838.998 3  -2108149.265 1         5.000           0.125
  20937344.691   -11178392.869 6  -8538430.948 1        15.500           1.344
  21968893.621     2565507.802 6   2025695.978 1        13.750           0.906
  21651106.699   -14021148.560 6 -10617998.357 1        14.500           1.031
  19345852.301   -10181748.836 7  -7855407.028 3        23.750           2.781
 98  2 12  1 55 29.9960000  0  8 04 10 05 06 08 09 30 24
  21643433.551     4718765.591 6   3693959.079 2        17.750           1.625
  21558447.895   -14860157.640 6  -4110885.582 1        13.750           1.188
  19468173.270   -18041167.453 7 -13882843.165 3        25.500           2.906
  23472878.535    -3207716.140 3  -2185975.522 1         5.000           0.125
  20937219.270   -11179059.259 6  -8538950.223 1        15.750           1.250
  21978375.848     2615332.747 6   2064520.591 1        13.750           1.031
  21627972.590   -14142724.422 6 -10712732.753 1        15.000           0.906
  19344917.574   -10186655.021 7  -7859230.015 3        23.750           2.875
 98  2 12  1 55 59.9960000  0  8 04 10 05 06 08 09 30 24
  21654390.277     4776345.379 6   3738826.458 2        17.500           1.500
  21536613.363   -14974899.511 6  -4200294.780 1        13.500           1.344
  19456491.949   -18102548.689 7 -13930672.688 3        25.500           2.969
  23453883.723    -3307558.975 3  -2263775.079 1         5.000           0.250
  20937199.348   -11179172.252 6                        15.250
  21987897.223     2665365.628 6   2103507.246 1        13.500           1.000
  21604878.184   -14264082.189 6 -10807297.211 1        15.500           1.125
  19344072.371   -10191095.539 7  -7862690.144 3        23.750           2.844
 98  2 12  1 56 29.9960000  0  8 04 10 05 06 08 09 30 24
  21665382.121     4834110.180 6   3783838.003 2        17.000           1.563
  21514832.137   -15089363.223 6  -4289487.236 1        13.750           1.281
  19444900.113   -18163465.335 7 -13978140.186 3        25.500           2.938
  23434890.231    -3407371.452 3  -2341550.973 1         5.000           0.156
  20937280.582   -11178734.919 6                        15.000
  21997452.215     2715592.683 6   2142645.197 1        13.750           0.938
  21581825.441   -14385221.965 6 -10901691.816 1        15.250           1.156
  19343315.090   -10195076.396 7  -7865792.098 3        23.500           2.906
 98  2 12  1 56 59.9960000  0  8 04 10 05 06 08 09 30 24
  21676412.449     4892066.640 6   3828998.898 2        17.250           1.531
  21493105.035   -15203531.352 6  -4378449.375 1        14.000           1.313
  19433400.309   -18223900.690 7 -14025232.663 3        25.750           2.969
  23415901.410    -3507149.406 3  -2419299.990 1         5.000           0.125
  20937469.590   -11177740.229 6  -8537922.441 1        15.000           1.188
  22007056.480     2766041.570 6   2181956.007 1        14.000           0.969
  21558814.926   -14506148.490 6 -10995920.244 1        15.250           1.094
  19342642.707   -10198603.603 7  -7868540.557 3        24.000           2.969
 98  2 12  1 57 29.9960000  0  8 04 10 05 06 08 09 30 24
  21687472.918     4950193.631 6   3874292.665 2        17.250           1.531
  21471434.887   -15317410.637 6  -4467186.439 1        14.250           1.250
  19421990.340   -18283859.036 7 -14071953.445 3        25.500           2.938
  23396922.301    -3606885.747 3  -2497016.548 1         5.500           0.156
  20937762.504   -11176200.890 6  -8536722.957 1        15.000           1.281
  22016698.770     2816721.342 6   2221446.720 1        14.250           0.875
  21535837.434   -14626885.508 6 -11090001.002 1        15.500           1.219
  19342055.934   -10201688.631 7  -7870944.461 3        23.750           2.906
 98  2 12  1 57 59.9960000  0  8 04 10 05 06 08 09 30 24
  21698564.691     5008472.965 6   3919705.146 2        17.500           1.500
  21449819.238   -15430993.704 6  -4555692.684 1        14.250           1.375
  19410669.012   -18343346.626 7 -14118307.399 3        25.500           2.844
  23377949.543    -3706587.626 3  -2574706.234 1         5.500           0.219
  20938160.801   -11174110.860 6  -8535094.376 1        14.500           1.250
  22026381.488     2867611.052 6   2261101.048 1        14.000           0.844
  21512899.309   -14747433.444 6 -11183934.433 1        15.000           1.250
  19341555.559   -10204333.146 7  -7873005.106 3        23.750           2.969
 98  2 12  1 58 29.9960000  0  8 04 10 05 06 08 09 30 24
  21709682.113     5066899.458 6   3965232.285 2        17.000           1.531
  21428264.473   -15544279.339 6  -4643967.186 1        14.500           1.313
  19399439.527   -18402362.857 7 -14164294.059 3        25.500           2.875
  23358978.324    -3806271.416 3  -2652381.836 1         6.000           0.219
  20938663.809   -11171473.475 6  -8533039.275 1        15.000           1.219
  22036104.856     2918704.833 6   2300914.372 1        13.500           0.781
  21489999.668   -14867770.381 6 -11277703.439 1        15.000           1.281
  19341129.941   -10206552.750 7  -7874734.655 3        23.750           2.844
 98  2 12  1 58 59.9960000  0  8 04 10 05 06 08 09 30 24
  21720825.613     5125456.419 6   4010861.098 1        17.250           1.406
  21406760.457   -15657275.815 6  -4732016.299 1        14.500           1.344
  19388297.238   -18460915.784 7 -14209919.701 3        26.000           2.938
  23340009.348    -3905960.701 3  -2730061.731 1         6.000           0.156
  20939264.543   -11168300.446 6  -8530566.790 1        14.750           1.219
  22045862.301     2969976.838 6   2340866.572 1        13.000           1.000
  21467139.840   -14987895.800 6 -11371307.627 1        15.000           1.125
  19340788.457   -10208364.820 7  -7876146.638 3        24.000           3.063
 98  2 12  1 59 29.9960000  0  8 04 10 05 06 08 09 30 24
  21731994.598     5184150.321 6   4056596.619 1        16.750           1.406
  21385313.668   -15769983.298 6  -4819840.285 1        14.750           1.375
  19377245.590   -18518995.325 7 -14255176.481 3        25.750           2.938
  23321040.856    -4005650.770 3  -2807742.260 1         6.000           0.219
  20939974.160   -11164582.834 6  -8527669.951 1        14.750           1.281
  22055648.215     3021398.846 6   2380935.659 1        13.250           1.063
  21444325.520   -15107797.234 6 -11464737.293 1        15.000           1.125
  19340516.465   -10209774.723 7  -7877245.252 3        23.750           3.031
 98  2 12  1 59 59.9960000  0  8 04 10 05 06 08 09 30 24
  21743195.598     5243006.470 6   4102458.563 1        16.500           1.406
  21363922.676   -15882397.795 6  -4907435.956 1        14.750           1.281
  19366285.793   -18576585.042 7 -14300051.567 3        25.750           2.906
  23302066.910    -4105351.249 4  -2885430.871 1         6.250           0.219
  20940788.715   -11160312.470 6  -8524342.401 1        15.000           1.250
  22065461.106     3072967.900 6   2421119.333 1        13.000           1.000
  21421554.504   -15227451.830 6 -11557974.612 1        14.750           1.219
  19340322.371   -10210801.541 7  -7878045.356 3        24.000           2.969
 98  2 12  2  0 29.9960000  0  8 04 10 05 06 08 09 30 24
  21754427.863     5302041.659 6   4148460.014 1        16.500           1.344
  21342586.980   -15994513.413 6  -4994798.736 2        14.750           1.500
  19355421.895   -18633673.669 7 -14344536.206 3        26.250           2.875
  23283091.027    -4205056.579 4  -2963123.267 1         6.500           0.156
  20941702.168   -11155498.841 6  -8520591.532 1        15.250           1.250
  22075305.465     3124706.342 6   2461434.993 1        12.750           0.938
  21398832.855   -15346847.389 6 -11651010.079 1        15.000           1.156
  19340203.449   -10211437.432 7  -7878540.841 3        24.000           2.969
 98  2 12  2  0 59.9960000  0  8 04 10 05 06 08 09 30 24
  21765695.770     5361258.502 6   4194603.010 1        16.500           1.406
  21321308.348   -16106326.693 6  -5081925.933 1        14.750           1.344
  19344649.676   -18690281.685 7 -14388646.336 3        26.250           2.719
  23264121.207    -4304748.895 4  -3040805.530 1         7.000           0.313
  20942720.230   -11150152.902 6  -8516425.873 1        15.500           1.125
  22085186.160     3176623.368 6   2501889.801 1        12.250           0.938
  21376160.230   -15465993.095 6 -11743850.856 1        15.000           1.156
  19340156.316   -10211674.331 7                        23.500
 98  2 12  2  1 29.9960000  0  8 04 10 05 06 08 09 30 24
  21776996.035     5420641.851 6   4240875.769 1        17.250           1.188
  21300086.113   -16217846.298 6  -5168824.284 1        14.750           1.406
  19333965.551   -18746427.271 7 -14432396.136 3        26.000           2.781
  23245156.527    -4404413.461 4  -3118466.181 1         7.000           0.250
  20943836.988   -11144291.760 6  -8511858.756 1        15.000           1.219
  22095102.684     3228735.334 6   2542496.521 1        12.250           0.906
  21353536.230   -15584897.710 6 -11836503.773 1        15.250           1.219
  19340186.356   -10211511.642 7                        23.500
 98  2 12  2  1 59.9960000  0  8 04 10 05 06 08 09 30 24
  21788326.980     5480180.189 6   4287269.287 1        17.000           1.156
  21278922.746   -16329064.927 6  -5255488.103 1        14.750           1.406
  19323367.066   -18802126.443 7 -14475798.076 3        26.250           2.688
  23226197.043    -4504050.188 4  -3196105.150 1         7.250           0.250
  20945048.473   -11137922.288 6  -8506895.540 1        14.750           1.219
  22105057.848     3281053.671 6   2583264.040 1        12.500           0.844
  21330954.754   -15703558.041 6 -11928966.339 1        15.000           1.313
  19340296.730   -10210927.837 7  -7878143.714 3        23.250           3.094
 98  2 12  2  2 29.9960000  0  8 04 10 05 06 08 09 30 24
  21799680.160     5539854.764 6   4333768.966 1        17.000           1.250
  21257817.145   -16439978.896 6  -5341914.534 1        14.750           1.375
  19312849.637   -18857390.383 7 -14518860.879 3        26.500           2.781
  23207242.746    -4603656.687 4  -3273720.550 1         7.000           0.281
  20946354.746   -11131042.563 6  -8501534.726 1        15.000           1.219
  22115050.262     3333560.107 6   2624178.141 1        12.500           0.906
  21308416.465   -15821988.488 6 -12021249.766 1        15.500           1.281
  19340492.371   -10209920.729 7  -7877358.942 3        23.500           3.063
 98  2 12  2  2 59.9960000  0  8 04 10 05 06 08 09 30 24
  21811064.816     5599673.600 6   4380381.058 1        17.000           1.219
  21236773.770   -16550564.665 6  -5428085.230 1        15.000           1.406
  19302422.488   -18912194.813 7 -14561565.622 3        26.500           2.625
  23188296.129    -4703226.382 4  -3351307.287 1         6.750           0.250
  20947768.895   -11123620.373 6  -8495751.208 1        14.750           1.188
  22125079.176     3386252.599 6   2665237.208 1        12.250           0.875
  21285925.590   -15940182.321 6 -12113348.828 1        15.750           1.250
  19340762.621   -10208496.040 7  -7876248.784 3        23.250           3.000
 98  2 12  2  3 29.9960000  0  8 04 10 05 06 08 09 30 24
  21822477.723     5659637.267 6   4427106.004 1        17.000           1.406
  21215794.004   -16660813.461 6  -5513993.329 1        14.750           1.344
  19292084.496   -18966513.772 7 -14603892.074 3        26.750           2.719
  23169349.863    -4802778.313 4  -3428880.155 1         7.000           0.250
  20949285.301   -11115647.787 6  -8489538.817 1        14.750           1.188
  22135134.520     3439111.386 6   2706425.858 1        12.000           0.906
  21263480.293   -16058136.033 6 -12205260.781 1        15.750           1.250
  19341111.098   -10206663.515 7  -7874820.829 3        23.250           3.063
 98  2 12  2  3 59.9960000  0  8 04 10 05 06 08 09 30 24
  21833914.996     5719746.647 6   4473944.491 1        17.250           1.344
  21194880.590   -16770717.796 6  -5599633.034 1        15.250           1.469
  19281841.691   -19020334.694 7 -14645830.447 3        26.750           2.750
  23150408.754    -4902328.213 4  -3506451.456 1         6.750           0.313
  20950906.504   -11107123.916 6  -8482896.848 1        14.000           1.188
  22145222.652     3492113.541 6   2747726.233 1        12.000           0.875
  21241083.215   -16175841.565 6 -12296979.347 1        15.750           1.219
  19341532.246   -10204441.703 7  -7873089.531 3        23.500           3.125
 98  2 12  2  4 29.9960000  0  8 04 10 05 06 08 09 30 24
  21845382.707     5780010.120 6   4520903.052 1        16.750           1.375
  21174031.434   -16880270.376 6  -5684998.615 1        14.500           1.313
  19271698.059   -19073642.032 7 -14687368.620 3        27.000           2.750
  23131465.988    -5001860.191 4  -3584008.786 1         6.750           0.344
  20952635.566   -11098048.920 6  -8475825.437 1        14.250           1.188
  22155334.996     3545266.786 6   2789144.329 1        12.000           0.938
  21218731.105   -16293295.485 6 -12388501.850 1        16.000           1.313
  19342030.105   -10201839.272 7  -7871061.652 3        23.500           3.031
 98  2 12  2  4 59.9960000  0  8 04 10 05 06 08 09 30 24
  21856875.551     5840407.867 6   4567966.252 1        16.250           1.313
  21153249.348   -16989484.922 6  -5770100.826 1        14.750           1.469
  19261651.441   -19126445.850 7 -14728514.442 3        27.250           2.781
  23112526.645    -5101384.945 4  -3661560.487 1         6.750           0.375
  20954463.871   -11088449.915 6  -8468345.701 1        14.000           1.156
  22165479.629     3598566.073 5   2830676.222 1        11.750           0.844
  21196427.152   -16410498.880 6 -12479829.147 1        16.000           1.250
  19342594.738   -10198855.167 7  -7868736.358 3        23.250           2.969
 98  2 12  2  5 29.9960000  0  8 04 10 05 06 08 09 30 24
  21868392.863     5900937.839 6   4615132.477 1        15.750           1.313
  21132530.051   -17098369.170 6  -5854945.654 2        15.000           1.500
  19251696.707   -19178754.267 7 -14769274.242 3        27.250           2.750
  23093592.106    -5200889.738 4  -3739096.620 1         6.750           0.250
  20956385.168   -11078336.242 6  -8460464.916 1        14.250           1.219
  22175649.332     3652005.992 5   2872317.711 1        11.750           0.813
  21174174.246   -16527443.099 6 -12570954.480 1        16.500           1.250
  19343244.863   -10195460.601 7  -7866091.227 3        23.750           3.063
 98  2 12  2  5 59.9960000  0  8 04 10 05 06 08 09 30 24
  21879937.059     5961591.231 6   4662394.871 1        15.500           1.344
  21111869.520   -17206937.115 6  -5939544.005 1        15.500           1.406
  19241837.895   -19230563.770 7 -14809645.275 3        27.000           2.750
  23074661.098    -5300363.686 4  -3816608.732 1         7.000           0.406
  20958407.832   -11067716.350 6  -8452189.660 1        14.250           1.156
  22185845.957     3705599.202 5   2914078.640 1        11.750           0.781
  21151970.606   -16644127.148 6 -12661877.093 1        16.750           1.250
  19343966.973   -10191644.440 7  -7863117.575 3        23.250           3.063
 98  2 12  2  6 29.9960000  0  8 04 10 05 06 08 09 30 24
  21891499.457     6022364.681 6   4709750.810 1        15.250           1.375
  21091268.965   -17315190.802 6  -6023897.489 1        15.500           1.438
  19232074.074   -19281873.580 7 -14849626.938 3        27.000           2.844
  23055737.254    -5399808.218 4  -3894097.926 1         6.750           0.344
  20960521.777   -11056599.737 6  -8443527.362 1        14.250           1.094
  22196075.934     3759343.890 5   2955957.617 1        11.750           0.813
  21129815.105   -16760556.168 6 -12752600.979 1        16.500           1.313
  19344775.590   -10187403.355 7  -7859812.816 3        23.000           3.031
 98  2 12  2  6 59.9960000  0  8 04 10 05 06 08 09 30 24
  21903090.371     6083264.115 6   4757204.918 1        15.250           1.344
  21070732.191   -17423116.845 6  -6107995.665 1        15.750           1.469
  19222405.348   -19332678.073 7 -14889214.849 3        27.500           2.750
  23036819.207    -5499230.889 4  -3971570.085 1         7.250           0.250
  20962734.090   -11044976.272 6  -8434470.124 1        14.250           1.219
  22206328.652     3813236.044 5   2997951.494 1        11.500           0.844
  21107711.074   -16876712.385 6 -12843112.289 1        16.750           1.313
  19345663.637   -10182738.793 7  -7856178.077 3        23.250           3.063
 98  2 12  2  7 29.9960000  0  8 04 10 05 06 08 09 30 24
  21914702.574     6144292.831 6   4804759.770 2        15.500           1.500
  21050258.543   -17530709.430 6  -6191834.009 1        16.000           1.469
  19212833.074   -19382980.992 7 -14928411.917 3        27.250           2.813
  23017907.395    -5598620.235 4  -4049016.291 1         7.250           0.281
  20965041.418   -11032851.205 6  -8425022.027 1        14.000           1.094
  22216612.793     3867277.693 5   3040061.853 1        11.000           0.750
  21085659.801   -16992591.810 6 -12933407.922 1        17.000           1.375
  19346628.488   -10177665.552 7  -7852224.886 3        23.250           3.063
 98  2 12  2  7 59.9960000  0  8 04 10 05 06 08 09 30 24
  21926341.301     6205447.477 6   4852412.752 2        15.500           1.500
  21029849.270   -17637955.405 6  -6275402.259 1        15.750           1.469
  19203356.973   -19432777.568 7 -14967214.439 3        27.500           2.813
  22999000.082    -5697978.349 5  -4126438.152 1         7.500           0.344
  20967444.231   -11020234.167 6  -8415190.563 1        13.500           1.125
  22226927.965     3921473.660 5   3082292.475 1        11.000           0.781
  21063663.012   -17108186.083 6 -13023481.360 1        17.500           1.281
  19347664.348   -10172217.528 7  -7847979.656 3        22.750           3.094
 98  2 12  2  8 29.9960000  0  8 04 10 05 06 08 09 30 24
  21938001.840     6266735.866 6   4900169.943 1        15.500           1.281
  21009513.504   -17744827.096 6  -6358678.865 1        16.000           1.469
  19193975.652   -19482077.996 7 -15005630.345 3        27.750           2.688
  22980100.324    -5797303.321 5  -4203834.201 1         8.000           0.281
  20969935.973   -11007117.136 6  -8404969.508 1        14.000           1.250
  22237272.270     3975822.615 5   3124642.294 1        10.750           0.781
  21041722.543   -17223483.179 6 -13113323.230 1        17.250           1.313
  19348772.848   -10166399.719 7  -7843446.286 3        22.750           3.219
 98  2 12  2  8 59.9960000  0  8 04 10 05 06 08 09 30 24
  21949689.871     6328145.093 6   4948021.297 1        15.250           1.281
  20989245.270   -17851325.864 6  -6441664.883 2        15.750           1.563
  19184687.316   -19530887.874 7 -15043664.007 3        27.250           2.656
  22961203.332    -5896597.702 5  -4281206.397 1         7.750           0.313
  20972529.621   -10993496.859 6  -8394356.315 1        14.250           1.188
  22247643.348     4030324.330 5   3167111.157 1        11.250           0.875
  21019838.715   -17338480.005 6 -13202931.119 1        17.750           1.313
  19349950.816   -10160210.908 7  -7838623.824 3        22.250           3.188
 98  2 12  2  9 29.9960000  0  8 04 10 05 06 08 09 30 24
  21961396.395     6389669.410 6   4995962.340 1        15.750           1.313
  20969050.605   -17957461.759 6  -6524368.135 1        16.250           1.406
  19175493.113   -19579207.062 7 -15081315.319 3        27.500           2.750
  22942311.254    -5995877.644 5  -4358567.341 1         7.500           0.313
  20975214.418   -10979388.138 6  -8383362.507 1        13.500           1.156
  22258037.910     4084963.676 5   3209687.262 1        11.000           0.844
  20998008.965   -17453193.047 6 -13292317.870 1        17.250           1.406
  19351197.340   -10153659.467 7  -7833518.789 3        22.500           3.156
 98  2 12  2  9 59.9960000  0  8 04 10 05 06 08 09 30 24
  21973128.535     6451311.563 6   5043995.199 1        16.000           1.281
  20948922.309   -18063228.799 6  -6606783.981 1        16.250           1.469
  19166391.691   -19627035.725 7 -15118584.397 3        27.500           2.688
  22923416.957    -6095161.167 5  -4435931.041 1         7.750           0.281
  20977993.223   -10964783.824 6  -8371982.527 1        13.500           1.188
  22268458.512     4139730.824 5   3252362.953 1        11.000           0.781
  20976234.980   -17567626.168 6 -13381486.505 1        16.750           1.313
  19352510.746   -10146750.227 7  -7828134.954 3        22.500           3.156
 98  2 12  2 10 29.9960000  0  8 04 10 05 06 08 09 30 24
  21984877.082     6513058.154 6   5092109.434 1        16.000           1.219
  20928864.527   -18168640.948 6  -6688923.282 1        16.250           1.438
  19157380.051   -19674390.158 7 -15155483.949 3        27.250           2.656
  22904520.535    -6194460.132 5  -4513306.811 1         7.500           0.438
  20980866.684   -10949687.551 6  -8360219.197 1        13.500           1.094
  22278904.301     4194604.908 5   3295121.971 1        11.000           0.688
  20954508.176   -17681795.699 6 -13470449.739 1        17.250           1.375
  19353894.715   -10139479.322 7  -7822469.300 3        22.250           3.125
 98  2 12  2 10 59.9960000  0  8 04 10 05 06 08 09 30 24
  21996649.598     6574920.985 6   5140314.248 1        15.750           1.250
  20908871.645   -18273697.150 6  -6770785.224 2        16.500           1.594
  19148463.184   -19721251.032 7 -15191998.905 3        27.500           2.719
  22885624.223    -6293763.760 5  -4590686.258 1         7.500           0.344
  20983834.934   -10934089.430 6  -8348064.825 1        13.500           1.094
  22289362.863     4249587.241 5   3337965.338 1        11.250           0.688
  20932833.731   -17795690.599 6 -13559198.981 1        17.250           1.406
  19355350.395   -10131835.903 7  -7816513.376 3        22.250           3.156
 98  2 12  2 11 29.9960000  0  8 04 10 05 06 08 09 30 24
  22008446.309     6636913.169 6   5188619.846 1        15.250           1.094
  20888949.488   -18378391.158 6  -6852364.933 2        16.500           1.563
  19139639.090   -19767620.028 7 -15228130.579 3        27.750           2.813
  22866726.637    -6393064.932 4  -4668063.782 1         7.250           0.406
  20986898.746   -10917995.497 6  -8335524.111 1        13.750           1.125
  22299846.191     4304673.265 5   3380889.504 1        11.250           0.719
  20911212.090   -17909308.541 6 -13647732.410 1        17.250           1.313
  19356873.824   -10123822.810 7  -7810269.398 3        22.500           3.188
 98  2 12  2 11 59.9960000  0  8 04 10 05 06 08 09 30 24
  22020265.887     6699020.283 6   5237015.012 1        15.250           1.125
  20869095.059   -18482716.300 6  -6933657.210 2        17.000           1.594
  19130907.168   -19813506.858 7 -15263886.538 3        27.500           2.719
  22847836.895    -6492347.292 4  -4745426.625 1         7.250           0.344
  20990055.965   -10901402.204 6  -8322594.276 1        13.750           1.219
  22310350.395     4359865.938 5   3423896.774 1        11.000           0.656
  20889647.699   -18022640.964 6 -13736043.360 1        17.750           1.406
  19358470.949   -10115433.362 7  -7803732.148 3        22.250           3.219
 98  2 12  2 12 29.9960000  0  8 04 10 05 06 08 09 30 24
  22032105.559     6761249.252 6   5285505.124 1        15.000           1.125
  20849313.871   -18586666.274 6  -7014657.153 2        17.000           1.656
  19122271.465   -19858888.025 7 -15299248.474 3        27.250           2.719
  22828948.449    -6591602.509 4  -4822768.329 1         7.250           0.406
  20993309.012   -10884304.481 6  -8309271.377 1        13.500           1.063
  22320876.434     4415178.769 5   3466997.679 1        11.250           0.813
  20868137.527   -18135681.184 6 -13824126.618 1        18.250           1.469
  19360142.027   -10106649.435 7  -7796887.523 3        22.250           3.281
 98  2 12  2 12 59.9960000  0  8 04 10 05 06 08 09 30 24
  22043966.137     6823579.067 6   5334073.820 1        14.500           1.063
  20829602.652   -18690248.725 6  -7095370.719 2        17.500           1.594
  19113729.699   -19903777.553 7 -15334227.320 3        27.250           2.750
  22810061.426    -6690852.528 4  -4900105.977 1         7.250           0.406
  20996655.598   -10866723.063 6  -8295571.569 1        13.500           1.000
  22331424.473     4470611.401 5   3510191.924 1        11.500           0.781
  20846679.449   -18248442.595 6 -13911992.624 1        18.500           1.438
  19361882.840   -10097493.374 7  -7789752.917 3        22.500           3.219
 98  2 12  2 13 29.9960000  0  8 04 10 05 06 08 09 30 24
  22055848.066     6886018.584 6   5382728.000 1        14.250           1.063
  20809968.996   -18793441.022 6  -7175780.265 2        17.500           1.719
  19105283.371   -19948162.620 7 -15368813.077 3        27.250           2.656
  22791178.332    -6790089.822 5  -4977433.717 1         7.500           0.313
  21000094.730   -10848650.770 6  -8281489.270 1        13.500           1.094
  22341996.793     4526176.373 5   3553489.296 1        11.250           0.688
  20825276.613   -18360915.099 6 -13999633.509 2        18.750           1.500
  19363697.106   -10087965.328 7  -7782328.447 3        22.250           3.219
 98  2 12  2 13 59.9960000  0  8 04 10 05 06 08 09 30 24
  22067750.465     6948565.013 6   5431465.482 1        13.750           1.031
  20790408.059   -18896224.040 6  -7255870.902 2        17.250           1.719
  19096937.816   -19992017.849 7 -15402985.973 3        27.250           2.813
  22772297.629    -6889296.701 5  -5054737.780 1         7.500           0.375
  21003628.480   -10830073.843 6  -8267013.744 1        13.500           1.031
  22352598.527     4581886.716 5   3596899.936 1        10.750           0.813
  20803929.043   -18473093.481 6 -14087045.207 2        18.250           1.531
  19365582.848   -10078055.368 7  -7774606.386 3        22.250           3.219
 98  2 12  2 14 29.9960000  0  8 04 10 05 06 08 09 30 24
  22079667.723     7011191.063 6   5480265.010 1        14.000           1.094
  20770920.676   -18998632.754 6  -7335669.862 2        17.500           1.688
  19088688.332   -20035369.289 7 -15436766.308 3        27.000           2.781
  22753421.285    -6988515.903 5  -5132051.418 1         8.000           0.438
  21007253.152   -10811040.380 6  -8252182.474 1        13.750           1.094
  22363219.941     4637698.427 5   3640389.581 1        11.000           0.688
  20782632.535   -18585005.313 6 -14174249.202 2        18.500           1.531
  19367534.059   -10067800.136 7  -7766615.284 3        22.250           3.188
 98  2 12  2 14 59.9960000  0  8 04 10 05 06 08 09 30 24
  22091605.902     7073925.221 6   5529148.780 1        14.000           1.000
  20751511.363   -19100634.610 6  -7415151.794 2        17.750           1.719
  19080537.301   -20078201.375 7 -15470141.949 3        27.250           2.719
  22734543.504    -7087708.216 5  -5209344.087 1         7.750           0.344
  21010964.316   -10791532.473 6  -8236981.512 1        13.500           1.094
  22373859.512     4693618.982 5   3683964.022 1        10.250           0.688
  20761396.988   -18696600.250 6 -14261206.273 2        19.000           1.594
  19369555.699   -10057177.049 7  -7758337.538 3        22.500           3.281
 98  2 12  2 15 29.9960000  0  8 04 10 05 06 08 09 30 24
  22103561.395     7136749.054 6   5578102.421 1        13.500           1.063
  20732172.574   -19202253.556 6  -7494335.346 2        17.750           1.781
  19072486.168   -20120515.279 7 -15503113.810 3        27.250           2.656
  22715669.145    -7186884.139 5  -5286623.990 1         8.000           0.406
  21014760.941   -10771572.616 6  -8221428.380 1        13.750           1.031
  22384513.973     4749606.221 5   3727590.433 1        10.250           0.656
  20740220.223   -18807886.673 6 -14347922.935 2        19.250           1.719
  19371646.254   -10046195.203 7  -7749780.251 3        22.750           3.313
 98  2 12  2 15 59.9960000  0  8 04 10 05 06 08 09 30 24
  22115527.582     7199636.080 6   5627105.309 1        13.500           1.031
  20712905.215   -19303506.368 6  -7573233.605 2        17.750           1.906
  19064529.066   -20162323.910 7 -15535691.958 3        27.500           2.750
  22696798.488    -7286047.401 5  -5363894.016 1         7.750           0.375
  21018641.473   -10751177.408 6  -8205536.018 1        13.500           1.031
  22395178.012     4805645.434 5   3771257.333 1        10.250           0.688
  20719101.730   -18918868.886 6 -14434402.560 2        19.250           1.656
  19373805.293   -10034851.372 7  -7740940.889 3        22.750           3.344
 98  2 12  2 16 29.9960000  0  8 04 10 05 06 08 09 30 24
  22127512.668     7262608.194 6   5676174.495 1        13.500           1.031
  20693709.629   -19404381.028 6  -7651837.197 2        17.500           1.875
  19056672.441   -20203613.788 7 -15567865.885 3        27.500           2.750
  22677933.004    -7385196.501 5  -5441153.006 1         7.750           0.250
  21022607.918   -10730339.291 6  -8189298.516 1        13.500           1.063
  22405855.059     4861746.658 5   3814972.564 1        10.500           0.656
  20698045.270   -19029513.831 6 -14520619.376 2        19.500           1.594
  19376032.863   -10023139.368 7  -7731814.637 3        22.750           3.344
 98  2 12  2 16 59.9960000  0  8 04 10 05 06 08 09 30 24
  22139510.184     7325657.477 6   5725303.803 1        13.250           1.063
  20674588.223   -19504863.359 6  -7730135.074 2        17.750           1.813
  19048915.004   -20244375.093 7 -15599627.932 3        27.500           2.719
  22659069.371    -7484325.963 5  -5518396.680 1         8.000           0.344
  21026659.316   -10709046.191 6  -8172706.488 1        13.250           0.969
  22416546.215     4917921.188 5   3858744.907 1        10.000           0.656
  20677056.098   -19139826.218 7 -14606577.050 2        20.000           1.625
  19378332.301   -10011063.541 7  -7722404.891 3        23.000           3.344
 98  2 12  2 17 29.9960000  0  8 04 10 05 06 08 09 30 24
  22151519.316     7388771.193 6   5774483.324 1        13.000           1.094
  20655546.137   -19604934.667 6  -7808112.674 2        18.000           1.844
  19041262.051   -20284595.499 7 -15630968.503 3        27.250           2.656
  22640210.129    -7583438.345 5  -5595627.033 1         7.500           0.375
  21030797.691   -10687298.606 6  -8155760.313 1        13.500           1.063
  22427249.356     4974185.174 5   3902586.974 1         9.500           0.625
  20656123.184   -19249819.505 6 -14692286.079 2        19.750           1.719
  19380697.660    -9998634.288 7  -7712719.746 4        23.000           3.500
 98  2 12  2 17 59.9950000  0  8 04 10 05 06 08 09 30 24
  22163541.147     7451949.222 6   5823712.955 1        12.500           1.094
  20636583.030   -19704584.225 6  -7885761.637 2        19.000           2.000
  19033707.093   -20324293.294 7 -15661901.844 3        27.500           2.563
  22621350.937    -7682532.121 5  -5672842.916 1         7.750           0.344
  21035019.163   -10665113.936 6  -8138473.565 1        13.250           1.000
  22437975.429     5030535.424 5   3946496.249 1         9.500           0.688
  20635252.765   -19359491.270 6 -14777744.573 2        19.750           1.719
  19383126.015    -9985872.091 7  -7702775.166 3        23.500           3.406
 98  2 12  2 18 29.9950000  0  8 04 10 05 06 08 09 30 24
  22175578.905     7515210.636 6   5873007.556 1        12.500           1.000
  20617701.726   -19803811.769 6                        18.000
  19026251.718   -20363474.639 7 -15692432.758 3        27.500           2.656
  22602494.390    -7781612.321 5                         7.750
  21039323.593   -10642494.043 6  -8120847.668 1        13.000           1.063
  22448714.444     5086973.884 5   3990474.244 1         9.250           0.688
  20614443.491   -19468845.448 6 -14862955.598 2        19.750           1.719
  19385615.038    -9972786.062 7  -7692578.246 3        23.750           3.313
 98  2 12  2 18 59.9950000  0  8 04 10 05 06 08 09 30 24
  22187632.390     7578553.167 6   5922365.383 1        12.750           1.031
  20598900.194   -19902601.426 6  -8040060.667 2        18.000           1.906
  19018893.624   -20402138.538 7 -15722560.465 3        27.500           2.656
  22583648.960    -7880655.623 5  -5827224.775 1         8.000           0.563
  21043713.726   -10619433.655 6  -8102878.536 1        13.000           1.000
  22459473.038     5143511.056 5   4034529.173 1         9.250           0.625
  20593696.749   -19577874.803 6 -14947913.503 2        19.750           1.750
  19388167.991    -9959372.287 7  -7682125.949 3        23.750           3.313
 98  2 12  2 19 29.9950000  0  8 04 10 05 06 08 09 30 24
  22199703.499     7641979.463 6   5971788.474 1        13.250           0.938
  20580183.108   -20000965.857 6  -8116708.240 2        18.000           1.906
  19011633.523   -20440298.111 7 -15752295.192 3        27.250           2.656
  22564810.851    -7979655.800 5  -5904367.699 1         8.250           0.375
  21048181.280   -10595943.279 6  -8084574.347 1        12.750           1.000
  22470249.069     5200137.841 5   4078653.927 1         9.250           0.531
  20573012.898   -19686568.096 7 -15032609.545 2        20.250           1.844
  19390781.741    -9945633.198 7  -7671420.150 3        23.750           3.438
 98  2 12  2 19 59.9950000  0  8 04 10 05 06 08 09 30 24
  22211789.046     7705489.488 6   6021276.807 1        13.000           1.031
  20561544.429   -20098918.663 6  -8193035.065 2        18.000           1.906
  19004467.179   -20477955.125 7 -15781638.317 3        27.500           2.594
  22545973.968    -8078612.116 5  -5981476.486 1         8.000           0.438
  21052736.687   -10572013.262 6  -8065927.586 1        12.250           0.969
  22481040.382     5256846.726 5   4122842.657 1         9.250           0.531
  20552392.679   -19794915.536 7 -15117036.101 2        20.250           1.719
  19393462.726    -9931552.831 7  -7660448.423 4        23.750           3.500
 98  2 12  2 20 29.9950000  0  8 04 10 05 06 08 09 30 24
  22223885.101     7769064.055 6   6070815.445 1        12.500           0.938
  20542978.421   -20196466.491 6  -8269046.314 2        18.000           2.031
  18997397.905   -20515104.131 7 -15810585.587 3        27.750           2.563
  22527150.030    -8177547.607 5  -6058569.022 1         7.500           0.438
  21057375.218   -10547640.086 6  -8046935.511 1        12.750           1.000
  22491845.913     5313633.303 5   4167091.929 1         9.000           0.469
  20531840.765   -19902926.565 7 -15201200.516 2        20.250           1.813
  19396203.093    -9917142.596 7  -7649219.654 4        23.750           3.594
 98  2 12  2 20 59.9950000  0  8 04 10 05 06 08 09 30 24
  22235994.155     7832694.980 6   6120397.988 1        12.750           0.875
  20524493.288   -20293610.748 6  -8344743.102 2        18.000           2.156
  18990427.523   -20551731.968 7 -15839126.756 3        27.750           2.563
  22508328.062    -8276470.209 5  -6135651.534 1         7.500           0.375
  21062098.960   -10522821.744 6  -8027596.542 1        12.500           1.031
  22502664.116     5370485.649 5   4211392.449 1         8.750           0.656
  20511352.257   -20010597.950 7 -15285100.272 2        20.000           1.844
  19399008.093    -9902403.954 7  -7637734.980 4        23.750           3.563
 98  2 12  2 21 29.9950000  0  8 04 10 05 06 08 09 30 24
  22248113.804     7896387.184 6   6170028.284 1        12.500           0.813
  20506083.343   -20390351.218 6  -8420125.248 2        18.250           2.031
  18983558.694   -20587832.599 7 -15867257.114 3        27.750           2.563
  22489503.460    -8375395.769 5  -6212736.326 1         7.750           0.438
  21066903.772   -10497555.897 6  -8007908.872 1        13.000           1.000
  22513490.913     5427377.044 5   4255723.386 1         8.500           0.594
  20490928.937   -20117926.280 6 -15368732.709 2        19.750           1.906
  19401879.140    -9887324.048 7  -7625984.392 4        24.000           3.500
 98  2 12  2 21 59.9950000  0  8 04 10 05 06 08 09 30 24
  22260245.163     7960123.375 6   6219692.857 1        12.250           0.813
  20487750.757   -20486695.387 6  -8495198.595 2        18.000           2.063
  18976788.437   -20623410.746 7 -15894980.340 3        27.750           2.563
  22470670.757    -8474355.921 5  -6289848.094 1         8.000           0.406
  21071796.890   -10471856.024 6  -7987883.005 1        12.500           1.000
  22524315.788     5484280.473 5   4300063.703 1         8.000           0.563
  20470565.093   -20224933.882 7 -15452115.233 2        20.000           1.906
  19404809.640    -9871915.967 7  -7613978.083 4        24.250           3.688
 98  2 12  2 22 29.9950000  0  8 04 10 05 06 08 09 30 24
  22272383.694     8023925.648 5   6269408.918 1        11.750           0.906
  20469498.132   -20582612.105 6  -8569938.861 2        18.000           2.094
  18970119.913   -20658452.818 7 -15922285.848 3        27.500           2.594
  22451835.960    -8573332.600 5  -6366972.741 1         8.250           0.500
  21076770.726   -10445719.799 6  -7967517.118 1        12.500           0.938
  22535151.398     5541205.440 5   4344420.800 1         8.500           0.625
  20450264.366   -20331614.232 6 -15535242.759 2        19.750           1.938
  19407805.280    -9856176.653 7  -7601713.670 4        24.500           3.563
 98  2 12  2 22 59.9950000  0  8 04 10 05 06 08 09 30 24
  22284541.319     8087808.178 5   6319187.514 1        11.500           0.906
  20451329.765   -20678078.887 6  -8644328.529 2        18.000           2.094
  18963554.312   -20692952.830 7 -15949168.970 3        27.750           2.531
  22433003.194    -8672306.988 5  -6444095.560 1         8.250           0.469
  21081824.796   -10419144.413 6  -7946809.029 1        12.250           0.969
  22545988.733     5598159.164 5   4388800.310 1         8.500           0.531
  20430027.866   -20437959.886 7 -15618109.471 2        20.000           1.969
  19410868.835    -9840083.919 7  -7589173.862 4        24.500           3.563
 98  2 12  2 23 29.9950000  0  8 04 10 05 06 08 09 30 24
  22296711.960     8151767.147 5   6369025.664 1        11.250           0.813
  20433255.468   -20773067.603 6  -8718345.675 2        18.250           2.156
  18957092.632   -20726910.789 7 -15975629.714 3        27.250           2.563
  22414170.476    -8771273.124 5  -6521211.991 1         7.750           0.469
  21086964.773   -10392129.434 6  -7925758.398 1        12.750           0.938
  22556838.538     5655158.355 5   4433215.256 1         8.500           0.500
  20409854.272   -20543970.728 7 -15700715.298 2        20.250           1.906
  19413999.015    -9823633.939 7  -7576355.686 4        24.500           3.594
 98  2 12  2 23 59.9950000  0  8 04 10 05 06 08 09 30 24
  22308896.390     8215790.160 5   6418913.731 1        11.250           0.844
  20415271.687   -20867582.314 6  -8791993.470 2        17.750           2.031
  18950732.116   -20760333.257 7 -16001673.195 3        27.250           2.688
  22395336.210    -8870221.742 5  -6598314.754 1         7.750           0.531
  21092189.132   -10364689.609 6  -7904376.733 1        12.750           0.906
  22567693.304     5712215.860 5   4477675.628 1         8.500           0.531
  20389742.921   -20649648.062 7 -15783061.257 2        21.000           1.969
  19417192.226    -9806853.518 7  -7563280.019 4        24.500           3.531
 98  2 12  2 24 29.9950000  0  8 04 10 05 06 08 09 30 24
  22321088.952     8279866.477 5   6468843.341 1        11.250           0.750
  20397373.413   -20961632.475 6  -8865279.286 2        18.000           2.063
  18944470.312   -20793238.700 7 -16027313.792 3        27.250           2.594
  22376515.429    -8969151.977 5  -6675403.190 1         8.000           0.531
  21097487.819   -10336834.170 6  -7882671.203 1        12.500           0.938
  22578563.819     5769339.874 5   4522187.827 1         8.250           0.531
  20369698.640   -20754985.827 7 -15865142.611 2        21.000           1.969
  19420443.577    -9789764.014 7  -7549963.514 4        24.500           3.656
 98  2 12  2 24 59.9950000  0  8 04 10 05 06 08 09 30 24
  22333292.288     8343993.014 5   6518812.072 1        11.000           0.625
  20379562.155   -21055225.248 6  -8938208.683 2        18.250           2.125
  18938307.265   -20825629.348 7 -16052553.256 3        27.250           2.531
  22357689.319    -9068070.479 5  -6752482.478 1         7.750           0.469
  21102869.085   -10308563.144 6  -7860641.829 1        12.750           0.875
  22589439.968     5826520.506 5   4566744.160 1         8.500           0.531
  20349725.171   -20859955.967 7 -15946937.504 2        20.500           2.094
  19423754.835    -9772369.172 7  -7536409.079 4        24.250           3.688
 98  2 12  2 25 29.9950000  0  8 04 10 05 06 08 09 30 24
  22345501.163     8408164.117 5   6568815.542 1        10.750           0.656
  20361837.663   -21148382.531 6  -9010798.746 2        18.250           2.063
  18932240.421   -20857508.709 7 -16077394.313 3        27.000           2.500
  22338870.499    -9166975.354 5  -6829551.164 1         8.000           0.594
  21108327.132   -10279874.352 6  -7838286.942 1        12.250           0.906
  22600336.421     5883747.382 5   4611336.517 1         8.250           0.531
  20329821.694   -20964537.851 7 -16028429.857 2        20.250           2.031
  19427120.062    -9754677.120 7  -7522623.054 4        24.500           3.688
 98  2 12  2 25 59.9950000  0  8 04 10 05 06 08 09 30 24
  22357722.929     8472387.922 5   6618860.073 1        10.500           0.719
  20344188.640   -21241117.022 6  -9083059.365 2        18.750           2.063
  18926272.085   -20888872.781 7 -16101833.845 3        27.000           2.594
  22320054.499    -9265856.551 5  -6906601.387 1         8.000           0.500
  21113868.733   -10250773.214 6  -7815610.750 1        12.500           0.719
  22611230.538     5941014.217 5   4655960.007 1         8.250           0.531
  20309999.116   -21068717.875 7 -16109609.075 2        20.250           2.031
  19430541.429    -9736692.469 7  -7508609.032 4        24.250           3.594
 98  2 12  2 26 29.9950000  0  8 04 10 05 06 08 09 30 24
  22369956.374     8536669.283 5   6668949.448 1        10.000           0.813
  20326628.921   -21333406.810 6  -9154973.449 2        18.000           2.188
  18920402.796   -20919713.165 7 -16125865.312 3        26.750           2.531
  22301240.648    -9364713.530 5  -6983632.744 1         8.000           0.469
  21119483.983   -10221261.815 6  -7792614.865 1        12.250           0.750
  22622136.772     5998318.058 5   4700612.337 1         8.500           0.531
  20290249.366   -21172496.106 7 -16190475.200 2        20.250           2.094
  19434022.265    -9718398.242 7  -7494353.782 4        24.250           3.719
 98  2 12  2 26 59.9950000  0  8 04 10 05 06 08 09 30 24
  22382197.538     8600989.684 5   6719069.233 1        10.000           0.750
  20309147.437   -21425262.555 6  -9226549.339 2        18.500           2.188
  18914634.444   -20950026.951 7 -16149486.443 3        27.000           2.500
  22282432.991    -9463562.860 5  -7060658.131 1         8.500           0.406
  21125169.960   -10191370.262 6  -7769322.749 1        12.500           0.813
  22633041.976     6055632.007 5   4745272.548 1         8.750           0.625
  20270574.101   -21275893.837 7 -16271044.838 2        20.500           2.094
  19437563.765    -9699802.704 7  -7479863.744 4        24.500           3.688
 98  2 12  2 27 29.9950000  0  8 04 10 05 06 08 09 30 24
  22394439.608     8665334.562 5   6769208.098 1        10.250           0.844
  20291752.132   -21516686.301 6  -9297788.588 2        18.500           2.063
  18908969.108   -20979800.997 7 -16172686.995 2        27.000           2.469
  22263621.812    -9562394.894 5  -7137670.044 1         8.250           0.563
  21130929.335   -10161104.641 6  -7745739.165 1        12.250           0.813
  22643952.905     6112970.985 5   4789952.267 1         9.000           0.531
  20250964.749   -21378934.766 7 -16351336.453 2        20.750           2.063
  19441157.405    -9680907.009 7  -7465139.815 4        24.000           3.688
 98  2 12  2 27 59.9950000  0  8 04 10 05 06 08 09 30 24
  22406690.233     8729710.227 5   6819370.963 1        10.500           0.813
  20274437.296   -21607659.165 6  -9368676.505 2        18.250           2.031
  18903406.304   -21009030.692 7 -16195463.380 3        27.000           2.563
  22244819.741    -9661205.239 5  -7214665.062 1         8.500           0.469
  21136757.999   -10130476.980 6  -7721873.461 1        12.250           0.844
  22654871.483     6170339.621 5   4834655.091 1         9.000           0.563
  20231424.210   -21481631.849 7 -16431360.134 2        21.000           2.031
  19444810.671    -9661709.835 7  -7450180.970 4        23.750           3.719
 98  2 12  2 28 29.9950000  0  8 04 10 05 06 08 09 30 24
  22418947.413     8794117.071 5   6869558.117 1        10.500           0.781
  20257214.929   -21698171.535 6  -9439205.590 2        18.500           2.125
  18897948.679   -21037712.494 7 -16217812.832 3        26.500           2.563
  22226021.640    -9759997.952 5  -7291646.331 1         8.000           0.469
  21142656.148   -10099480.676 5  -7697720.511 1        11.750           0.656
  22665794.530     6227734.140 5   4879378.070 1         9.250           0.594
  20211946.390   -21583982.951 7 -16511114.218 2        21.000           1.938
  19448522.827    -9642201.969 7  -7434980.026 4        23.750           3.625
 98  2 12  2 28 59.9950000  0  8 04 10 05 06 08 09 30 24
  22431210.733     8858560.348 5   6919773.666 1        10.750           0.750
  20240078.765   -21788227.643 6  -9509379.158 2        18.500           2.094
  18892596.124   -21065836.721 7 -16239727.809 3        26.750           2.625
  22207222.788    -9858763.895 5  -7368606.755 1         8.000           0.531
  21148630.398   -10068095.184 6  -7673264.305 1        12.250           0.813
  22676721.687     6285151.200 5   4924118.619 1         9.250           0.594
  20192539.218   -21685964.331 7 -16590580.209 2        20.750           2.094
  19452295.663    -9622380.135 7  -7419534.434 4        23.500           3.625
 98  2 12  2 29 29.9950000  0  8 04 10 05 06 08 09 30 24
  22443480.812     8923045.157 5   6970021.581 1        10.750           0.656
  20223029.655   -21877819.638 6  -9579191.068 2        18.250           2.125
  18887348.140   -21093415.154 7 -16261217.496 3        26.500           2.531
  22188435.960    -9957493.127 5  -7445538.564 1         8.250           0.500
  21154678.616   -10036311.860 5  -7648498.098 1        11.750           0.781
  22687649.741     6342585.608 5   4968872.686 1         9.250           0.656
  20173205.046   -21787572.257 7 -16669755.198 2        21.000           2.063
  19456126.194    -9602246.692 7  -7403846.028 4        23.500           3.594
 98  2 12  2 29 59.9950000  0  8 04 10 05 06 08 09 30 24
  22455763.179     8987588.226 5   7020314.889 1        11.000           0.781
  20206073.062   -21966924.117 6  -9648623.100 2        18.500           2.188
  18882203.858   -21120451.247 7 -16282284.581 3        26.750           2.563
  22169658.593   -10056188.031 5  -7522443.620 1         8.500           0.531
  21160802.429   -10004125.729 5  -7623418.012 1        11.750           0.813
  22698581.265     6400025.739 5   5013631.199 1         9.500           0.625
  20153944.226   -21888785.188 7 -16748622.402 2        20.750           2.188
  19460017.476    -9581804.027 7  -7387916.667 4        23.500           3.563
 98  2 12  2 30 29.9950000  0  8 04 10 05 06 08 09 30 24
  22468055.327     9052175.124 5   7070642.356 1        10.750           0.688
  20189209.374   -22055537.839 6  -9717672.725 2        18.750           2.156
  18877162.874   -21146945.996 7 -16302929.839 3        26.750           2.531
  22150877.874   -10154854.041 5  -7599326.173 1         8.000           0.438
  21167005.733    -9971533.056 5  -7598021.134 1        11.750           0.750
  22709508.265     6457462.690 5   5058387.242 1         9.500           0.625
  20134761.124   -21989595.387 7 -16827175.778 2        20.750           2.125
  19463963.523    -9561061.897 7  -7371753.960 4        23.500           3.625
 98  2 12  2 30 59.9950000  0  8 04 10 05 06 08 09 30 24
  22480352.046     9116795.899 5   7120996.222 1        10.500           0.719
  20172438.437   -22143666.997 6  -9786344.761 2        18.500           2.281
  18872222.827   -21172907.191 7 -16323159.341 3        26.750           2.594
  22132111.944   -10253495.980 5  -7676189.967 1         8.750           0.625
  21173284.327    -9938542.086 6  -7572313.893 1        12.000           0.813
  22720438.648     6514897.197 5   5103141.389 1         9.250           0.688
  20115654.491   -22090007.735 7 -16905419.150 2        20.750           2.031
  19467965.069    -9540028.760 7  -7355364.493 4        23.500           3.594
 98  2 12  2 31 29.9950000  0  8 04 10 05 06 08 09 30 24
  22492651.257     9181440.887 5   7171368.948 1        10.500           0.813
  20155761.476   -22231302.500 6  -9854632.129 2        18.750           2.250
  18867382.452   -21198335.267 7 -16342973.426 2        26.500           2.469
  22113346.319   -10352111.241 5  -7753032.963 1         8.750           0.438
  21179633.257    -9905161.725 5  -7546303.237 1        11.750           0.813
  22731369.718     6572343.389 5   5147904.629 1         9.000           0.594
  20096618.499   -22190035.752 7 -16983363.040 2        21.250           2.313
  19472023.577    -9518706.908 7  -7338750.048 4        23.250           3.594
 98  2 12  2 31 59.9950000  0  8 04 10 05 06 08 09 30 24
  22504957.562     9246091.908 5   7221746.375 1        11.000           0.688
  20139179.702   -22318450.473 6  -9922539.622 2        18.500           2.219
  18862645.476   -21223229.180 7 -16362371.281 3        26.250           2.594
  22094581.515   -10450720.115 5  -7829870.983 1         8.500           0.500
  21186057.077    -9871407.814 5  -7520001.505 1        11.750           0.688
  22742304.882     6629799.655 5   5192675.738 1         8.750           0.531
  20077656.804   -22289679.412 7 -17061007.433 2        21.500           2.313
  19476135.655    -9497099.035 7  -7321912.740 3        23.000           3.406
 98  2 12  2 32 29.9950000  0  8 04 10 05 06 08 09 30 24
  22517256.593     9310731.247 5   7272114.699 1        11.250           0.656
  20122680.827   -22405149.500 6  -9990097.278 2        18.500           2.344
  18858007.780   -21247600.911 7 -16381362.241 3        26.500           2.563
  22075810.077   -10549346.661 5  -7906722.777 1         8.750           0.531
  21192547.343    -9837300.990 5  -7493424.773 1        11.500           0.750
  22753237.093     6687250.394 5   5237442.529 1         8.250           0.438
  20058762.710   -22388959.594 7 -17138368.595 2        21.500           2.188
  19480302.773    -9475207.013 7  -7304854.010 4        23.500           3.500
 98  2 12  2 32 59.9950000  0  8 04 10 05 06 08 09 30 24
  22529553.546     9375367.036 5   7322480.260 1        11.250           0.750
  20106269.163   -22491402.992 6 -10057307.762 2        18.750           2.438
  18853471.546   -21271438.172 7 -16399936.727 3        26.250           2.563
  22057040.015   -10647994.305 5                         8.750
  21199104.155    -9802847.104 5  -7466577.613 1        11.250           0.625
  22764170.015     6744699.081 5   5282207.747 1         8.500           0.375
  20039940.804   -22487874.533 7                        22.000
  19484522.890    -9453026.860 7  -7287570.769 3        23.500           3.375
 98  2 12  2 33 29.9950000  0  8 04 10 05 06 08 09 30 24
  22541857.905     9440019.501 5   7372858.813 1        11.250           0.813
  20089939.288   -22577200.023 6 -10124162.562 2        18.500           2.344
  18849039.624   -21294727.182 7 -16418084.005 3        26.250           2.594
  22038267.851   -10746656.838 5                         8.750
  21205723.476    -9768053.316 5  -7439465.581 1        11.000           0.719
  22775097.632     6802146.105 5   5326971.644 1         8.500           0.469
  20021193.351   -22586402.421 7 -17292220.110 2        22.250           2.313
  19488798.929    -9430555.376 7  -7270060.512 3        23.250           3.375
 98  2 12  2 33 59.9950000  0  8 04 10 05 06 08 09 30 24
  22554171.773     9504718.671 5   7423273.758 1        11.250           0.813
  20073703.312   -22662524.635 6 -10190649.249 2        18.750           2.438
  18844715.358   -21317456.131 7 -16435794.873 3        26.250           2.531
  22019489.968   -10845325.168 5        -0.22611         9.000           0.531
  21212410.694    -9732921.278 5  -7412089.980 1        11.250           0.781
  22786031.280     6859588.606 5   5371732.022 1         8.250           0.438
  20002521.132   -22684519.559 7 -17368675.011 2        22.250           2.344
  19493130.390    -9407785.351 7  -7252317.618 3        23.500           3.406
 98  2 12  2 34 29.9950000  0  8 04 10 05 06 08 09 30 24
  22566492.710     9569476.673 5   7473734.556 1        11.000           0.844
  20057561.304   -22747366.477 6 -10256759.743 2        18.500           2.438
  18840493.944   -21339633.785 7 -16453076.161 3        26.000           2.563
  22000712.515   -10943991.481 5    -76883.012 1         8.750           0.594
  21219162.390    -9697440.421 5  -7384442.580 1        11.000           0.656
  22796955.921     6917018.964 5   5416482.934 1         7.750           0.469
  19983926.148   -22782230.360 7 -17444813.283 2        22.000           2.313
  19497517.890    -9384733.328 7  -7234355.001 3        23.500           3.406
 98  2 12  2 34 59.9950000  0  8 04 10 05 06 08 09 30 24
  22578827.577     9634287.127 5   7524236.219 1        11.000           0.688
  20041512.046   -22831685.658 6 -10322462.977 3        18.500           2.531
  18836378.929   -21361260.012 7 -16469927.767 3        26.250           2.594
  21981945.632   -11042629.510 5   -153743.770 1         9.250           0.625
  21225982.819    -9661600.162 5  -7356515.113 1        11.000           0.719
  22807885.413     6974446.599 4   5461231.702 1         7.250           0.531
  19965414.608   -22879526.332 7 -17520628.310 2        22.500           2.219
  19501955.358    -9361417.685 7  -7216186.960 3        23.750           3.313
 98  2 12  2 35 29.9950000  0  8 04 10 05 06 08 09 30 24
  22591170.374     9699144.100 5   7574774.131 1        10.250           0.656
  20025571.851   -22915465.510 6 -10387745.955 2        18.500           2.438
  18832368.319   -21382336.560 7 -16486351.052 3        26.000           2.656
  21963182.405   -11141227.871 5   -230573.617 1         9.250           0.500
  21232873.085    -9625395.776 5  -7328303.914 1        11.000           0.656
  22818814.335     7031869.081 4   5505976.482 1         6.750           0.469
  19946975.694   -22976400.652 7 -17596114.782 2        22.500           2.344
  19506440.312    -9337845.952 7  -7197819.363 3        24.000           3.250
 98  2 12  2 35 59.9950000  0  8 04 10 05 06 08 09 30 24
  22603515.476     9764024.927 5   7625330.630 1        10.000           0.656
  20009730.898   -22998705.402 6 -10452608.184 2        18.750           2.469
  18828461.226   -21402869.137 7 -16502350.463 3        26.000           2.563
  21944427.960   -11239782.157 5   -307369.124 1         9.500           0.594
  21239832.812    -9588820.495 5  -7299803.700 1        10.750           0.688
  22829736.187     7089271.457 4   5550705.571 1         6.750           0.375
  19928620.804   -23072862.207 7 -17671279.616 2        22.500           2.344
  19510972.468    -9314029.352 7  -7179260.964 3        24.500           3.281
 98  2 12  2 36 29.9950000  0  8 04 10 05 06 08 09 30 24
  22615858.116     9828893.338 5   7675877.448 1        10.000           0.531
  19993991.608   -23081420.904 6 -10517061.793 3        18.750           2.500
  18824653.601   -21422878.478 7 -16517942.157 3        25.750           2.594
  21925677.788   -11338308.591 5   -384142.920 1         9.500           0.563
  21246859.796    -9551886.155 5  -7271023.711 1        10.750           0.656
  22840654.108     7146639.808 4   5595408.155 1         6.250           0.438
  19910343.093   -23168917.842 7 -17746128.145 2        22.750           2.375
  19515549.054    -9289975.223 7  -7160517.477 3        24.250           3.250
 98  2 12  2 36 59.9950000  0  8 04 10 05 06 08 09 30 24
  22628199.585     9893749.661 5   7726414.853 1         9.250           0.500
  19978351.882   -23163607.907 6 -10581103.588 3        18.750           2.594
  18820950.562   -21442342.301 7 -16533108.773 3        25.500           2.563
  21906936.944   -11436791.575 5   -460882.873 1         9.500           0.625
  21253956.398    -9514598.092 5  -7241968.086 1        10.750           0.750
  22851569.741     7203991.992 4   5640098.151 1         6.750           0.375
  19892146.218   -23264534.817 7 -17820634.866 2        23.000           2.406
  19520176.468    -9265652.577 7  -7141564.757 3        24.500           3.188
 98  2 12  2 37 29.9950000  0  8 04 10 05 06 08 09 30 24
  22640538.491     9958598.199 5   7776946.205 1         9.000           0.500
  19962806.023   -23245288.951 6 -10644751.130 2        18.500           2.438
  18817347.265   -21461264.890 7 -16547853.647 3        25.750           2.625
  21888203.374   -11535243.682 5   -537598.760 1         9.500           0.594
  21261114.702    -9476977.284 5  -7212653.190 1        11.000           0.781
  22862475.452     7261312.976 4   5684763.845 1         7.000           0.406
  19874036.593   -23359710.636 7 -17894797.824 2        23.000           2.406
  19524860.523    -9241051.645 7  -7122395.193 3        24.500           3.219
 98  2 12  2 37 59.9950000  0  8 04 10 05 06 08 09 30 24
  22652876.054    10023434.756 5   7827468.211 1         9.250           0.563
  19947355.101   -23326488.223 6 -10708023.259 3        18.750           2.625
  18813846.687   -21479669.257 7 -16562194.713 3        25.250           2.563
  21869469.999   -11633681.267 5   -614303.321 1         9.500           0.625
  21268336.366    -9439035.550 5  -7183088.218 1        10.500           0.656
  22873379.085     7318596.482 5   5729400.314 1         7.750           0.406
  19856006.983   -23454457.273 7 -17968626.357 3        23.000           2.500
  19529595.015    -9216167.286 7  -7103004.773 3        24.500           3.156
 98  2 12  2 38 29.9950000  0  8 04 10 05 06 08 09 30 24
  22665212.382    10088259.888 5   7877981.315 1         8.500           0.438
  19931997.085   -23407200.977 6 -10770916.293 3        19.000           2.656
  18810442.687   -21497553.152 7 -16576130.215 3        25.250           2.625
  21850739.038   -11732114.099 5   -691004.189 1         9.500           0.719
  21275613.999    -9400782.979 5  -7153281.037 1        10.750           0.781
  22884273.593     7375856.715 4   5774018.623 1         6.250           0.125
  19838060.882   -23548766.875 7 -18042114.344 3        23.250           2.531
  19534385.171    -9190997.845 7  -7083392.214 3        25.000           3.156
 98  2 12  2 38 59.9950000  0  8 04 10 05 06 08 09 30 24
  22677551.655    10153091.475 5   7928499.434 1         8.500           0.438
  19916732.335   -23487424.493 6 -10833428.095 3        19.250           2.656
  18807141.757   -21514904.650 7 -16589650.866 3        25.000           2.688
  21832008.460   -11830540.518 5   -767700.048 1         9.750           0.594
  21282955.366    -9362214.318 5  -7123227.544 1        10.500           0.656
  22895161.765     7433085.170 4   5818612.230 1         6.250           0.125
  19820195.312   -23642644.392 7 -18115265.650 3        23.250           2.500
  19539225.124    -9165558.984 7  -7063569.716 3        25.000           3.125
 98  2 12  2 39 29.9950000  0  8 04 10 05 06 08 09 30 24
  22689887.569    10217921.264 5   7979016.170 1         8.500           0.500
  19901558.163   -23567163.934 6 -10895562.701 3        19.000           2.656
  18803940.562   -21531731.100 7 -16602762.390 3        24.750           2.625
  21813275.741   -11928980.801 5   -844406.713 1         9.750           0.688
  21290353.140    -9323333.189 5  -7092930.582 1        10.500           0.688
  22906046.257     7490253.824 4   5863159.247 1         7.000           0.281
  19802408.882   -23736113.699 7 -18188098.858 2        23.000           2.375
  19544111.062    -9139880.238 7  -7043560.292 3        25.250           3.125
 98  2 12  2 39 59.9950000  0  8 04 10 05 06 08 09 30 24
  22702224.062    10282749.666 5   8029531.811 1         8.250           0.500
  19886480.194   -23646398.821 6 -10957304.144 3        19.750           2.625
  18800839.358   -21548023.005 7 -16615457.387 3        24.750           2.625
  21794544.023   -12027429.883 5   -921120.236 1         9.500           0.625
  21297815.218    -9284124.547 5  -7062378.413 1        10.750           0.813
  22916909.569     7547369.664 4   5907665.099 1         6.250           0.281
  19784701.358   -23829164.352 7 -18260605.844 2        23.000           2.469
  19549044.632    -9113957.223 7  -7023360.521 3        26.000           3.156
 98  2 12  2 40 29.9950000  0  8 04 10 05 06 08 09 30 24
  22714563.171    10347583.995 5   8080052.070 1         9.000           0.500
  19871503.194   -23725103.084 6 -11018632.115 3        19.000           2.625
  18797845.515   -21563758.144 7 -16627718.532 3        25.000           2.531
  21775809.608   -12125876.467 5   -997831.792 1        10.000           0.688
  21305340.062    -9244587.714 5  -7031570.512 1        10.250           0.719
  22927773.140     7604426.376 4   5952124.831 1         6.500           0.344
  19767077.280   -23921778.032 7 -18332772.339 2        23.000           2.406
  19554021.663    -9087801.587 7  -7002979.494 3        25.750           3.094
 98  2 12  2 40 59.9950000  0  8 04 10 05 06 08 09 30 24
  22726899.249    10412425.149 5   8130577.652 1         8.750           0.438
  19856626.124   -23803282.977 6 -11079551.486 3        19.000           2.656
  18794957.241   -21578933.583 7 -16639543.552 3        24.750           2.563
  21757079.624   -12224311.827 5  -1074534.641 1        10.000           0.563
  21312923.358    -9204717.581 5  -7000502.882 1        10.250           0.750
  22938616.015     7661405.276 4   5996523.977 1         6.500           0.281
  19749535.038   -24013963.861 7 -18404605.438 2        22.750           2.469
  19559042.788    -9061420.955 7  -6982423.143 3        25.500           3.219
 98  2 12  2 41 29.9950000  0  8 04 10 05 06 08 09 30 24
  22739238.866    10477265.802 5   8181102.851 1         8.750           0.438
  19841849.343   -23880930.558 6 -11140056.067 3        19.000           2.688
  18792175.780   -21593551.765 7 -16650934.345 3        24.500           2.688
  21738350.679   -12322724.962 5  -1151220.153 1        10.000           0.625
  21320572.819    -9164516.799 5  -6969177.599 1        10.250           0.719
  22949438.679     7718313.867 4   6040868.311 1         7.000           0.344
  19732076.960   -24105708.434 7 -18476094.698 2        23.000           2.344
  19564108.796    -9034800.408 7  -6961679.851 3        25.750           3.094
 98  2 12  2 41 59.9950000  0  8 04 10 05 06 08 09 30 24
  22751579.976    10542109.677 5   8231630.560 1         8.500           0.469
  19827173.749   -23958046.543 6 -11200146.419 3        18.750           2.719
  18789500.874   -21607615.142 7 -16661892.818 3        24.500           2.656
  21719628.429   -12421104.723 5  -1227879.663 1        10.000           0.656
  21328286.608    -9123991.033 5  -6937599.100 1        10.000           0.719
  22960262.710     7775162.740 5   6085166.111 1         7.750           0.375
  19714705.460   -24197002.694 7 -18547233.072 2        23.000           2.375
  19569220.835    -9007931.988 7  -6940743.418 3        26.000           3.188
 98  2 12  2 42 29.9950000  0  8 04 10 05 06 08 09 30 24
  22763915.522    10606951.147 5   8282156.386 1         8.500           0.531
  19812599.444   -24034641.597 6 -11259830.856 3        19.000           2.719
  18786928.593   -21621122.101 7 -16672417.724 3        24.750           2.688
  21700910.976   -12519450.804 5  -1304512.915 1         9.750           0.688
  21336055.937    -9083158.775 5  -6905781.788 1        10.000           0.719
  22971064.382     7831951.797 5   6129417.315 1         7.750           0.344
  19697413.788   -24287864.836 7 -18618034.729 2        23.000           2.438
  19574378.421    -8980831.010 7  -6919625.754 3        25.500           3.156
 98  2 12  2 42 59.9950000  0  8 04 10 05 06 08 09 30 24
  22776255.663    10671786.778 5   8332677.668 1         8.500           0.375
  19798122.968   -24110715.977 6 -11319109.572 3        19.500           2.688
  18784464.116   -21634072.805 7 -16682509.184 3        24.750           2.656
  21682207.499   -12617754.204 5  -1381112.903 1        10.000           0.719
  21343887.624    -9042012.790 5  -6873720.001 1        10.250           0.688
  22981865.780     7888697.914 5   6173635.070 1         8.250           0.344
  19680204.702   -24378300.401 7 -18688503.987 2        22.750           2.406
  19579583.866    -8953474.513 7  -6898308.996 3        25.500           3.094
 98  2 12  2 43 29.9940000  0  8 04 10 05 06 08 09 30 24
  22788590.072    10736603.868 5   8383184.496 1         8.750           0.438
  19783743.354   -24186270.141 6 -11377982.928 3        19.000           2.813
  18782105.088   -21646473.267 7 -16692171.884 3        24.750           2.656
  21663510.768   -12716022.701 5  -1457685.705 1        10.500           0.656
  21351776.291    -9000567.128 5  -6841424.705 1        10.250           0.750
  22992658.166     7945414.116 5   6217829.499 1         8.000           0.313
  19663078.150   -24468304.808 7 -18758637.275 2        22.500           2.375
  19584838.775    -8925858.941 7  -6876790.358 3        25.750           3.125
 98  2 12  2 43 59.9940000  0  8 04 10 05 06 08 09 30 24
  22800920.268    10801393.744 5   8433670.125 1         8.500           0.406
  19769466.127   -24261308.209 6 -11436454.118 3        19.000           2.781
  18779848.650   -21658331.006 7 -16701411.681 3        24.750           2.656
  21644810.674   -12814275.635 5  -1534246.376 1        10.500           0.813
  21359714.393    -8958838.245 5  -6808908.699 1        10.500           0.688
  23003446.502     8002098.928 5   6261999.497 1         7.750           0.313
  19646027.596   -24557900.119 7 -18828451.792 2        22.500           2.281
  19590138.729    -8898002.125 7  -6855083.734 3        25.500           3.188
 98  2 12  2 44 29.9940000  0  8 04 10 05 06 08 09 30 24
  22813243.330    10866151.000 5   8484130.335 1         9.000           0.500
  19755285.533   -24335814.853 6 -11494511.217 3        19.500           2.781
  18777697.885   -21669640.072 7 -16710223.942 3        24.750           2.625
  21626115.885   -12912507.859 5  -1610790.919 1        10.750           0.688
  21367708.565    -8916827.211 5  -6776172.834 1        10.500           0.719
  23014222.127     8058739.040 4   6306134.642 1         7.250           0.219
  19629061.424   -24647068.630 7 -18897933.733 3        22.750           2.500
  19595485.486    -8869905.566 7  -6833190.302 3        25.500           3.094
 98  2 12  2 44 59.9940000  0  8 04 10 05 06 08 09 30 24
  22825557.893    10930868.709 5   8534559.736 1         8.500           0.438
  19741211.041   -24409792.756 6 -11552156.309 3        19.750           2.813
  18775645.502   -21680414.497 7 -16718619.599 3        25.000           2.656
  21607425.604   -13010735.194 5  -1687331.647 1        11.000           0.594
  21375757.752    -8874534.325 5  -6743217.353 1        10.250           0.750
  23024989.322     8115314.268 4   6350219.227 1         6.750           0.344
  19612177.525   -24735783.631 7 -18967062.292 2        22.750           2.344
  19600879.322    -8841567.317 7  -6811108.545 3        25.000           3.125
 98  2 12  2 45 29.9940000  0  8 04 10 05 06 08 09 30 24
  22837867.260    10995557.294 5   8584966.415 1         8.500           0.438
  19727233.869   -24483231.690 6 -11609381.431 3        19.750           2.719
  18773695.135   -21690662.420 7 -16726605.002 3        25.000           2.813
  21588733.307   -13108961.945 5  -1763871.930 1        11.000           0.625
  21383854.619    -8831975.689 5  -6710054.803 1        10.250           0.594
  23035738.807     8171804.113 4   6394237.291 1         7.000           0.281
  19595386.025   -24824031.736 7 -19035827.036 2        23.000           2.438
  19606314.322    -8813008.623 7  -6788855.003 3        25.250           3.250
 98  2 12  2 45 59.9940000  0  8 04 10 05 06 08 09 30 24
  22850176.010    11060234.301 5   8635364.100 1         8.500           0.438
  19713364.096   -24556116.689 6 -11666174.926 3        19.750           2.750
  18771846.268   -21700381.983 7 -16734178.684 3        25.000           2.625
  21570047.057   -13207165.074 5  -1840393.803 1        10.750           0.750
  21392003.229    -8789145.473 5  -6676680.619 1        10.250           0.625
  23046468.705     8228191.312 4   6438175.341 1         6.500           0.375
  19578684.690   -24911790.943 7 -19104210.810 2        23.000           2.438
  19611791.674    -8784225.308 7  -6766426.438 3        24.750           3.281
 98  2 12  2 46 29.9940000  0  8 04 10 05 06 08 09 30 24
  22862480.729    11124907.018 5   8685758.435 1         8.250           0.500
  19699602.213   -24628452.239 7 -11722540.257 3        20.000           2.813
  18770099.065   -21709567.515 7 -16741336.244 3        24.750           2.813
  21551365.190   -13305337.111 5  -1916891.455 1        11.000           0.688
  21400209.916    -8746033.788 5  -6643087.113 1         9.750           0.625
  23057182.268     8284487.524 3   6482042.467 1         6.000           0.313
  19562079.729   -24999037.444 7 -19172195.080 3        23.000           2.594
  19617312.236    -8755209.929 7  -6743817.050 3        24.500           3.250
 98  2 12  2 46 59.9940000  0  8 04 10 05 06 08 09 30 24
  22874787.627    11189578.453 5   8736151.752 1         8.500           0.438
  19685939.221   -24700238.099 7 -11778477.264 3        20.000           2.813
  18768451.463   -21718227.673 7 -16748084.423 3        25.000           2.750
  21532686.611   -13403481.069 5  -1993367.218 1        10.750           0.750
  21408465.674    -8702650.498 5  -6609281.972 1        10.000           0.688
  23067878.072     8340705.588 4   6525848.751 1         6.750           0.438
  19545573.830   -25085789.570 7 -19239794.126 2        23.500           2.438
  19622874.619    -8725967.416 7  -6721030.661 3        24.250           3.469
 98  2 12  2 47 29.9940000  0  8 04 10 05 06 08 09 30 24
  22887091.283    11254241.027 5   8786538.181 1         8.000           0.500
  19672382.346   -24771479.388 7 -11833989.931 3        20.250           2.750
  18766903.791   -21726357.404 7 -16754419.282 3        24.750           2.719
  21514020.104   -13501585.311 5  -2069812.039 1        11.250           0.813
  21416771.260    -8659007.073 5  -6575274.114 1        10.000           0.719
  23078563.627     8396850.638 4   6569598.114 1         6.750           0.375
  19529155.807   -25172070.456 7 -19307025.975 3        23.000           2.500
  19628482.854    -8696508.161 7  -6698075.392 3        24.250           3.344
 98  2 12  2 47 59.9940000  0  8 04 10 05 06 08 09 30 24
  22899395.775    11318887.406 5   8836911.985 1         8.000           0.438
  19658927.963   -24842183.901 7 -11889084.330 3        20.250           2.813
  18765460.705   -21733940.734 7 -16760328.380 3        25.000           2.813
  21495359.072   -13599653.845 5  -2146229.038 1        11.500           0.875
  21425127.424    -8615096.097 5  -6541057.778 1        10.250           0.688
  23089237.924     8452947.013 4   6613309.581 1         6.750           0.406
  19512826.549   -25257874.226 7 -19373886.037 3        23.000           2.563
  19634133.182    -8666819.163 7  -6674941.102 3        24.250           3.344
 98  2 12  2 48 29.9940000  0  8 04 10 05 06 08 09 30 24
  22911691.174    11383509.920 5   8887267.197 1         8.000           0.531
  19645578.221   -24912341.163 7 -11943752.301 3        20.500           2.719
  18764122.502   -21740975.240 7 -16765809.813 3        24.750           2.719
  21476697.096   -13697709.277 5  -2222635.819 1        11.750           0.906
  21433531.244    -8570928.032 5  -6506641.113 1        10.250           0.656
  23099903.885     8508998.049 4   6656985.695 1         6.750           0.438
  19496586.268   -25343217.021 7 -19440386.906 3        23.000           2.594
  19639825.994    -8636905.143 7  -6651631.468 3        23.750           3.375
 98  2 12  2 48 59.9940000  0  8 04 10 05 06 08 09 30 24
  22923984.377    11448100.483 5   8937597.500 1         8.000           0.406
  19632333.658   -24981947.490 7 -11997990.971 3        20.500           2.719
  18762886.197   -21747467.373 7 -16770868.624 3        24.750           2.781
  21458040.674   -13795762.863 5  -2299041.174 1        11.500           0.875
  21441984.150    -8526509.671 5  -6472029.418 1        10.250           0.656
  23110553.471     8564973.418 4   6700602.868 1         6.250           0.406
  19480429.846   -25428114.565 7 -19506540.827 3        23.000           2.625
  19645556.424    -8606777.640 7  -6628155.487 3        23.750           3.375
 98  2 12  2 49 29.9940000  0  8 04 10 05 06 08 09 30 24
  22936269.666    11512652.121 4   8987897.485 1         7.250           0.313
  19619192.471   -25051000.798 7 -12051798.726 3        20.500           2.781
  18761757.088   -21753407.084 7 -16775496.975 3        25.000           2.844
  21439382.861   -13893808.229 5  -2375440.116 1        11.500           0.813
  21450487.760    -8481833.069 5  -6437216.510 1        10.250           0.625
  23121189.041     8620857.566 4   6744148.947 1         6.500           0.344
  19464362.861   -25512549.857 7 -19572334.545 3        23.000           2.500
  19651329.775    -8576441.687 7  -6604517.077 3        24.000           3.406
 98  2 12  2 49 59.9940000  0  8 04 10 05 06 08 09 30 24
  22948543.315    11577164.083 5   9038166.546 1         8.000           0.500
  19606162.463   -25119480.566 7 -12105159.554 3        20.750           2.813
  18760730.783   -21758796.959 7 -16779696.880 3        24.750           2.875
  21420726.627   -13991848.266 5  -2451834.910 1        11.750           0.844
  21459035.588    -8436894.783 5  -6402199.688 1        10.250           0.594
  23131807.424     8676643.144 3   6787618.192 1         5.500           0.250
  19448384.869   -25596516.242 7 -19637762.881 3        23.000           2.563
  19657142.447    -8545897.815 7  -6580716.653 3        24.000           3.375
 98  2 12  2 50 29.9940000  0  8 04 10 05 06 08 09 30 24
  22960811.432    11641627.100 4   9088397.460 1         7.250           0.469
  19593237.596   -25187383.928 7 -12158071.250 3        20.500           2.750
  18759809.393   -21763644.000 7 -16783473.800 3        25.000           2.969
  21402072.127   -14089870.758 6  -2528216.030 1        12.000           0.906
  21467637.127    -8391705.119 5  -6366986.982 1        10.000           0.625
  23142396.416     8732305.364 3   6830991.309 1         5.250           0.219
  19432495.307   -25680022.865 7 -19702832.970 3        23.250           2.625
  19662991.236    -8515160.084 7  -6556765.168 3        24.000           3.406
 98  2 12  2 50 59.9940000  0  8 04 10 05 06 08 09 30 24
  22973068.064    11706033.154 4   9138583.987 1         7.250           0.406
  19580421.541   -25254730.619 7 -12210549.166 3        20.750           2.781
  18758990.205   -21767945.752 7 -16786825.818 3        24.750           2.938
  21383426.799   -14187861.909 6  -2604572.739 1        12.000           0.781
  21476284.190    -8346262.467 5  -6331577.152 1         9.750           0.531
  23152962.611     8787839.845 3   6874264.965 1         5.500           0.313
  19416693.088   -25763061.486 7 -19767538.377 3        23.250           2.625
  19668877.041    -8484228.809 7  -6532662.869 3        24.000           3.281
 98  2 12  2 51 29.9940000  0  8 04 10 05 06 08 09 30 24
  22985311.010    11770392.141 4   9188733.838 1         7.000           0.469
  19567712.572   -25321525.851 7 -12262597.378 3        21.000           2.750
  18758278.791   -21771695.900 7 -16789748.015 3        24.750           2.938
  21364787.963   -14285805.049 5  -2680892.034 1        11.750           0.813
  21484978.846    -8300568.211 5  -6295971.277 1         9.750           0.531
  23163510.900     8843260.490 3   6917449.875 1         5.750           0.313
  19400981.541   -25845625.134 7 -19831873.671 3        23.000           2.625
  19674802.791    -8453095.350 7  -6508403.021 3        23.750           3.313
 98  2 12  2 51 59.9940000  0  8 04 10 05 06 08 09 30 24
  22997550.518    11834703.383 4   9238846.490 1         7.250           0.438
  19555105.955   -25387781.219 7 -12314224.918 3        21.250           2.781
  18757665.268   -21774905.208 7 -16792248.782 3        24.500           2.969
  21346156.674   -14383707.720 6  -2757179.786 1        12.250           0.938
  21493722.494    -8254629.780 5  -6260175.112 1         9.750           0.500
  23174037.291     8898562.711 3   6960542.473 1         5.250           0.344
  19385359.510   -25927716.151 7 -19895840.687 3        23.500           2.594
  19680766.111    -8421751.078 7  -6483978.910 3        23.250           3.281
 98  2 12  2 52 29.9940000  0  8 04 10 05 06 08 09 30 24
  23009778.002    11898973.128 4   9288926.810 1         7.250           0.406
  19542597.619   -25453503.909 7 -12365437.379 3        21.250           2.688
  18757155.440   -21777573.392 7 -16794327.893 3        24.500           3.000
  21327534.807   -14481564.801 6  -2833432.012 1        12.250           0.906
  21502511.541    -8208438.204 5  -6224181.666 1         9.500           0.625
  23184536.439     8953740.092 3   7003537.794 1         5.750           0.375
  19369831.666   -26009321.300 7 -19959429.107 3        23.750           2.594
  19686773.877    -8390191.254 7  -6459386.831 3        23.250           3.188
 98  2 12  2 52 59.9940000  0  8 04 10 05 06 08 09 30 24
  23022005.971    11963202.507 4   9338975.654 1         7.250           0.281
  19530192.018   -25518688.534 7 -12416230.571 3        20.750           2.719
  18756751.346   -21779702.599 7 -16795987.019 3        24.500           3.031
  21308921.033   -14579380.957 6  -2909652.350 1        12.500           0.875
  21511349.377    -8161992.631 5  -6187990.321 1         9.500           0.563
  23195010.072     9008795.284 3   7046437.961 1         5.500           0.500
  19354397.963   -26090429.734 7 -20022630.474 3        23.750           2.594
  19692820.088    -8358420.746 7  -6434630.586 3        23.750           3.250
 98  2 12  2 53 29.9940000  0  8 04 10 05 06 08 09 30 24
  23034222.729    12027399.812 5   9388999.540 1         7.750           0.313
  19517897.729   -25583311.578 7 -12466586.170 3        21.000           2.688
  18756449.119   -21781300.409 7 -16797232.075 3        24.250           3.000
  21290316.385   -14677162.636 6  -2985845.829 1        12.500           0.906
  21520238.846    -8115287.692 5  -6151596.867 1         9.500           0.500
  23205465.963     9063732.738 3   7089246.368 1         5.250           0.438
  19339057.190   -26171032.735 7 -20085438.000 3        23.750           2.625
  19698903.408    -8326441.549 7  -6409711.725 3        23.750           3.188
 98  2 12  2 53 59.9940000  0  8 04 10 05 06 08 09 30 24
  23046431.260    12091555.626 5   9438991.081 1         8.000           0.406
  19505709.018   -25647348.788 7 -12516485.270 3        21.000           2.688
  18756244.307   -21782368.715 7 -16798064.524 3        24.000           3.094
  21271712.494   -14774914.750 6  -3062016.276 1        12.250           0.906
  21529172.924    -8068324.144 5  -6115001.913 1         9.250           0.531
  23215897.111     9118550.107 3   7131961.197 1         5.500           0.406
  19323819.877   -26251123.225 7 -20147846.166 3        23.500           2.594
  19705028.236    -8294256.380 7  -6384632.368 3        24.000           3.188
 98  2 12  2 54 29.9940000  0  8 04 10 05 06 08 09 30 24
  23058628.674    12155662.983 5   9488944.871 1         8.250           0.313
  19493637.760   -25710795.029 7 -12565923.883 3        21.000           2.750
  18756142.666   -21782910.590 7                        24.000
  21253117.354   -14872642.060 6  -3138167.389 1        12.500           0.938
  21538158.135    -8021125.689 5  -6078223.939 1         9.250           0.438
  23226311.658     9173259.133 3   7174591.493 1         5.000           0.375
  19308669.924   -26330712.975 7 -20209864.139 3        23.750           2.750
  19711190.330    -8261886.615 7  -6359409.176 3        24.250           3.094
 98  2 12  2 54 59.9940000  0  8 04 10 05 06 08 17 30 24
  23070822.338    12219737.840 5   9538873.334 1         7.750           0.344
  19481676.205   -25773642.347 7 -12614895.798 3        21.250           2.719
  18756140.760   -21782915.402 7                        24.000
  21234524.846   -14970347.538 6  -3214301.489 1        12.500           0.938
  21547180.479    -7973700.855 5  -6041269.571 1         9.500           0.500
  23334615.768          -0.50513                         5.000
  19293625.658   -26409789.265 7 -20271482.024 3        23.500           2.719
  19717382.885    -8229330.199 7  -6334040.536 3        24.250           3.031
 98  2 12  2 55 29.9940000  0  8 04 10 05 06 08 17 30 24
  23083012.502    12283787.082 5   9588781.826 1         8.000           0.250
  19469832.908   -25835896.320 7 -12663405.370 3        21.250           2.688
  18756240.455   -21782380.611 7                        24.000
  21215935.861   -15068027.555 6  -3290415.735 1        12.500           0.906
  21556246.682    -7926055.017 5  -6004142.975 1         9.250           0.469
  23311242.244     -122834.909 2                         4.250
  19278674.197   -26488356.357 7 -20332703.130 3        23.750           2.719
  19723614.627    -8196584.153 7  -6308524.123 3        24.500           2.969
 98  2 12  2 55 59.9940000  0  8 04 10 05 06 08 17 30 24
  23095191.596    12347811.021 5   9638670.619 1         7.750           0.344
  19458094.330   -25897568.766 7 -12711461.798 3        21.250           2.719
  18756450.611   -21781298.506 7 -16797230.626 3        24.000           3.188
  21197352.158   -15165675.902 6  -3366505.309 1        12.250           0.906
  21565350.775    -7878217.751 5  -5966867.196 1         9.250           0.500
  23287894.799     -245529.718 2        -0.01411         4.250           0.219
  19263818.190   -26566422.052 7 -20393533.532 3        23.500           2.719
  19729880.260    -8163652.031 7  -6282862.721 3        24.750           2.969
 98  2 12  2 56 29.9940000  0  7 04 10 05 06 08 30 24
  23107369.760    12411806.247 5   9688537.014 1         8.000           0.375
  19446464.010   -25958681.084 7 -12759081.767 3        21.250           2.625
  18756755.190   -21779670.545 7 -16795962.093 3        24.000           3.156
  21178773.189   -15263312.620 6  -3442585.832 1        12.250           1.031
  21574485.690    -7830207.878 5  -5929456.913 1         9.250           0.438
  19249059.908   -26643992.094 7 -20453977.707 3        23.750           2.781
  19736184.330    -8130538.793 7  -6257060.197 3        24.750           3.000
 98  2 12  2 56 59.9940000  0  7 04 10 05 06 08 30 24
  23119544.010    12475774.372 5   9738382.313 1         7.750           0.250
  19434944.580   -26019235.274 7 -12806266.831 3        21.250           2.781
  18757172.877   -21777495.457 7 -16794267.226 3        24.250           3.219
  21160197.283   -15360937.229 6  -3518656.917 1        12.250           1.031
  21583656.846    -7782012.984 5  -5891902.463 1         9.250           0.531
  19234391.057   -26721058.156 7 -20514029.177 3        23.500           2.844
  19742521.369    -8097236.037 7  -6231109.995 3        24.750           3.031
 98  2 12  2 57 29.9940000  0  7 04 10 05 06 08 30 24
  23131707.236    12539704.727 5   9788198.178 1         7.500           0.438
  19423527.893   -26079227.711 7 -12853014.162 3        21.250           2.719
  18757691.549   -21774770.544 7 -16792143.928 3        23.750           3.188
  21141622.838   -15458533.257 6  -3594705.733 1        12.250           0.969
  21592863.135    -7733640.079 5  -5854209.291 1         8.750           0.469
  19219821.010   -26797628.684 7 -20573694.514 3        23.750           2.844
  19748895.393    -8063737.227 7  -6205007.020 3        25.000           2.875
 98  2 12  2 57 59.9940000  0  7 04 10 05 06 08 30 24
  23143863.291    12603587.564 5   9837977.021 1         7.500           0.313
  19412216.580   -26138655.781 7 -12899321.726 3        21.000           2.781
  18758313.822   -21771503.158 7 -16789597.919 3        23.500           3.219
  21123056.604   -15556101.708 6  -3670733.057 1        12.500           1.031
  21602102.135    -7685080.950 5  -5816371.024 1         8.500           0.500
  19205348.033   -26873689.784 7 -20632962.900 3        23.250           2.906
  19755311.525    -8030026.221 7  -6178738.693 3        25.000           2.875
 98  2 12  2 58 29.9940000  0  7 04 10 05 06 08 30 24
  23156011.775    12667411.537 4   9887709.969 1         7.000           0.281
  19401015.635   -26197515.062 7 -12945186.080 3        21.250           2.813
  18759035.768   -21767705.775 7 -16786638.926 3        23.750           3.156
  21104496.135   -15653641.415 6  -3746737.969 1        12.500           1.094
  21611383.119    -7636312.819 5  -5778369.909 1         8.500           0.531
  19190974.502   -26949229.613 7 -20691825.100 3        23.250           2.875
  19761762.283    -7996116.803 7  -6152315.773 3        25.500           2.844
 98  2 12  2 58 59.9940000  0  7 04 10 05 06 08 30 24
  23168143.580    12731161.533 4   9937385.301 1         7.000           0.313
  19389923.439   -26255806.752 7 -12990608.152 3        21.000           2.844
  18759856.182   -21763396.148 7 -16783280.788 3        23.250           3.281
  21085944.807   -15751136.739 6  -3822708.326 1        12.250           1.063
  21620704.260    -7587331.282 5  -5740202.515 1         8.500           0.375
  19176696.908   -27024250.642 7 -20750283.034 3        23.000           2.938
  19768250.541    -7962024.519 7  -6125750.344 3        25.250           2.875
 98  2 12  2 59 29.9940000  0  7 10 05 06 08 17 30 24
  19378941.557   -26313515.845 7 -13035576.261 3        21.000           2.844
  18760771.986   -21758575.150 7 -16779524.174 3        23.250           3.281
  21067401.846   -15848579.869 6  -3898637.988 1        12.500           1.094
  21630066.393    -7538130.368 5  -5701864.159 1         8.000           0.438
  23125195.354          -0.12313                         5.000
  19162522.190   -27098743.788 7 -20808329.633 3        23.500           2.938
  19774773.736    -7927748.321 7  -6099041.617 3        25.250           2.875
 98  2 12  2 59 59.9940000  0  7 10 05 06 08 17 30 24
  19368073.518   -26370640.702 7 -13080089.115 3        20.750           2.875
  18761785.158   -21753260.075 7 -16775382.565 3        23.000           3.281
  21048862.166   -15945993.024 6  -3974544.308 1        12.500           1.063
  21639470.057    -7488703.240 5  -5663349.534 1         8.250           0.500
  23102075.010     -121513.752 3                         5.750
  19148444.861   -27172715.715 7 -20865970.093 3        23.250           2.875
  19781325.533    -7893311.874 7  -6072208.021 3        24.750           2.813
 98  2 12  3  0 29.9940000  0  7 10 05 06 08 17 30 24
  19357317.072   -26427160.047 7 -13124130.145 3        21.000           2.906
  18762896.268   -21747427.076 7 -16770837.376 3        23.250           3.125
  21030334.252   -16043367.409 6  -4050420.415 1        13.000           1.125
  21648919.924    -7439053.741 5  -5624661.633 1         8.250           0.500
  23078980.432     -242857.062 3        -0.30211         5.750           0.500
  19134467.822   -27246163.060 7 -20923201.782 3        23.250           2.875
  19787907.924    -7858720.847 7  -6045253.969 3        25.250           2.719
 98  2 12  3  0 59.9940000  0  7 10 05 06 08 17 30 24
  19346678.455   -26483072.032 7 -13167697.903 3        21.000           2.844
  18764103.705   -21741069.819 7 -16765883.676 3        23.000           3.250
  21011811.760   -16140698.369 6  -4126262.696 1        13.250           1.063
  21658409.174    -7389204.750 5  -5585818.274 1         8.500           0.531
  23055921.049     -364039.381 3    -94427.993 1         6.000           0.313
  19120590.643   -27319088.032 7 -20980026.431 3        23.250           2.906
  19794521.143    -7823965.977 7  -6018172.251 3        24.750           2.688
 98  2 12  3  1 29.9940000  0  7 10 05 06 08 17 30 24
  19336148.400   -26538379.658 7 -13210794.735 3        20.500           2.875
  18765414.252   -21734182.485 7 -16760516.932 3        23.000           3.219
  20993295.768   -16237997.904 6  -4202080.482 1        13.250           1.094
  21667926.752    -7339177.461 5  -5546835.981 1         8.500           0.531
  23032892.541     -485056.912 4   -188727.402 1         7.000           0.344
  19106813.002   -27391495.068 7 -21036447.495 3        23.250           2.938
  19801169.783    -7789054.509 7  -5990968.508 3        24.250           2.656
 98  2 12  3  1 59.9940000  0  7 10 05 06 08 17 30 24
  19325738.424   -26593098.008 7 -13253432.392 3        21.000           2.875
  18766826.807   -21726760.843 7 -16754733.841 3        23.000           3.125
  20974786.236   -16335273.249 6  -4277879.420 1        13.250           1.094
  21677472.549    -7288995.079 5  -5507732.858 1         8.000           0.500
  23009894.072     -605911.568 4   -282899.772 1         6.250           0.344
  19093132.244   -27463389.626 7 -21092469.225 3        23.500           2.781
  19807836.330    -7754000.296 7  -5963653.535 3        24.750           2.563
 98  2 12  3  2 29.9940000  0  7 10 05 06 08 17 30 24
  19315438.799   -26647229.921 7 -13295613.079 3        21.000           2.781
  18768343.033   -21718792.492 7 -16748524.749 3        23.000           3.156
  20956283.252   -16432510.677 6  -4353648.804 1        13.250           1.125
  21687048.822    -7238671.735 5  -5468519.889 1         8.000           0.563
  22986924.947     -726616.416 4   -376955.461 1         6.500           0.156
  19079549.150   -27534765.285 7 -21148086.613 3        23.500           2.844
  19814533.768    -7718802.936 7  -5936227.013 3        24.750           2.656
 98  2 12  3  2 59.9940000  0  7 10 05 06 08 17 30 24
  19305249.893   -26700778.782 7 -13337339.451 3        20.750           2.875
  18769962.791   -21710274.621 7 -16741887.457 3        23.000           3.125
  20937785.315   -16529707.811 6  -4429386.810 1        13.250           1.125
  21696657.025    -7188196.228 5  -5429188.355 1         8.000           0.500
  22963982.479     -847176.595 4   -470898.434 1         6.250           0.188
  19066065.244   -27605616.260 7 -21203295.163 3        23.750           2.844
  19821259.924    -7683463.270 7  -5908689.598 3        25.000           2.656
 98  2 12  3  3 29.9940000  0  7 10 05 06 08 17 30 24
  19295169.346   -26753747.735 7 -13378613.940 3        21.000           2.844
  18771689.893   -21701208.557 7 -16734822.998 3        22.750           3.188
  20919290.588   -16626891.052 6  -4505113.964 1        13.500           1.094
  21706293.119    -7137562.117 5  -5389733.220 1         8.000           0.469
  22941067.479     -967594.435 4   -564730.441 1         6.250           0.375
  19052684.580   -27675941.535 7 -21258094.072 3        24.250           2.875
  19828011.440    -7647978.928 7  -5881039.466 3        24.750           2.719
 98  2 12  3  3 59.9940000  0  7 10 05 06 08 17 30 24
  19285200.229   -26806126.435 7 -13419428.490 3        21.000           2.938
  18773520.775   -21691590.827 7 -16727328.676 3        23.000           3.063
  20900804.221   -16724047.589 6  -4580820.349 1        13.500           1.125
  21715962.205    -7086753.005 5  -5350141.729 1         8.000           0.469
  22918180.213    -1087861.952 4   -658445.354 1         6.750           0.250
  19039405.057   -27745735.148 7 -21312478.701 3        24.000           2.906
  19834793.479    -7612332.518 7  -5853263.031 3        24.500           2.688
 98  2 12  3  4 29.9940000  0  7 10 05 06 08 17 30 24
  19275345.807   -26857922.074 7 -13459788.711 3        20.500           2.813
  18775452.643   -21681432.162 7 -16719412.846 3        23.000           3.094
  20882320.174   -16821178.898 6  -4656507.050 1        13.250           1.156
  21725663.283    -7035772.575 5  -5310416.727 1         8.000           0.406
  22895323.697    -1207983.921 4   -752046.843 1         7.250           0.250
  19026221.822   -27815001.880 7 -21366452.780 3        24.000           2.875
  19841608.354    -7576522.462 7  -5825359.096 3        24.000           2.750
 98  2 12  3  4 59.9940000  0  7 10 05 06 08 17 30 24
  19265599.994   -26909135.603 7 -13499695.341 3        21.000           2.844
  18777486.416   -21670752.676 7 -16711091.176 3        23.250           3.125
  20863840.322   -16918289.496 6  -4732177.622 1        13.250           1.156
  21735393.424    -6984626.829 5  -5270562.901 1         8.000           0.500
  22872494.807    -1327950.714 5   -845527.450 1         7.500           0.219
  19013142.330   -27883735.667 7 -21420011.574 3        24.500           2.969
  19848456.322    -7540536.322 7  -5797317.944 3        24.250           2.844
 98  2 12  3  5 29.9940000  0  7 10 05 06 08 17 30 24
  19255963.947   -26959765.458 7 -13539147.159 3        21.000           2.906
  18779614.861   -21659571.235 7 -16702378.379 3        22.750           3.125
  20845367.385   -17015375.933 6  -4807829.367 1        13.250           1.125
  21745156.197    -6933326.726 5  -5230588.826 1         8.250           0.500
  22849696.815    -1447749.026 5   -938876.794 1         7.500           0.188
  19000166.010   -27951934.159 7 -21473153.257 3        24.250           3.000
  19855337.533    -7504369.249 7  -5769135.803 3        24.250           2.688
 98  2 12  3  5 59.9940000  0  7 10 05 06 08 17 30 24
  19246444.033   -27009809.213 7 -13578142.276 3        21.250           2.813
  18781836.049   -21647895.118 7 -16693280.115 3        22.750           3.031
  20826901.877   -17112410.535 6  -4883440.729 1        13.500           1.313
  21754946.385    -6881879.778 5  -5190500.296 1         8.500           0.406
  22826933.502    -1567378.804 4  -1032094.785 1         7.000           0.188
  18987286.893   -28019597.363 7 -21525877.827 3        24.250           2.906
  19862250.690    -7468041.717 7  -5740828.639 3        24.000           2.781
 98  2 12  3  6 29.9940000  0  7 10 05 06 08 17 30 24
  19237031.158   -27059252.382 7 -13616669.401 3        20.750           2.813
  18784152.221   -21635718.514 7 -16683791.862 3        22.750           3.125
  20808450.244   -17209379.320 6  -4959000.789 1        13.750           1.281
  21764765.408    -6830287.711 5  -5150298.686 1         8.250           0.438
  22804199.260    -1686844.261 4  -1125184.716 1         6.500           0.156
  18974519.986   -28086698.666 7 -21578164.553 3        24.250           2.906
  19869194.822    -7431553.482 7  -5712396.245 3        24.000           2.844
 98  2 12  3  6 59.9940000  0  7 10 05 06 08 17 30 24
  19227741.025   -27108088.173 7 -13654723.245 3        20.750           2.938
  18786560.775   -21623059.259 7 -16673927.518 3        23.000           3.125
  20790006.229   -17306293.660 6  -5034518.451 1        13.500           1.188
  21774610.846    -6778557.322 5  -5109989.306 1         8.250           0.500
  22781496.846    -1806152.285 3  -1218151.963 1         6.000           0.281
  18961855.994   -28153240.726 7 -21630015.512 3        24.250           2.938
  19876167.596    -7394920.668 7  -5683851.191 3        23.500           2.813
 98  2 12  3  7 29.9940000  0  7 10 05 06 08 17 30 24
  19218560.174   -27156320.318 7 -13692306.725 3        21.250           2.844
  18789063.815   -21609909.170 7 -16663680.706 3        23.500           3.125
  20771573.924   -17403153.938 6  -5109993.974 1        13.750           1.250
  21784476.580    -6726701.141 5  -5069581.907 1         8.250           0.344
  22758818.963    -1925315.035 4  -1311006.032 1         6.250           0.250
  18949299.135   -28219235.038 7 -21681439.650 3        24.250           2.969
  19883161.010    -7358170.155 7  -5655214.425 3        23.750           2.781
 98  2 12  3  7 59.9940000  0  7 10 05 06 08 17 30 24
  19209500.557   -27203944.099 7 -13729416.153 3        21.000           2.875
  18791663.525   -21596247.118 7 -16653034.964 3        23.000           3.094
  20753154.354   -17499952.446 6  -5185421.372 1        14.000           1.313
  21794365.619    -6674720.999 5  -5029077.912 1         8.250           0.531
  22736171.424    -2044330.292 3  -1403745.152 1         5.250           0.156
  18936844.580   -28284677.459 7 -21732433.750 3        24.250           2.938
  19890177.541    -7321298.908 7  -5626483.585 3        23.500           2.750
 98  2 12  3  8 29.9940000  0  7 10 05 06 08 17 30 24
  19200553.377   -27250957.374 7 -13766049.851 3        21.000           2.969
  18794362.065   -21582063.783 7 -16641983.029 3        23.000           3.031
  20734745.713   -17596696.436 6  -5260806.259 1        14.000           1.219
  21804287.768    -6622601.004 5  -4988464.941 1         8.250           0.563
  22713557.088    -2163178.722 3  -1496354.240 1         5.750           0.281
  18924496.760   -28349570.935 7 -21783000.100 3        24.250           2.906
  19897221.924    -7284277.555 7  -5597635.777 3        23.500           2.750
 98  2 12  3  8 59.9930000  0  7 10 05 06 08 17 30 24
  19191720.255   -27297370.171 7 -13802215.653 3        21.250           2.875
  18797161.380   -21567356.212 7 -16630522.588 3        23.000           3.031
  20716342.177   -17693401.198 6  -5336160.601 1        14.000           1.281
  21814231.864    -6570342.836 5  -4947744.287 1         7.750           0.438
  22690971.888    -2281846.454 3  -1588822.584 1         6.000           0.188
  18912251.380   -28413929.185 7 -21833149.387 3        24.250           2.969
  19904294.364    -7247108.220 7  -5568672.658 3        23.000           2.688
 98  2 12  3  9 29.9930000  0  7 10 05 06 08 17 30 24
  19183002.864   -27343193.490 7 -13837922.123 3        21.250           2.813
  18800063.317   -21552099.960 7 -16618634.613 3        22.750           3.000
  20697947.044   -17790059.448 6  -5411478.716 1        13.750           1.156
  21824205.833    -6517937.517 5  -4906908.998 1         7.750           0.406
  22668426.786    -2400331.301 3  -1681148.427 1         6.000           0.094
  18900103.896   -28477750.879 7 -21882880.567 3        24.500           3.000
  19911400.599    -7209773.626 7  -5539580.761 3        23.250           2.594
 98  2 12  3  9 59.9930000  0  7 10 05 06 08 17 30 24
  19174392.544   -27388434.132 7 -13873174.552 3        21.250           2.906
  18803070.802   -21536299.403 7 -16606322.500 3        23.250           2.969
  20679562.138   -17886678.123 6  -5486765.940 1        14.250           1.156
  21834205.700    -6465378.489 5  -4865953.925 1         7.750           0.313
  22645916.060    -2518619.852 3  -1773321.255 1         6.000           0.188
  18888062.278   -28541030.639 7 -21932189.472 3        24.500           2.938
  19918535.325    -7172271.469 7  -5510358.306 3        22.750           2.594
 98  2 12  3 10 29.9930000  0  7 10 05 06 08 17 30 24
  19165892.028   -27433091.073 7 -13907972.157 3        21.500           2.938
  18806176.880   -21519969.207 7 -16593597.692 3        22.500           3.063
  20661185.716   -17983259.217 6  -5562023.936 1        14.250           1.219
  21844236.005    -6412661.060 5  -4824875.403 1         7.750           0.438
  22623449.349    -2636708.920 4  -1865338.643 1         6.500           0.250
  18876126.450   -28603765.907 7 -21981074.103 3        24.500           2.938
  19925701.997    -7134617.473 7  -5481017.531 3        22.750           2.625
 98  2 12  3 10 59.9930000  0  7 10 05 06 08 17 30 24
  19157506.544   -27477166.947 7 -13942316.981 3        21.500           2.875
  18809386.435   -21503114.535 7 -16580464.191 3        22.750           3.000
  20642813.411   -18079796.982 6  -5637248.144 1        14.250           1.281
  21854293.638    -6359814.787 4  -4783696.511 1         7.250           0.438
  22601010.833    -2754604.732 4  -1957205.503 1         6.750           0.250
  18864293.731   -28665943.140 7 -22029523.894 3        24.500           3.031
  19932888.544    -7096838.893 7  -5451579.673 3        23.000           2.531
 98  2 12  3 11 29.9930000  0  7 10 05 06 08 17 30 24
  19149233.685   -27520648.594 7 -13976198.771 3        21.250           2.938
  18812690.747   -21485745.762 7 -16566930.096 3        22.750           3.063
  20624454.638   -18176275.345 6  -5712426.068 1        14.500           1.188
  21864372.372    -6306845.400 5  -4742421.672 1         7.500           0.500
  22578615.302    -2872301.516 4  -2048917.236 1         6.750           0.313
  18852567.466   -28727552.038 7 -22077530.824 3        24.500           2.969
  19940102.888    -7058937.380 7  -5422046.026 3        22.750           2.625
 98  2 12  3 11 59.9930000  0  7 10 05 06 08 17 30 24
  19141073.825   -27563525.594 7 -14009609.410 3        21.500           2.844
  18816086.864   -21467896.780 7 -16553021.812 3        23.000           3.156
  20606105.935   -18272703.794 6  -5787565.120 1        14.500           1.281
  21874474.200    -6253768.742 5  -4701063.251 1         7.500           0.406
  22556250.302    -2989811.868 4  -2140483.699 1         6.500           0.250
  18840952.021   -28788602.576 7 -22125102.682 3        24.500           2.781
  19947333.653    -7020929.611 7  -5392429.584 3        23.000           2.594
 98  2 12  3 12 29.9930000  0  7 10 05 06 08 17 30 24
  19133029.396   -27605786.847 7 -14042540.237 3        20.750           2.969
  18819574.310   -21449573.882 7 -16538744.245 3        22.750           3.125
  20587763.692   -18369083.136 6  -5862665.896 1        14.500           1.313
  21884587.849    -6200596.962 4  -4659630.718 1         7.250           0.469
  22533923.466    -3107149.512 4  -2231915.544 1         6.750           0.375
  18829441.747   -28849092.274 7 -22172237.510 3        24.250           2.969
  19954589.044    -6982808.834 7  -5362725.081 3        23.250           2.531
 98  2 12  3 12 59.9930000  0  7 10 05 06 08 17 30 24
  19125105.950   -27647433.410 7 -14074992.095 3        21.500           2.844
  18823152.739   -21430772.900 7 -16524094.139 3        22.750           3.125
  20569431.567   -18465425.145 6  -5937737.574 1        14.750           1.375
  21894725.185    -6147338.629 4  -4618130.729 1         7.000           0.375
  22511621.138    -3224335.565 4  -2323229.362 1         6.500           0.250
  18818038.981   -28909015.951 7 -22218931.289 3        24.250           2.906
  19961863.099    -6944571.500 7  -5332929.755 3        23.000           2.500
 98  2 12  3 13 29.9930000  0  7 10 05 06 08 17 30 24
  19117299.310   -27688454.844 7 -14106956.833 3        21.500           2.844
  18826820.575   -21411492.444 7 -16509070.416 3        22.250           3.188
  20551104.919   -18561733.696 6  -6012783.177 1        14.750           1.281
  21904880.825    -6093976.297 4  -4576549.691 1         7.000           0.469
  22489351.583    -3341365.797 4  -2414421.711 1         6.250           0.250
  18806744.153   -28968367.760 7 -22265179.452 3        24.500           2.969
  19969168.224    -6906201.042 7  -5303030.701 2        23.000           2.469
 98  2 12  3 13 59.9930000  0  7 10 05 06 08 17 30 24
  19109609.810   -27728860.350 7 -14138441.636 3        21.500           2.844
  18830581.177   -21391728.795 7 -16493670.180 3        22.500           3.156
  20532781.755   -18658023.868 6  -6087814.478 1        15.000           1.313
  21915052.966    -6040513.915 4  -4534890.705 1         7.000           0.375
  22467110.388    -3458247.107 3  -2505497.910 1         6.000           0.313
  18795558.278   -29027147.728 7 -22310982.026 3        24.250           3.063
  19976494.067    -6867703.560 7  -5273032.661 3        23.500           2.500
 98  2 12  3 14 29.9930000  0  7 10 05 06 08 17 30 24
  19102033.544   -27768665.514 7 -14169458.632 3        21.500           2.875
  18834438.521   -21371463.139 7 -16477878.776 3        22.250           3.188
  20514460.833   -18754295.426 6  -6162831.261 1        15.000           1.344
  21925242.239    -5986956.760 4  -4493157.874 1         6.500           0.313
  22444897.403    -3574981.628 3  -2596459.888 1         6.000           0.250
  18784483.528   -29085349.219 7 -22356333.845 3        24.250           3.094
  19983843.067    -6829080.994 7  -5242937.155 3        23.000           2.500
 98  2 12  3 14 59.9930000  0  7 10 05 06 08 17 30 24
  19094576.364   -27807866.682 7 -14200004.991 3        22.000           2.938
  18838391.130   -21350692.255 7 -16461693.684 3        22.500           3.063
  20496152.114   -18850517.402 6  -6237809.421 1        15.500           1.250
  21935455.333    -5933298.680 4  -4451346.393 1         6.250           0.313
  22422715.075    -3691548.352 4  -2687290.997 1         6.500           0.375
  18773519.255   -29142967.832 7 -22401231.451 3        24.250           3.063
  19991214.669    -6790331.671 7  -5212742.875 2        23.000           2.375
 98  2 12  3 15 29.9930000  0  7 10 05 06 08 17 30 24
  19087233.263   -27846455.660 7 -14230074.306 3        21.750           2.844
  18842438.731   -21329415.194 7 -16445114.169 3        22.250           3.094
  20477853.896   -18946668.735 6  -6312732.510 1        15.250           1.188
  21945684.505    -5879549.440 4  -4409463.877 1         6.750           0.344
  22400571.310    -3807927.060 4  -2777975.695 1         6.500           0.313
  18762662.763   -29200019.747 7 -22445687.505 3        24.250           2.906
  19998616.997    -6751444.260 7  -5182440.993 2        22.750           2.375
 98  2 12  3 15 59.9930000  0  7 10 05 06 08 17 30 24
  19080004.442   -27884442.092 7 -14259674.111 3        22.000           2.906
  18846585.450   -21307627.248 7 -16428136.562 3        22.250           3.125
  20459572.942   -19042737.445 6  -6387591.255 1        15.500           1.281
  21955928.841    -5825717.032 4  -4367516.549 1         7.000           0.375
  22378457.169    -3924123.866 4  -2868518.558 1         6.250           0.188
  18751910.021   -29256522.025 7 -22489715.265 3        24.000           2.844
  20006041.005    -6712430.115 7  -5152040.371 2        23.000           2.406
 98  2 12  3 16 29.9930000  0  7 10 05 06 08 17 30 24
  19072890.075   -27921824.308 7 -14288803.099 3        21.750           2.969
  18850827.083   -21285336.463 7 -16410767.134 3        22.000           3.250
  20441309.044   -19138711.673 6  -6462376.363 1        15.750           1.250
  21966182.817    -5771814.336 4  -4325514.479 1         7.000           0.313
  22356379.161    -4040134.567 4  -2958916.449 1         6.250           0.313
  18741260.614   -29312486.988 7 -22533324.318 3        24.250           2.938
  20013487.739    -6673295.638 7  -5121545.971 2        22.500           2.219
 98  2 12  3 16 59.9930000  0  7 10 05 06 08 17 30 24
  19065891.958   -27958596.902 7 -14317457.053 3        22.000           2.875
  18855160.458   -21262561.176 7 -16393020.169 3        21.750           3.313
  20423061.653   -19234600.712 6  -6537095.076 1        15.750           1.219
  21976452.255    -5717857.392 4  -4283470.130 1         7.000           0.344
  22334342.271    -4155945.189 4  -3049158.402 1         6.500           0.188
  18730710.989   -29367924.642 7 -22576522.502 3        24.750           2.875
  20020956.200    -6634053.032 7  -5090967.317 2        22.250           2.281
 98  2 12  3 17 29.9930000  0  7 10 05 06 08 17 30 24
  19059013.294   -27994752.486 7 -14345630.224 3        22.000           2.906
  18859590.583   -21239287.200 7 -16374884.627 3        22.000           3.375
  20404829.630   -19330414.433 6  -6611755.106 1        15.750           1.344
  21986730.981    -5663850.180 4  -4241386.597 1         6.500           0.313
  22312344.700    -4271553.539 4  -3139242.758 1         6.750           0.219
  18720265.130   -29422818.966 7 -22619297.303 3        24.750           2.875
  20028440.911    -6594713.763 7  -5060313.341 2        21.750           2.188
 98  2 12  3 17 59.9930000  0  7 10 05 06 08 17 30 24
  19052248.981   -28030304.696 7 -14373333.233 3        21.750           2.969
  18864112.583   -21215528.209 7 -16356371.126 3        22.250           3.188
  20386607.372   -19426168.968 6  -6686369.035 1        16.000           1.313
  21997013.755    -5609800.536 4  -4199269.976 1         6.250           0.281
  22290382.052    -4386968.475 4  -3229176.396 1         6.750           0.250
  18709923.567   -29477154.562 7 -22661636.732 3        24.500           2.906
  20035940.560    -6555296.772 7  -5029598.807 2        21.750           2.125
 98  2 12  3 18 29.9930000  0  7 10 05 06 08 17 30 24
  19045602.521   -28065239.232 7 -14400554.942 3        22.000           2.938
  18868726.521   -21191283.141 7 -16337478.891 3        22.250           3.313
  20368397.755   -19521868.462 6  -6760940.040 1        16.250           1.469
  22007311.614    -5555710.229 4  -4157121.691 1         6.500           0.281
  22268456.403    -4502189.893 4  -3318959.238 1         7.250           0.250
  18699694.786   -29530905.994 7 -22703520.963 3        24.500           2.844
  20043457.130    -6515793.157 7  -4998816.770 2        22.000           2.063
 98  2 12  3 18 59.9930000  0  7 10 05 06 08 17 30 24
  19039070.481   -28099557.838 7 -14427296.697 3        22.000           2.875
  18873432.114   -21166538.076 7 -16318197.036 3        22.000           3.313
  20350196.005   -19617513.010 6  -6835468.256 1        16.250           1.281
  22017612.466    -5501567.347 4  -4114932.448 1         6.250           0.344
  22246561.903    -4617240.083 4  -3408608.655 1         6.500           0.406
  18689582.841   -29584055.754 7 -22744936.375 3        24.250           2.938
  20050994.942    -6476200.876 7  -4967965.640 2        22.500           1.969
 98  2 12  3 19 29.9930000  0  7 10 05 06 08 17 30 24
  19032653.208   -28133265.950 7 -14453562.749 3        21.750           2.906
  18878242.224   -21141277.952 7 -16298513.835 3        22.000           3.313
  20332007.521   -19713096.490 6  -6909948.885 1        16.500           1.406
  22027927.185    -5447357.848 4  -4072691.306 1         6.750           0.313
  22224698.286    -4732145.825 5  -3498145.505 1         7.500           0.344
  18679584.864   -29636598.406 7 -22785878.704 3        24.000           2.938
  20058545.786    -6436507.793 7  -4937035.962 2        22.000           2.063
 98  2 12  3 19 59.9930000  0  7 10 05 06 08 17 30 24
  19026357.310   -28166362.311 7 -14479352.112 3        21.750           2.844
  18883145.106   -21115510.259 7 -16278435.127 3        22.000           3.313
  20313830.146   -19808622.579 6  -6984384.781 1        16.500           1.375
  22038257.903    -5393068.687 4  -4030388.082 1         6.500           0.250
  22202857.060    -4846907.859 4  -3587570.399 1         7.000           0.344
  18669699.372   -29688539.294 7 -22826352.130 3        23.500           2.906
  20066121.419    -6396694.609 7  -4906012.696 2        22.250           2.000
 98  2 12  3 20 29.9930000  0  7 10 05 06 08 17 30 24
  19020176.544   -28198848.835 7 -14504666.279 3        21.750           2.938
  18888145.716   -21089237.331 7 -16257962.732 3        22.000           3.344
  20295660.505   -19904097.189 6  -7058780.578 1        16.500           1.313
  22048606.411    -5338690.618 4  -3988015.571 1         6.500           0.156
  22181045.669    -4961529.227 4  -3676885.657 1         6.750           0.344
  18659926.669   -29739887.613 7 -22866363.811 3        24.000           2.844
  20073718.177    -6356769.062 7  -4874901.878 2        21.750           2.000
 98  2 12  3 20 59.9930000  0  7 10 05 06 08 17 30 24
  19014109.310   -28230723.291 7 -14529503.507 3        21.750           2.969
  18893239.896   -21062456.737 7 -16237094.747 3        21.750           3.375
  20277505.294   -19999506.711 6  -7133125.644 2        17.000           1.531
  22058971.708    -5284213.672 4  -3945566.007 1         6.500           0.188
  22159267.685    -5075975.048 4  -3766064.157 1         7.250           0.375
  18650271.622   -29790641.283 7 -22905912.124 3        24.000           2.938
  20081340.294    -6316726.356 7  -4843699.770 2        21.250           1.969
 98  2 12  3 21 29.9930000  0  7 10 05 06 08 17 30 24
  19008157.708   -28261990.536 7 -14553867.590 3        21.750           2.938
  18898429.474   -21035190.428 7 -16215848.297 3        22.250           3.281
  20259359.474   -20094863.010 6  -7207429.246 1        17.500           1.438
  22069354.606    -5229656.809 4  -3903054.164 1         6.750           0.281
  22137528.192    -5190219.207 5  -3855085.491 1         7.750           0.250
  18640723.974   -29840815.990 7 -22945009.305 3        23.500           2.813
  20088980.521    -6276576.223 7  -4812413.950 2        21.500           2.000
 98  2 12  3 21 59.9930000  0  7 10 05 06 08 17 30 24
  19002327.294   -28292648.189 7 -14577756.660 3        22.000           2.875
  18903708.114   -21007455.769 7 -16194236.890 3        22.250           3.344
  20241224.177   -20190169.523 6  -7281694.058 2        17.250           1.500
  22079748.364    -5175021.081 4  -3860480.892 1         6.750           0.219
  22115830.630    -5304231.148 5  -3943925.945 1         7.750           0.375
  18631284.755   -29890403.780 7 -22983649.145 3        23.250           2.844
  20096637.739    -6236325.648 7  -4781049.864 2        21.250           1.969
 98  2 12  3 22 29.9930000  0  7 10 05 06 08 17 30 24
  18996607.138   -28322705.488 7 -14601177.924 3        22.250           2.813
  18909075.341   -20979251.578 7 -16172259.611 3        22.500           3.281
  20223100.224   -20285408.057 6  -7355905.886 2        17.500           1.531
  22090160.099    -5120321.438 4  -3817857.803 1         6.500           0.281
  22094178.896    -5418005.944 5  -4032581.546 1         7.750           0.375
  18621960.622   -29939404.939 7 -23021831.875 3        23.500           2.750
  20104315.794    -6195987.821 7  -4749617.792 2        21.000           2.000
 98  2 12  3 22 59.9930000  0  7 10 05 06 08 17 30 24
  18990997.778   -28352169.047 7 -14624136.535 3        22.000           2.781
  18914526.802   -20950592.657 7 -16149928.005 3        22.500           3.281
  20204989.231   -20380581.985 6  -7430067.384 1        18.000           1.469
  22100572.755    -5065591.359 4  -3775211.003 1         6.500           0.281
  22072570.036    -5531567.102 5  -4121070.684 1         7.750           0.375
  18612744.513   -29987844.555 7 -23059577.033 3        23.250           2.750
  20112006.599    -6155584.889 7  -4718134.990 2        20.500           2.031
 98  2 12  3 23 29.9930000  0  7 10 05 06 08 17 30 24
  18985508.185   -28381026.458 7 -14646622.818 3        22.250           2.813
  18920069.044   -20921481.760 7 -16127244.200 3        22.500           3.219
  20186891.958   -20475687.758 6  -7504175.767 2        17.750           1.500
  22110989.950    -5010837.941 3  -3732545.985 1         6.000           0.250
  22050997.989    -5644935.103 5  -4209409.364 1         7.750           0.438
  18603632.849   -30035714.744 7 -23096878.487 3        23.250           2.719
  20119706.513    -6115107.446 7  -4686594.124 2        20.500           2.063
 98  2 12  3 23 59.9930000  0  7 10 05 06 08 17 30 24
  18980132.763   -28409276.289 7 -14668635.667 3        22.750           2.875
  18925692.685   -20891924.688 7 -16104212.731 3        22.500           3.188
  20168807.310   -20570719.210 6  -7578226.249 2        18.000           1.563
  22121421.216    -4956062.625 3  -3689863.929 1         5.500           0.188
  22029459.122    -5758135.569 5  -4297617.434 1         7.750           0.375
  18594632.802   -30083015.498 7 -23133736.224 3        23.250           2.750
  20127421.692    -6074551.338 7  -4654991.961 2        20.750           2.094
 98  2 12  3 24 29.9930000  0  7 10 05 06 08 17 30 24
  18974871.786   -28436916.490 7 -14690173.474 3        22.250           2.844
  18931402.927   -20861915.641 7 -16080829.074 3        22.750           3.219
  20150739.239   -20665670.024 6  -7652213.881 2        17.750           1.688
  22131842.919    -4901285.711 4  -3647180.616 1         6.750           0.281
  22007945.997    -5871191.731 5  -4385713.082 1         7.750           0.438
  18585740.771   -30129749.823 7 -23170152.591 3        22.750           2.656
  20135155.583    -6033914.825 7  -4623327.151 2        20.750           2.094
 98  2 12  3 24 59.9930000  0  7 10 05 06 08 17 30 24
  18969731.864   -28463940.831 7 -14711231.402 3        22.500           2.938
  18937197.513   -20831456.727 7 -16057094.869 3        23.000           3.125
  20132682.442   -20760555.254 6  -7726150.414 2        18.500           1.719
  22142265.060    -4846508.140 4  -3604496.774 1         6.750           0.188
  21986455.560    -5984092.442 5  -4473687.623 1         7.750           0.438
  18576955.130   -30175907.594 7 -23206119.693 3        22.500           2.844
  20142908.286    -5993186.891 7  -4591591.100 2        21.250           2.156
 98  2 12  3 25 29.9930000  0  7 10 05 06 08 17 30 24
  18964700.583   -28490363.412 7 -14731820.417 3        22.250           2.781
  18943080.575   -20800550.651 7 -16033012.225 3        22.750           3.156
  20114638.200   -20855377.247 6  -7800037.667 2        18.250           1.719
  22152692.021    -4791720.668 4  -3561805.261 1         6.750           0.281
  21965005.575    -6096823.365 4  -4561529.869 1         7.250           0.406
  18568286.364   -30221471.596 7 -23241624.118 3        22.500           2.719
  20150678.786    -5952343.459 7  -4559765.050 2        21.250           2.156
 98  2 12  3 25 59.9930000  0  7 10 05 06 08 17 30 24
  18959788.341   -28516189.642 7 -14751944.747 3        22.250           2.906
  18949049.247   -20769181.782 7 -16008568.969 3        22.750           3.125
  20096607.442   -20950131.555 6  -7873872.177 2        18.000           1.656
  22163120.700    -4736909.784 4  -3519095.476 1         7.000           0.375
  21943591.989    -6209361.784 5  -4649222.122 1         7.750           0.344
  18559729.325   -30266432.057 7 -23276658.247 3        22.500           2.750
  20158472.856    -5911392.293 7  -4527855.055 2        21.500           2.219
 98  2 12  3 26 29.9930000  0  7 10 05 06 08 17 30 24
  18954984.278   -28541425.734 7 -14771609.231 3        22.250           2.906
  18955108.739   -20737341.500 7 -15983758.375 3        22.500           3.031
  20078586.349   -21044824.031 6  -7947658.515 2        18.250           1.625
  22173554.091    -4682080.867 4  -3476371.635 1         7.250           0.406
  21922216.661    -6321687.926 5  -4736748.961 1         7.750           0.438
  18551291.458   -30310784.889 7 -23311218.900 3        22.750           2.719
  20166284.192    -5870342.629 7  -4495868.306 2        21.500           2.188
 98  2 12  3 26 59.9930000  0  7 10 05 06 08 17 30 24
  18950294.380   -28566067.672 7 -14790810.736 3        22.250           2.969
  18961256.583   -20705033.384 7 -15958583.235 3        22.500           3.094
  20060580.833   -21139457.534 6  -8021398.911 2        18.500           1.688
  22183998.474    -4627217.694 5  -3433621.138 1         7.750           0.250
  21900880.942    -6433791.424 5  -4824102.252 1         7.500           0.438
  18542964.177   -30354541.879 7 -23345315.264 3        22.500           2.750
  20174111.419    -5829198.792 7  -4463808.174 2        21.250           2.031
 98  2 12  3 27 29.9930000  0  7 10 05 06 08 17 30 24
  18945721.474   -28590109.943 7 -14809544.965 3        22.250           2.969
  18967491.396   -20672259.838 7 -15933045.422 3        22.500           3.063
  20042583.927   -21234031.228 6  -8095092.683 2        18.500           1.781
  22194442.731    -4572326.738 5  -3390848.951 1         7.500           0.250
  21879588.185    -6545691.878 5  -4911297.371 1         7.500           0.438
  18534748.294   -30397703.306 7 -23378947.555 3        22.250           2.750
  20181959.521    -5787973.999 7  -4431684.950 2        21.750           2.094
 98  2 12  3 27 59.9930000  0  7 10 05 06 08 17 30 24
  18941260.466   -28613542.603 7 -14827804.177 3        22.000           2.906
  18973816.935   -20639026.747 7 -15907149.523 3        22.750           3.063
  20024597.099   -21328549.261 6  -8168743.083 2        18.750           1.781
  22204892.513    -4517416.748 5  -3348061.972 1         7.500           0.250
  21858331.458    -6657400.059 5  -4998342.673 1         7.750           0.406
  18526649.560   -30440275.308 7 -23412120.545 3        22.500           2.750
  20189813.731    -5746694.282 7  -4399518.937 2        21.250           2.000
 98  2 12  3 28 29.9930000  0  7 10 05 06 08 17 30 24
  18936921.591   -28636356.523 7 -14845581.248 3        21.750           2.750
  18980227.333   -20605337.320 7 -15880898.041 3        23.000           3.125
  20006624.106   -21423000.907 6  -8242341.756 2        18.500           1.781
  22215340.833    -4462489.297 5  -3305261.365 1         7.500           0.188
  21837110.435    -6768919.428 5  -5085240.831 1         7.750           0.469
  18518657.216   -30482263.487 7 -23444838.613 3        23.000           2.844
  20197681.458    -5705350.342 7  -4367302.883 2        21.000           1.938
 98  2 12  3 28 59.9930000  0  7 10 05 06 08 17 30 24
  18932696.521   -28658547.850 7 -14862873.187 3        22.250           2.875
  18986721.669   -20571208.990 7 -15854304.552 3        23.000           3.031
  19988663.981   -21517375.000 6  -8315879.995 2        18.750           1.781
  22225797.567    -4407544.324 4  -3262447.123 1         7.000           0.219
  21815922.060    -6880267.000 5  -5172005.147 1         7.750           0.469
  18510783.669   -30523657.386 7 -23477093.612 3        22.750           2.781
  20205560.224    -5663947.698 7  -4335041.073 2        20.500           1.938
 98  2 12  3 29 29.9930000  0  7 10 05 06 08 17 30 24
  18928592.552   -28680126.958 7 -14879688.073 3        22.500           2.938
  18993302.278   -20536633.107 7 -15827362.315 3        22.750           3.000
  19970723.919   -21611656.547 6  -8389346.130 2        19.000           1.844
  22236255.013    -4352593.179 4  -3219628.047 1         7.000           0.313
  21794763.458    -6991446.263 5  -5258638.329 1         7.750           0.438
  18503021.591   -30564429.283 7 -23508863.929 3        23.000           2.813
  20213448.505    -5622481.905 7  -4302730.068 2        20.750           2.031
 98  2 12  3 29 59.9930000  0  7 10 05 06 08 17 30 24
  18924598.497   -28701101.058 7 -14896031.521 3        22.500           2.781
  18999968.044   -20501606.695 7 -15800069.020 3        23.000           2.938
  19952801.505   -21705837.111 6  -8462733.571 2        18.500           1.844
  22246714.200    -4297640.388 4  -3176807.695 1         7.000           0.313
  21773642.239    -7102451.589 5  -5345135.973 1         8.000           0.438
  18495381.341   -30604591.017 7 -23540158.794 3        23.000           2.688
  20221351.646    -5580954.782 7  -4270371.270 2        20.500           2.031
 98  2 12  3 30 29.9930000  0  7 10 05 06 08 17 30 24
  18920724.606   -28721470.097 7 -14911903.491 3        22.000           2.750
  19006719.286   -20466127.702 7 -15772423.060 3        22.750           2.969
  19934899.513   -21799910.828 6  -8536037.759 2        18.500           1.875
  22257168.052    -4242694.089 4  -3133992.409 1         6.500           0.219
  21752549.677    -7213272.140 5  -5431489.621 1         8.000           0.313
  18487855.497   -30644132.501 7 -23570970.355 3        23.250           2.719
  20229266.591    -5539354.406 7  -4237955.392 2        20.250           2.063
 98  2 12  3 30 59.9930000  0  7 10 05 06 08 17 30 24
  18916963.130   -28741230.383 7 -14927301.111 3        22.250           2.750
  19013558.856   -20430179.567 7 -15744411.536 3        22.750           2.906
  19917016.356   -21893886.910 6  -8609265.860 2        19.000           1.875
  22267620.669    -4187762.092 4  -3091188.261 1         6.250           0.438
  21731500.325    -7323900.146 5  -5517693.221 1         8.250           0.438
  18480451.825   -30683044.228 7 -23601291.187 3        23.500           2.781
  20237199.200    -5497675.486 7  -4205478.322 2        20.250           1.969
 98  2 12  3 31 29.9930000  0  7 10 05 06 08 17 30 24
  18913317.122   -28760389.630 7 -14942230.391 3        22.000           2.844
  19020490.122   -20393757.791 7 -15716030.940 3        22.500           2.969
  19899149.599   -21987783.057 6  -8682431.673 2        19.000           1.813
  22278067.458    -4132865.784 4  -3048411.923 1         6.500           0.313
  21710487.450    -7434319.745 5  -5603734.416 1         8.000           0.406
  18473161.200   -30721355.512 7 -23631144.151 3        23.500           2.750
  20245146.317    -5455917.486 7  -4172939.615 2        20.500           1.875
 98  2 12  3 31 59.9930000  0  7 10 05 06 08 17 30 24
  18909788.872   -28778936.201 7 -14956682.258 3        22.500           2.844
  19027505.646   -20356885.815 7 -15687299.545 3        22.000           2.938
  19881291.302   -22081621.371 6  -8755552.432 2        18.500           1.875
  22288503.388    -4078014.256 4  -3005670.475 1         6.250           0.469
  21689520.856    -7544515.641 5  -5689601.343 1         8.000           0.375
  18465980.200   -30759093.513 7 -23660550.386 3        23.750           2.781
  20253104.224    -5414096.156 7  -4140351.564 2        20.500           1.875
 98  2 12  3 32 29.9930000  0  7 10 05 06 08 17 30 24
  18906374.755   -28796873.031 7 -14970659.000 3        22.500           2.844
  19034607.028   -20319563.213 7 -15658217.010 3        22.000           2.875
  19863447.208   -22175399.638 6  -8828626.396 2        19.000           1.969
  22298932.458    -4023199.879 3  -2962958.016 1         5.750           0.344
  21668593.849    -7654471.369 5  -5775281.110 1         8.250           0.406
  18458909.021   -30796249.725 7 -23689503.291 3        23.750           2.781
  20261077.364    -5372203.065 7  -4107707.590 2        20.750           1.813
 98  2 12  3 32 59.9930000  0  7 10 05 06 08 17 30 24
  18903078.231   -28814199.222 7 -14984159.920 3        22.250           2.875
  19041797.981   -20281790.453 7 -15628783.709 3        21.750           2.875
  19845614.224   -22269107.268 6  -8901645.313 2        18.750           1.906
  22309361.177    -3968415.153 3  -2920268.632 1         5.750           0.406
  21647717.364    -7764183.790 5  -5860771.281 1         8.000           0.531
  18451946.755   -30832832.950 7 -23718009.712 3        23.500           2.844
  20269060.903    -5330245.199 7  -4075013.143 2        20.500           1.750
 98  2 12  3 33 29.9930000  0  7 10 05 06 08 17 30 24
  18899894.919   -28830920.712 7 -14997189.648 3        22.500           2.844
  19049062.356   -20243602.068 7 -15599026.554 3        22.000           3.000
  19827797.271   -22362733.343 6  -8974600.691 2        18.750           1.969
  22319778.630    -3913659.893 3  -2877602.213 1         5.500           0.406
  21626880.771    -7873663.275 5  -5946079.949 1         8.250           0.375
  18445095.372   -30868847.965 7 -23746073.373 3        23.750           2.719
  20277055.599    -5288239.984 7  -4042281.805 2        20.500           1.813
 98  2 12  3 33 59.9930000  0  7 10 05 06 08 17 30 24
  18896828.497   -28847040.972 7 -15009750.884 3        22.750           2.906
  19056411.271   -20204987.979 7 -15568937.658 3        21.750           2.938
  19810001.833   -22456251.864 6  -9047472.260 2        18.750           2.031
  22330198.435    -3858913.291 3  -2834942.536 1         5.250           0.313
  21606092.231    -7982920.020 5  -6031215.061 1         8.250           0.500
  18438353.036   -30904273.156 7 -23773677.428 3        24.000           2.844
  20285056.841    -5246183.680 7  -4009510.659 2        20.000           1.781
 98  2 12  3 34 29.9920000  0  7 10 05 06 08 17 30 24
  18893870.219   -28862583.284 7 -15021861.770 3        22.750           2.813
  19063843.258   -20165937.719 7 -15538508.908 3        22.000           2.813
  19792231.117   -22549645.004 6  -9120246.123 2        19.000           1.938
  22340611.406    -3804174.346 2  -2792288.822 1         4.750           0.281
  21585341.430    -8091974.049 5  -6116192.209 1         8.250           0.438
  18431726.172   -30939097.053 7 -23800812.941 3        23.750           2.813
  20293070.016    -5204076.316 6  -3976699.730 2        19.750           1.813
 98  2 12  3 34 59.9920000  0  7 10 05 06 08 17 30 24
  18891024.086   -28877539.404 7 -15033515.882 3        22.500           2.906
  19071355.273   -20126456.661 7 -15507744.455 3        21.750           2.813
  19774480.992   -22642917.006 6  -9192925.597 2        19.250           1.938
  22351036.359    -3749445.799 2  -2749643.221 1         4.750           0.344
  21564622.250    -8200851.661 5  -6201031.870 1         8.250           0.438
  18425213.344   -30973323.641 7 -23827483.019 3        23.750           2.750
  20301093.938    -5161916.958 7  -3943848.276 2        20.000           1.750
 98  2 12  3 35 29.9920000  0  7 10 05 06 08 17 30 24
  18888289.711   -28891908.826 7 -15044712.831 3        22.750           2.875
  19078953.539   -20086536.012 7 -15476637.476 3        21.750           2.875
  19756754.359   -22736071.508 6  -9265513.506 2        19.500           1.938
  22361443.406    -3694731.267 2  -2707008.556 1         4.250           0.406
  21543937.164    -8309547.975 5  -6285730.279 1         8.750           0.500
  18418814.430   -31006942.347 7 -23853679.431 3        23.500           2.875
  20309126.156    -5119695.413 6  -3910948.373 2        19.750           1.719
 98  2 12  3 35 59.9920000  0  7 10 05 06 08 17 30 24
  18885667.234   -28905690.814 7 -15055452.030 3        23.000           2.719
  19086633.117   -20046167.821 7 -15445181.755 3        21.750           2.906
  19739047.305   -22829123.387 6  -9338021.462 2        19.500           1.969
  22371849.469    -3640033.142 2  -2664386.642 1         4.000           0.375
  21523290.031    -8418055.676 5  -6370281.694 1         8.750           0.563
  18412533.992   -31039954.792 7 -23879403.420 3        23.500           2.750
  20317175.523    -5077408.145 6  -3877997.251 2        19.000           1.625
 98  2 12  3 36 29.9920000  0  7 10 05 06 08 17 30 24
  18883158.992   -28918874.178 7 -15065724.778 3        23.000           2.781
  19094395.516   -20005381.435 7 -15413400.171 3        21.500           2.906
  19721353.391   -22922106.702 6  -9410475.976 2        19.750           2.000
  22382251.719    -3585375.025 2  -2621795.944 1         4.250           0.313
  21502676.281    -8526385.382 5  -6454694.422 1         9.000           0.406
  18406364.266   -31072374.821 7 -23904665.790 3        23.750           2.875
  20325229.703    -5035066.481 6  -3845003.746 2        19.000           1.563
 98  2 12  3 36 59.9920000  0  6 10 05 06 17 30 24
  18880765.727   -28931452.478 7 -15075526.040 3        23.000           2.813
  19102230.930   -19964203.753 7 -15381313.677 3        21.250           2.844
  19703668.469   -23015041.121 6  -9482892.399 2        19.500           1.938
  21482093.844    -8634537.548 5  -6538968.818 1         9.000           0.500
  18400307.070   -31104210.935 7 -23929473.166 3        23.750           2.781
  20333295.578    -4992679.485 6  -3811974.912 2        19.000           1.594
 98  2 12  3 37 29.9920000  0  7 10 05 06 08 17 30 24
  18878486.469   -28943429.411 7 -15084858.703 3        22.750           2.938
  19110142.828   -19922626.555 7 -15348915.877 3        21.750           2.844
  19685993.648   -23107918.660 6  -9555264.503 2        19.750           2.031
  22403023.969          -0.06912                         4.250
  21461550.727    -8742493.353 5  -6623090.224 1         9.500           0.500
  18394363.656   -31135435.771 7 -23953804.212 3        23.250           2.813
  20341376.211    -4950231.370 6  -3778898.463 2        18.750           1.625
 98  2 12  3 37 59.9920000  0  7 10 05 06 08 17 30 24
  18876322.438   -28954803.286 7 -15093721.461 3        22.750           2.875
  19118132.149   -19880651.419 7 -15316207.994 3        21.500           2.719
  19668335.727   -23200719.366 7  -9627576.725 2        20.000           2.125
  22413396.188       54518.844 2        -0.25311         4.500           0.188
  21441043.516    -8850257.617 5  -6707062.361 1         9.750           0.469
  18388540.078   -31166039.258 7 -23977651.103 3        23.500           2.813
  20349462.828    -4907722.823 6  -3745774.916 2        18.500           1.719
 98  2 12  3 38 29.9920000  0  7 10 05 06 08 17 30 24
  18874270.883   -28965583.008 7 -15102121.243 3        23.000           2.906
  19126196.359   -19838277.317 7                        21.750
  19650694.727   -23293420.361 7  -9699811.266 2        20.250           2.031
  22423763.266      108984.769 3     42440.704 1         5.000           0.281
  21420573.828    -8957840.105 5  -6790892.839 1         9.750           0.531
  18382836.320   -31196015.209 7 -24001009.001 3        22.750           2.844
  20357562.711    -4865153.460 6                        18.500
 98  2 12  3 38 59.9920000  0  7 10 05 06 08 17 30 24
  18872329.016   -28975793.179 7 -15110077.205 3        23.250           2.844
  19134336.024   -19795497.595 7 -15249854.391 3        21.500           2.781
  19633078.195   -23385995.999 7  -9771948.113 2        20.250           2.094
  22434117.859      163395.809 2     84838.898 1         4.750           0.219
  21400136.383    -9065231.543 5  -6874574.432 1         9.500           0.438
  18377252.109   -31225361.553 7 -24023876.292 3        23.000           2.875
  20365672.977    -4822532.641 6  -3679392.956 1        18.000           1.438
 98  2 12  3 39 29.9920000  0  7 10 05 06 08 17 30 24
  18870493.477   -28985428.972 7 -15117585.613 3        23.000           2.938
  19142554.945   -19752303.198 7 -15216196.438 3        21.750           2.719
  19615488.031   -23478424.853 7  -9843970.589 2        20.250           2.063
  22444464.820      217754.244 3    127196.101 1         5.000           0.281
  21379736.438    -9172430.747 5  -6958106.258 1         9.250           0.594
  18371789.250   -31254077.188 7 -24046252.124 3        23.000           2.844
  20373795.016    -4779863.355 6  -3646144.168 1        17.750           1.438
 98  2 12  3 39 59.9920000  0  7 10 05 06 08 17 30 24
  18868773.320   -28994473.235 7 -15124633.087 3        22.750           2.875
  19150854.969   -19708687.659 7 -15182210.319 3        21.250           2.625
  19597928.477   -23570703.550 7  -9915876.057 2        20.500           2.031
  22454792.609      272049.444 3    169504.033 1         5.000           0.219
  21359373.531    -9279430.946 5  -7041483.023 1         9.500           0.500
  18366438.227   -31282180.266 7 -24068150.642 3        22.750           2.813
  20381919.664    -4737166.527 6  -3612873.915 1        17.750           1.313
 98  2 12  3 40 29.9920000  0  7 10 05 06 08 17 30 24
  18867165.414   -29002920.634 7 -15131215.475 3        22.750           2.969
  19159232.719   -19664663.297 7 -15147905.641 3        21.000           2.656
  19580396.117   -23662848.001 7  -9987676.916 2        20.500           2.188
  22465110.250      326274.050 3    211756.984 1         5.750           0.094
  21339056.227    -9386219.964 5  -7124695.224 1         9.750           0.500
  18361207.023   -31309686.748 7 -24089584.277 3        22.750           2.875
  20390047.961    -4694447.413 6  -3579586.291 1        18.250           1.438
 98  2 12  3 40 59.9920000  0  7 10 05 06 08 17 30 24
  18865671.680   -29010766.826 7 -15137329.382 3        23.000           3.000
  19167687.727   -19620231.554 7 -15113283.514 3        21.250           2.656
  19562881.703   -23754877.418 7 -10059388.148 2        20.500           2.125
  22475418.016      380436.150 4    253961.182 1         6.250           0.156
  21318774.656    -9492782.687 5  -7207731.088 1         9.500           0.531
  18356083.477   -31336604.836 7 -24110559.421 3        22.750           2.906
  20398183.406    -4651698.616 6  -3546275.539 1        18.500           1.375
 98  2 12  3 41 29.9920000  0  6 10 05 06 17 30 24
  18864297.149   -29017997.801 7 -15142963.908 3        22.750           2.969
  19176220.992   -19575387.239 7 -15078339.908 3        21.250           2.594
  19545386.688   -23846807.240 7 -10131021.765 2        20.250           2.250
  21298541.156    -9599114.864 5  -7290587.308 1         9.000           0.438
  18351070.258   -31362940.866 7 -24131081.015 3        22.250           2.844
  20406327.828    -4608904.771 6  -3512929.688 1        18.500           1.219
 98  2 12  3 41 59.9920000  0  6 10 05 06 17 30 24
  18863031.414   -29024631.353 7 -15148132.904 3        22.750           3.063
  19184831.125   -19530143.504 7 -15043085.067 3        21.250           2.625
  19527907.781   -23938664.829 7 -10202599.093 2        20.750           2.250
  21278352.891    -9705221.853 5  -7373268.050 1         9.500           0.500
  18346168.781   -31388706.629 7 -24151158.243 3        22.250           2.813
  20414481.906    -4566061.732 6  -3479545.501 1        18.500           1.375
 98  2 12  3 42 29.9920000  0  6 10 05 06 17 30 24
  18861883.688   -29030676.581 7 -15152843.465 3        22.500           3.094
  19193513.766   -19484506.644 7 -15007523.889 3        21.000           2.594
  19510443.133   -24030441.373 7 -10274113.277 2        21.000           2.281
  21258200.492    -9811105.047 5  -7455774.408 1         9.500           0.469
  18341374.617   -31413893.292 7 -24170784.231 3        22.500           2.875
  20422648.719    -4523146.622 6  -3446105.147 1        18.500           1.313
 98  2 12  3 42 59.9920000  0  6 10 05 06 17 30 24
  18860845.008   -29036134.465 7 -15157096.353 3        22.750           3.063
  19202273.969   -19438469.633 7 -14971650.910 3        20.750           2.594
  19492997.594   -24122125.987 7 -10345555.811 2        20.750           2.313
  21238090.195    -9916776.099 5  -7538115.467 1         9.500           0.531
  18336696.453   -31438485.208 7 -24189946.774 3        22.000           3.031
  20430828.172    -4480163.223 6  -3412611.595 1        18.250           1.313
 98  2 12  3 43 29.9920000  0  6 10 05 06 17 30 24
  18859916.781   -29041007.549 7 -15160893.555 3        22.750           3.063
  19211108.445   -19392043.912 7 -14935475.043 3        20.750           2.656
  19475568.797   -24213714.610 7 -10416923.566 2        20.500           2.250
  21218021.164   -10022256.861 5  -7620308.250 1         9.500           0.625
  18332130.586   -31462475.271 7 -24208640.347 3        22.000           2.969
  20439014.922    -4437134.233 6  -3379082.504 1        18.250           1.250
 98  2 12  3 43 59.9920000  0  6 10 05 06 17 30 24
  18859100.773   -29045299.980 7 -15164238.300 3        22.750           3.000
  19220017.016   -19345242.525 7 -14899006.451 3        20.750           2.563
  19458159.391   -24305197.801 7 -10488209.167 2        20.500           2.313
  21197979.531   -10127562.211 5  -7702364.356 1         9.250           0.625
  18327679.625   -31485859.832 7 -24226862.098 3        22.250           2.969
  20447205.883    -4394082.298 6  -3345535.535 1        18.000           1.156
 98  2 12  3 44 29.9920000  0  6 10 05 06 17 30 24
  18858394.797   -29049009.943 7 -15167129.173 3        22.750           2.969
  19228995.680   -19298057.571 7 -14862238.966 2        20.500           2.375
  19440772.664   -24396554.203 7 -10559395.952 2        20.750           2.344
  21177978.328   -10232680.388 5  -7784274.603 1         9.750           0.656
  18323351.180   -31508626.714 7 -24244602.536 3        22.250           2.844
  20455403.313    -4351011.016 6  -3311973.490 1        18.250           1.156
 98  2 12  3 44 59.9920000  0  6 10 05 06 17 30 24
  18857802.883   -29052136.798 7 -15169565.678 3        22.750           3.094
  19238046.109   -19250490.315 7 -14825173.586 3        20.250           2.500
  19423413.305   -24487784.599 7 -10630484.567 2        21.000           2.469
  21158011.492   -10337607.044 5  -7866035.624 1        10.000           0.656
  18319134.406   -31530768.495 7 -24261855.887 3        22.500           2.969
  20463602.570    -4307925.286 6  -3278400.199 1        17.750           1.281
 98  2 12  3 45 29.9920000  0  6 10 05 06 17 30 24
  18857315.000   -29054678.477 7 -15171546.202 3        22.500           2.938
  19247172.016   -19202539.996 7 -14787809.722 3        20.250           2.531
  19406077.273   -24578888.092 7 -10701474.292 2        21.000           2.375
  21138083.711   -10442335.760 5  -7947642.409 1        10.000           0.531
  18315037.664   -31552298.929 7 -24278632.861 3        22.500           2.938
  20471803.797    -4264818.166 6  -3244810.229 1        17.750           1.375
 98  2 12  3 45 59.9920000  0  6 10 05 06 17 30 24
  18856938.781   -29056645.729 7 -15173079.118 3        22.500           2.875
  19256368.828   -19154208.954 7 -14750149.186 2        20.250           2.438
  19388764.492   -24669867.836 7 -10772367.587 2        21.000           2.438
  21118190.984   -10546864.375 5  -8029093.283 1        10.000           0.563
  18311056.281   -31573228.090 7 -24294941.311 3        22.750           2.969
  20480015.336    -4221674.460 6  -3211191.761 1        17.750           1.344
 98  2 12  3 46 29.9920000  0  6 10 05 06 17 30 24
  18856676.844   -29058041.122 7 -15174166.430 3        22.750           2.938
  19265637.234   -19105495.651 7 -14712190.792 2        20.000           2.406
  19371475.086   -24760730.208 7 -10843169.425 3        21.000           2.500
  21098339.711   -10651175.356 5  -8110374.563 1        10.000           0.656
  18307188.289   -31593543.133 7 -24310771.232 3        22.750           3.094
  20488235.148    -4178475.938 6  -3177530.577 1        17.250           1.344
 98  2 12  3 46 59.9920000  0  6 10 05 06 17 30 24
  18856524.070   -29058852.040 7 -15174798.311 3        22.500           2.906
  19274980.914   -19056396.868 7 -14673932.022 2        20.000           2.344
  19354202.414   -24851489.460 7 -10913890.912 2        21.000           2.406
  21078531.109   -10755277.842 5  -8191493.369 1        10.000           0.625
  18303438.055   -31613249.064 7 -24326126.521 3        23.000           3.031
  20496462.945    -4135238.583 6  -3143839.133 1        17.000           1.281
 98  2 12  3 47 29.9920000  0  6 10 05 06 17 30 24
  18856479.227   -29059080.193 7                        23.000
  19284398.250   -19006910.451 7 -14635371.195 2        20.250           2.469
  19336952.109   -24942144.204 7 -10984530.948 3        21.250           2.531
  21058763.734   -10859168.518 5  -8272447.152 1        10.750           0.563
  18299804.648   -31632355.136 7 -24341014.379 3        22.750           3.031
  20504697.805    -4091975.063 6  -3110127.296 1        17.000           1.375
 98  2 12  3 47 59.9920000  0  6 10 05 06 17 30 24
  18856538.328   -29058747.515 7                        22.750
  19293886.922   -18957052.276 7 -14596520.688 2        20.000           2.438
  19319720.602   -25032692.015 7 -11055087.687 3        21.250           2.531
  21039033.313   -10962836.231 5  -8353227.174 1        10.500           0.656
  18296284.219   -31650861.594 7 -24355435.014 3        22.750           3.000
  20512930.219    -4048694.846 6  -3076402.451 1        17.250           1.281
 98  2 12  3 48 29.9920000  0  6 10 05 06 17 30 24
  18856712.336   -29057852.282 7 -15174019.250 3        22.500           2.844
  19303442.938   -18906826.331 7 -14557383.602 2        20.250           2.406
  19302511.500   -25123125.395 7 -11125555.247 3        21.000           2.531
  21019348.000   -11066285.897 5  -8433837.297 1        10.250           0.594
  18292872.703   -31668778.368 7 -24369396.155 3        23.000           3.000
  20521166.984    -4005426.670 6  -3042686.992 1        17.250           1.281
 98  2 12  3 48 59.9920000  0  6 10 05 06 17 30 24
  18856991.297   -29056388.614 7 -15172878.722 3        22.500           2.906
  19313073.774   -18856220.976 7 -14517950.877 2        20.250           2.281
  19285332.281   -25213411.062 7 -11195907.703 3        21.250           2.500
  20999702.734   -11169520.068 5  -8514279.495 1        10.500           0.625
  18289572.523   -31686113.197 7 -24382903.829 3        23.500           3.000
  20529395.695    -3962166.755 6  -3008977.965 1        17.000           1.281
 98  2 12  3 49 29.9920000  0  6 10 05 06 17 30 24
  18857372.492   -29054383.300 7 -15171316.137 3        22.500           2.719
  19322772.219   -18805262.801 7 -14478243.217 2        20.250           2.344
  19268180.274   -25303550.873 7 -11266146.500 3        21.500           2.531
  20980095.914   -11272549.400 5  -8594562.084 1        10.250           0.563
  18286383.492   -31702873.869 7 -24395964.107 3        22.750           2.969
  20537627.578    -3918906.010 6  -2975268.293 1        16.750           1.250
 98  2 12  3 49 59.9920000  0  6 10 05 06 17 30 24
  18857857.547   -29051817.409 7 -15169316.729 3        22.500           2.781
  19332533.164   -18753952.800 7 -14438261.413 2        20.250           2.188
  19251054.313   -25393536.358 7 -11336265.055 2        21.500           2.438
  20960532.250   -11375372.444 5  -8674683.942 1        10.500           0.594
  18283310.117   -31719033.680 7 -24408556.183 3        22.750           2.969
  20545866.399    -3875628.188 6  -2941545.323 1        16.500           1.313
 98  2 12  3 50 29.9920000  0  6 10 05 06 17 30 24
  18858457.227   -29048668.538 7 -15166863.058 3        22.250           2.813
  19342367.047   -18702282.044 7 -14397998.496 2        20.250           2.344
  19233959.703   -25483372.358 7 -11406267.127 3        21.250           2.594
  20941003.555   -11477993.743 5  -8754648.590 1        10.750           0.625
  18280351.938   -31734581.927 7 -24420671.720 3        22.750           3.031
  20554104.391    -3832328.316 6  -2907805.165 1        16.250           1.469
 98  2 12  3 50 59.9920000  0  6 10 05 06 17 30 24
  18859169.250   -29044931.101 7 -15163950.766 3        22.500           2.781
  19352267.789   -18650249.564 7 -14357453.717 2        20.250           2.313
  19216891.094   -25573068.191 7 -11476159.970 3        21.250           2.500
  20921514.852   -11580396.783 5  -8834443.177 1        11.250           0.688
  18277511.570   -31749508.462 7 -24432302.802 3        23.000           3.125
  20562351.969    -3788987.995 6  -2874033.494 1        16.250           1.344
 98  2 12  3 51 29.9920000  0  6 10 05 06 17 30 24
  18859994.188   -29040601.065 7 -15160576.707 3        22.250           2.813
  19362236.539   -18597869.027 7 -14316637.726 2        20.250           2.156
  19199845.875   -25662645.430 7 -11545960.410 3        22.000           2.625
  20902070.578   -11682580.848 5  -8914067.126 1        11.250           0.688
  18274788.969   -31763810.417 7 -24443447.203 3        22.750           3.063
  20570607.891    -3745616.425 6  -2840237.465 1        16.250           1.219
 98  2 12  3 51 59.9920000  0  6 10 05 06 17 30 24
  18860930.938   -29035676.944 7 -15156739.725 3        22.000           2.813
  19372271.852   -18545130.845 7 -14275543.053 2        20.500           2.250
  19182823.859   -25752093.502 7 -11615660.203 3        22.250           2.594
  20882670.750   -11784537.449 5  -8993513.814 1        11.250           0.750
  18272182.633   -31777498.877 7 -24454113.549 3        22.500           3.063
  20578865.391    -3702219.215 6  -2806421.459 1        16.000           1.188
 98  2 12  3 52 29.9920000  0  6 10 05 06 17 30 24
  18861978.203   -29030180.967 7 -15152457.145 3        22.250           2.844
  19382378.094   -18492023.784 7 -14234160.936 2        20.750           2.219
  19165826.930   -25841412.912 7 -11685259.732 2        21.750           2.469
  20863310.852   -11886262.750 5  -9072780.278 1        11.000           0.688
  18269690.953   -31790592.617 7 -24464316.480 3        22.250           3.094
  20587127.414    -3658795.104 6  -2772584.489 1        16.000           1.219
 98  2 12  3 52 59.9920000  0  6 10 05 06 17 30 24
  18863124.867   -29024155.528 7 -15147761.996 3        22.250           2.781
  19392550.344   -18438571.871 7 -14192510.103 2        20.000           2.156
  19148852.094   -25930610.925 7 -11754764.670 3        22.000           2.656
  20843992.180   -11987788.374 5  -9151891.157 1        11.750           0.781
  18267308.891   -31803112.188 7 -24474072.008 3        22.750           3.094
  20595394.172    -3615358.084 6  -2738737.459 1        16.000           1.156
 98  2 12  3 53 29.9920000  0  6 10 05 06 17 30 24
  18864367.727   -29017621.819 7 -15142670.791 3        22.500           2.844
  19402786.563   -18384784.538 7 -14150597.901 2        20.250           2.219
  19131903.688   -26019680.307 7 -11824169.370 3        22.250           2.563
  20824707.352   -12089130.142 5  -9230858.775 1        11.750           0.750
  18265034.367   -31815064.533 7 -24483385.533 3        22.750           3.094
  20603661.570    -3571904.516 6  -2704877.536 1        15.750           1.063
 98  2 12  3 53 59.9920000  0  6 10 05 06 17 30 24
  18865705.914   -29010591.265 7 -15137192.431 3        22.000           2.719
  19413084.992   -18330659.455 7 -14108422.522 2        20.000           2.094
  19114979.359   -26108619.056 7 -11893472.286 3        22.250           2.719
  20805457.344   -12190285.794 5  -9309681.363 1        11.750           0.719
  18262867.336   -31826449.761 7 -24492257.166 3        22.750           3.125
  20611934.555    -3528424.142 6  -2670996.736 1        15.750           1.063
 98  2 12  3 54 29.9920000  0  6 10 05 06 17 30 24
  18867137.422   -29003060.581 7 -15131324.366 3        22.000           2.875
  19423448.773   -18276205.335 6 -14065990.759 2        19.750           2.094
  19098079.938   -26197424.532 7 -11962671.354 3        22.250           2.563
  20786243.406   -12291259.133 5  -9388361.890 1        11.500           0.656
  18260813.156   -31837253.996 7 -24500676.070 3        22.250           3.094
  20620215.805    -3484918.313 6  -2637096.091 1        15.750           1.000
 98  2 12  3 54 59.9920000  0  6 10 05 06 17 30 24
  18868672.789   -28994996.487 7 -15125040.656 3        22.750           2.781
  19433873.352   -18221416.906 6 -14023298.492 2        19.750           2.156
  19081210.008   -26286076.777 7 -12031751.018 3        22.250           2.688
  20767066.367   -12392031.429 5  -9466885.761 1        11.750           0.719
  18258871.656   -31847457.982 7 -24508627.235 3        22.250           3.063
  20628504.195    -3441369.524 6  -2603161.979 1        15.750           1.125
 98  2 12  3 55 29.9920000  0  6 10 05 06 17 30 24
  18870313.063   -28986379.433 7 -15118326.056 3        22.750           2.813
  19444362.695   -18166293.654 6 -13980345.315 2        19.750           2.125
  19064369.875   -26374579.005 7 -12100713.785 3        22.500           2.625
  20747932.180   -12492579.088 6  -9545234.573 1        12.000           0.656
  18257044.352   -31857061.249 7 -24516110.318 3        22.000           3.063
  20636793.570    -3397786.968 6  -2569201.544 1        15.750           1.000
 98  2 12  3 55 59.9920000  0  6 10 05 06 17 30 24
  18872059.273   -28977193.712 7 -15111168.350 3        22.750           2.813
  19454915.211   -18110833.008 6 -13937129.236 2        19.500           2.000
  19047554.461   -26462933.122 7 -12169561.140 3        22.750           2.594
  20728843.180   -12592904.270 5  -9623410.022 1        11.750           0.688
  18255331.445   -31866065.354 7 -24523126.517 3        22.000           3.094
  20645092.461    -3354198.699 6  -2535236.667 1        16.000           0.969
 98  2 12  3 56 29.9920000  0  6 10 05 06 17 30 24
  18873921.570   -28967415.763 7 -15103549.166 3        22.750           2.906
  19465534.453   -18055032.242 6 -13893648.129 2        19.500           2.031
  19030774.672   -26551121.628 7 -12238279.448 3        22.750           2.594
  20709796.523   -12692993.463 6  -9701401.600 1        12.000           0.688
  18253733.570   -31874453.473 7 -24529662.732 3        21.750           3.250
  20653385.633    -3310611.962 6  -2501272.978 1        15.750           0.906
 98  2 12  3 56 59.9920000  0  6 10 05 06 17 30 24
  18875897.203   -28957038.311 7 -15095462.831 3        22.750           2.813
  19476216.734   -17998897.606 6 -13849906.870 2        19.500           2.000
  19014020.539   -26639157.651 7 -12306878.937 3        23.000           2.594
  20690790.914   -12792850.983 6  -9779212.647 1        12.000           0.750
  18252253.375   -31882228.432 7 -24535721.158 3        21.750           3.125
  20661677.406    -3267030.924 6  -2467313.725 1        15.750           0.875
 98  2 12  3 57 29.9920000  0  6 10 05 06 17 30 24
  18877982.063   -28946070.033 7 -15086916.116 3        23.000           2.906
  19486960.024   -17942443.478 6 -13805916.654 2        19.000           1.906
  18997295.031   -26727049.176 7 -12375365.836 3        22.750           2.781
  20671832.695   -12892493.521 5  -9856856.168 1        11.750           0.719
  18250891.188   -31889399.478 7 -24541309.000 3        21.750           3.094
  20669964.672    -3223473.122 6  -2433372.583 1        15.750           0.719
 98  2 12  3 57 59.9920000  0  6 10 05 06 17 30 24
  18880180.172   -28934521.296 7 -15077917.099 3        22.750           3.063
  19497763.289   -17885677.292 6 -13761683.282 2        19.500           1.938
  18980599.438   -26814791.610 7 -12443736.555 3        23.250           2.719
  20652910.203   -12991931.550 5  -9934340.321 1        11.750           0.781
  18249640.953   -31895967.694 7 -24546427.106 3        22.000           3.094
  20678251.188    -3179943.719 6  -2399453.570 1        15.500           0.844
 98  2 12  3 58 29.9920000  0  6 10 05 06 17 30 24
  18882484.774   -28922419.464 7 -15068487.096 3        23.000           3.000
  19508619.219   -17828622.615 6 -13717225.100 2        19.000           1.813
  18963927.899   -26902401.633 7 -12512004.098 3        23.000           2.688
  20634023.383   -13091168.737 5 -10011667.979 1        11.750           0.688
  18248501.031   -31901949.384 7 -24551088.184 3        22.000           3.125
  20686529.406    -3136441.653 6  -2365555.856 1        15.250           0.813
 98  2 12  3 58 59.9920000  0  6 10 05 06 17 30 24
  18884890.055   -28909781.289 7 -15058639.166 3        23.000           2.938
  19519534.719   -17771260.565 6 -13672527.409 2        18.750           1.844
  18947283.977   -26989869.510 7 -12580160.882 3        23.250           2.688
  20615177.727   -13190213.328 6 -10088845.559 1        12.000           0.781
  18247473.234   -31907349.954 7 -24555296.439 3        21.250           3.156
  20694805.242    -3092952.154 6  -2331667.938 1        15.500           0.844
 98  2 12  3 59 29.9920000  0  6 10 05 06 17 30 24
  18887389.836   -28896630.539 7 -15048391.823 3        23.000           2.875
  19530509.734   -17713582.965 6 -13627583.837 2        18.500           1.750
  18930669.352   -27077176.301 7 -12648192.141 3        23.500           2.625
  20596368.125   -13289061.053 5 -10165869.731 1        11.750           0.781
  18246557.125   -31912178.309 7 -24559058.803 3        21.750           3.125
  20703076.305    -3049482.287 6  -2297795.318 1        15.500           0.813
 98  2 12  3 59 59.9910000  0  6 10 05 06 17 30 24
  18889989.417   -28882979.679 7 -15037754.784 3        22.750           2.906
  19541550.628   -17655574.785 6 -13582382.667 2        18.500           1.750
  18914089.136   -27164306.416 7 -12716085.731 3        23.750           2.656
  20577600.112   -13387692.931 5 -10242725.701 1        11.750           0.844
  18245744.730   -31916425.172 7 -24562368.069 3        22.000           3.125
  20711344.526    -3006023.899 6  -2263931.637 1        14.750           0.750
 98  2 12  4  0 29.9910000  0  6 10 05 06 17 30 24
  18892681.605   -28868826.778 7 -15026726.545 3        23.000           2.969
  19552651.792   -17597227.757 6 -13536917.465 2        18.250           1.781
  18897540.253   -27251267.171 7 -12783847.356 3        23.500           2.656
  20558871.784   -13486113.773 5 -10319417.248 1        11.750           0.750
  18245049.870   -31920088.626 7 -24565222.721 3        22.000           3.125
  20719620.956    -2962547.638 6  -2230054.031 1        15.000           0.938
 98  2 12  4  0 59.9910000  0  6 10 05 06 17 30 24
  18895472.620   -28854164.108 7 -15015301.090 3        23.000           2.938
  19563817.448   -17538548.413 6 -13491193.312 2        17.750           1.688
  18881028.230   -27338046.376 7 -12851467.499 3        23.750           2.688
  20540180.378   -13584324.360 5 -10395944.946 1        11.500           0.781
  18244462.730   -31923167.742 7 -24567622.049 3        22.250           3.094
  20727897.800    -2919049.241 6  -2196159.177 1        15.000           0.813
 98  2 12  4  1 29.9910000  0  6 10 05 06 17 30 24
  18898359.026   -28838986.147 7 -15003474.107 3        23.000           2.938
  19575042.183   -17479561.210 6 -13445229.276 2        17.750           1.625
  18864544.690   -27424663.403 7 -12918961.287 3        24.000           2.813
  20521536.261   -13682318.979 6 -10472304.358 1        12.000           0.781
  18243988.440   -31925664.796 7 -24569567.818 3        22.000           3.094
  20736177.776    -2875539.158 6  -2162255.228 1        14.500           1.000
 98  2 12  4  1 59.9910000  0  6 10 05 06 17 30 24
  18901350.605   -28823275.103 7 -14991231.735 3        23.000           2.875
  19586327.972   -17420265.091 6 -13399024.513 2        17.750           1.719
  18848091.894   -27511122.947 7 -12986332.354 3        24.250           2.844
  20502926.417   -13780089.212 6 -10548488.930 1        12.000           0.719
  18243625.112   -31927566.471 7 -24571049.658 3        22.250           3.094
  20744462.167    -2832001.515 6  -2128329.796 1        14.500           0.969
 98  2 12  4  2 29.9910000  0  6 10 05 06 17 30 24
  18904442.534   -28807019.631 7 -14978565.128 3        23.250           2.750
  19597666.331   -17360678.450 6 -13352593.381 2        17.500           1.563
  18831669.339   -27597422.389 7 -13053578.669 3        24.250           2.844
  20484363.089   -13877647.686 6 -10624508.488 1        12.250           0.813
  18243379.847   -31928881.667 7 -24572074.502 3        22.000           3.125
  20752750.972    -2788442.705 6  -2094387.869 1        14.500           0.906
 98  2 12  4  2 59.9910000  0  6 10 05 06 17 30 24
  18907638.276   -28790231.744 7 -14965483.651 3        23.250           2.719
  19609060.706   -17300806.525 6 -13305939.944 2        17.250           1.625
  18815278.870   -27683559.286 7 -13120698.325 3        24.250           2.875
  20465840.659   -13974994.548 6 -10700363.159 1        12.250           0.844
  18243237.542   -31929619.196 7 -24572649.218 3        22.000           3.219
  20761039.042    -2744889.680 6  -2060450.455 1        14.500           0.781
 98  2 12  4  3 29.9910000  0  6 10 05 06 17 30 24
  18910932.480   -28772921.682 7 -14951995.290 3        23.500           2.656
  19620509.441   -17240639.082 6 -13259056.243 2        17.000           1.656
  18798918.058   -27769525.570 7 -13187685.036 3        24.250           2.844
  20447354.941   -14072124.503 6 -10776048.805 1        12.000           0.906
  18243208.159   -31929776.143 7                        22.000
  20769326.636    -2701342.612 6  -2026517.684 1        14.000           0.875
 98  2 12  4  3 59.9910000  0  6 10 05 06 17 30 24
  18914322.980   -28755096.893 7 -14938105.841 3        23.250           2.750
  19632013.120   -17180188.440 6 -13211951.859 2        16.750           1.563
  18782595.112   -27855308.489 7 -13254528.861 3        24.500           2.875
  20428909.144   -14169050.513 5 -10851575.543 1        11.750           0.906
  18243284.042   -31929372.582 7                        21.750
  20777612.370    -2657799.085 6  -1992587.668 1        14.000           0.906
 98  2 12  4  4 29.9910000  0  6 10 05 06 17 30 24
  18917814.542   -28736760.957 7 -14923818.098 3        23.250           2.719
  19643567.698   -17119461.689 6 -13164632.321 2        16.750           1.500
  18766306.628   -27940907.788 7 -13321229.609 3        24.500           3.000
  20410503.995   -14265774.952 5 -10926945.219 1        11.750           0.813
  18243465.917   -31928411.280 7 -24571708.040 3        22.250           3.250
  20785896.597    -2614257.892 6  -1958659.471 1        14.250           0.844
 98  2 12  4  4 59.9910000  0  6 10 05 06 17 30 24
  18921400.769   -28717919.334 7 -14909136.307 3        23.250           2.656
  19655178.050   -17058451.978 6 -13117092.310 2        17.000           1.500
  18750053.214   -28026322.200 7 -13387786.287 3        24.000           3.000
  20392142.073   -14362286.161 5 -11002148.743 1        11.500           0.781
  18243757.089   -31926879.027 7 -24570514.093 3        22.500           3.188
  20794182.409    -2570708.193 6  -1924724.647 1        14.500           0.875
 98  2 12  4  5 29.9910000  0  6 10 05 06 17 30 24
  18925082.026   -28698560.330 7 -14894051.366 3        23.250           2.594
  19666841.925   -16997156.185 6 -13069329.365 2        16.500           1.594
  18733832.987   -28111557.940 7 -13454203.737 3        23.750           3.031
  20373816.886   -14458587.142 6 -11077188.455 1        12.250           0.906
  18244159.503   -31924775.002 7 -24568874.612 3        22.250           3.125
  20802473.198    -2527151.066 6  -1890784.033 1        14.000           0.875
 98  2 12  4  5 59.9910000  0  6 10 05 06 17 30 24
  18928863.511   -28678682.496 7 -14878562.140 3        23.250           2.594
  19678560.870   -16935573.506 6 -13021342.879 2        16.750           1.500
  18717646.073   -28196617.787 7 -13520484.132 3        24.000           3.031
  20355531.722   -14554666.623 6 -11152055.563 1        12.250           0.844
  18244671.081   -31922094.376 7 -24566785.830 3        21.750           3.188
  20810759.925    -2483594.543 6  -1856843.895 1        14.250           0.875
 98  2 12  4  6 29.9910000  0  6 10 05 06 17 30 24
  18932745.144   -28658290.674 7 -14862672.402 3        23.250           2.531
  19690337.636   -16873691.909 6 -12973123.468 2        16.500           1.531
  18701493.183   -28281504.601 7 -13586629.698 3        24.000           2.969
  20337292.151   -14650513.664 6 -11226741.555 1        12.500           0.875
  18245293.925   -31918822.116 7 -24564236.038 3        21.750           3.063
  20819044.745    -2440047.220 6  -1822910.916 1        13.750           0.781
 98  2 12  4  6 59.9910000  0  6 10 05 06 17 30 24
  18936724.644   -28637380.802 7 -14846378.995 2        23.250           2.469
  19702169.784   -16811504.514 6 -12924665.778 2        16.500           1.500
  18685373.519   -28366209.789 7 -13652633.736 3        24.000           3.000
  20319095.644   -14746123.871 6 -11301242.997 1        12.500           0.813
  18246028.815   -31914953.967 7 -24561221.911 3        21.750           3.188
  20827332.448    -2396513.787 6  -1788988.768 1        14.000           0.813
 98  2 12  4  7 29.9910000  0  6 10 05 06 17 30 24
  18940799.683   -28615969.246 7 -14829694.663 3        23.500           2.531
  19714060.065   -16749023.071 6 -12875978.949 1        16.500           1.469
  18669287.808   -28450743.904 7 -13718504.470 3        24.000           3.031
  20300942.847   -14841514.080 6 -11375573.002 1        12.750           0.813
  18246875.315   -31910503.641 7 -24557754.149 3        21.500           3.250
  20835609.503    -2353011.872 6  -1755091.177 1        13.500           0.781
 98  2 12  4  7 59.9910000  0  6 10 05 06 17 30 24
  18944966.073   -28594069.026 7 -14812629.548 3        24.000           2.531
  19726003.159   -16686265.712 6 -12827077.132 2        16.750           1.594
  18653235.370   -28535104.649 7 -13784240.105 3        24.000           3.000
  20282832.589   -14936690.503 6 -11449736.411 1        13.000           0.813
  18247833.565   -31905470.878 7 -24553832.529 3        21.500           3.219
  20843879.691    -2309539.036 6  -1721216.235 1        13.250           0.781
 98  2 12  4  8 29.9910000  0  6 10 05 06 17 30 24
  18949227.534   -28571671.124 7 -14795176.638 2        24.000           2.438
  19737996.401   -16623242.640 6 -12777968.261 2        17.000           1.500
  18637214.011   -28619291.398 7 -13849840.164 3        23.750           2.938
  20264757.675   -15031672.715 6 -11523748.488 1        13.250           0.906
  18248900.995   -31899855.510 7 -24549456.937 3        21.250           3.219
  20852151.753    -2266087.408 6  -1687357.838 1        13.250           0.813
 98  2 12  4  8 59.9910000  0  6 10 05 06 17 30 24
  18953584.644   -28548781.595 7 -14777340.635 3        24.000           2.500
  19750035.417   -16559965.226 6 -12728661.195 2        16.500           1.594
  18621226.440   -28703312.552 7 -13915311.188 3        24.000           2.969
  20246718.487   -15126468.756 6 -11597615.488 1        13.000           0.844
  18250079.855   -31893668.276 7 -24544635.734 3        21.250           3.125
  20860413.940    -2222655.965 6  -1653515.160 1        13.500           0.813
